<?xml version="1.0" encoding="UTF-8" standalone="no" ?>
<gpx xmlns="http://www.topografix.com/GPX/1/1" xmlns:xsi="http://www.w3.org/2001/XMLSchema-instance" xsi:schemaLocation="http://www.topografix.com/GPX/1/1 http://www.topografix.com/GPX/1/1/gpx.xsd" version="1.1" creator="VisuGPX - https://www.visugpx.com">
  <metadata>
    <name>Traversée Hautacam-Bareges</name>
    <desc><![CDATA[Jolie traversée bien vierge en passant 3 cols  ainsi que le bleu
]]></desc>
  </metadata>
  <wpt lat="42.96672" lon="0.01078">
    <ele>1680</ele>
    <name><![CDATA[Pause à 2/4 09:04]]></name>
    <desc><![CDATA[Pause de 1min 23s]]></desc>
  </wpt>
  <wpt lat="42.95251" lon="0.04">
    <ele>1770</ele>
    <name><![CDATA[Pause à 2/4 10:03]]></name>
    <desc><![CDATA[Pause de 1min 38s]]></desc>
  </wpt>
  <wpt lat="42.94856" lon="0.04542">
    <ele>1695</ele>
    <name><![CDATA[Pause à 2/4 10:18]]></name>
    <desc><![CDATA[Pause de 1min 10s]]></desc>
  </wpt>
  <wpt lat="42.9379" lon="0.05821">
    <ele>1913</ele>
    <name><![CDATA[Pause à 2/4 10:53]]></name>
    <desc><![CDATA[Pause de 11min 23s]]></desc>
  </wpt>
  <wpt lat="42.93715" lon="0.05861">
    <ele>1907</ele>
    <name><![CDATA[Pause à 2/4 11:04]]></name>
    <desc><![CDATA[Pause de 2min 5s]]></desc>
  </wpt>
  <wpt lat="42.92894" lon="0.05952">
    <ele>2133</ele>
    <name><![CDATA[Pause à 2/4 11:38]]></name>
    <desc><![CDATA[Pause de 3min 50s]]></desc>
  </wpt>
  <wpt lat="42.92794" lon="0.06103">
    <ele>2181</ele>
    <name><![CDATA[Pause à 2/4 11:46]]></name>
    <desc><![CDATA[Pause de 1min 35s]]></desc>
  </wpt>
  <wpt lat="42.92758" lon="0.06568">
    <ele>2331</ele>
    <name><![CDATA[Pause à 2/4 12:10]]></name>
    <desc><![CDATA[Pause de 10min 45s]]></desc>
  </wpt>
  <wpt lat="42.9303" lon="0.10246">
    <ele>2205</ele>
    <name><![CDATA[Pause à 2/4 13:34]]></name>
    <desc><![CDATA[Pause de 1min 32s]]></desc>
  </wpt>
  <wpt lat="42.93049" lon="0.10447">
    <ele>2224</ele>
    <name><![CDATA[Pause à 2/4 13:38]]></name>
    <desc><![CDATA[Pause de 1min 31s]]></desc>
  </wpt>
  <wpt lat="42.93078" lon="0.11198">
    <ele>2362</ele>
    <name><![CDATA[Pause à 2/4 14:00]]></name>
    <desc><![CDATA[Pause de 1min 42s]]></desc>
  </wpt>
  <wpt lat="42.91897" lon="0.11734">
    <ele>2052</ele>
    <name><![CDATA[Pause à 2/4 14:33]]></name>
    <desc><![CDATA[Pause de 1min 13s]]></desc>
  </wpt>
  <wpt lat="42.90328" lon="0.10258">
    <ele>1456</ele>
    <name><![CDATA[Pause à 2/4 15:14]]></name>
  </wpt>
  <trk>
    <name><![CDATA[Hautacam]]></name>
    <trkseg>
      <trkpt lat="42.97171" lon="-0.00353">
        <ele>1620</ele>
        <time>2016-04-02T06:28:24Z</time>
      </trkpt>
      <trkpt lat="42.97178" lon="-0.0035">
        <ele>1618</ele>
        <time>2016-04-02T06:28:47Z</time>
      </trkpt>
      <trkpt lat="42.97178" lon="-0.0035">
        <ele>1618</ele>
        <time>2016-04-02T06:28:48Z</time>
      </trkpt>
      <trkpt lat="42.97178" lon="-0.00342">
        <ele>1617</ele>
        <time>2016-04-02T06:29:17Z</time>
      </trkpt>
      <trkpt lat="42.9718" lon="-0.0034">
        <ele>1615</ele>
        <time>2016-04-02T06:29:18Z</time>
      </trkpt>
      <trkpt lat="42.9718" lon="-0.00341">
        <ele>1614</ele>
        <time>2016-04-02T06:29:33Z</time>
      </trkpt>
      <trkpt lat="42.9718" lon="-0.00341">
        <ele>1613</ele>
        <time>2016-04-02T06:29:34Z</time>
      </trkpt>
      <trkpt lat="42.97183" lon="-0.00345">
        <ele>1611</ele>
        <time>2016-04-02T06:29:54Z</time>
      </trkpt>
      <trkpt lat="42.97183" lon="-0.00345">
        <ele>1611</ele>
        <time>2016-04-02T06:29:55Z</time>
      </trkpt>
      <trkpt lat="42.97185" lon="-0.00345">
        <ele>1611</ele>
        <time>2016-04-02T06:30:15Z</time>
      </trkpt>
      <trkpt lat="42.97185" lon="-0.00345">
        <ele>1611</ele>
        <time>2016-04-02T06:30:16Z</time>
      </trkpt>
      <trkpt lat="42.97185" lon="-0.00344">
        <ele>1610</ele>
        <time>2016-04-02T06:30:35Z</time>
      </trkpt>
      <trkpt lat="42.97185" lon="-0.00344">
        <ele>1611</ele>
        <time>2016-04-02T06:30:36Z</time>
      </trkpt>
      <trkpt lat="42.97184" lon="-0.00344">
        <ele>1611</ele>
        <time>2016-04-02T06:30:55Z</time>
      </trkpt>
      <trkpt lat="42.97185" lon="-0.00344">
        <ele>1610</ele>
        <time>2016-04-02T06:30:56Z</time>
      </trkpt>
      <trkpt lat="42.97182" lon="-0.00341">
        <ele>1610</ele>
        <time>2016-04-02T06:31:17Z</time>
      </trkpt>
      <trkpt lat="42.97182" lon="-0.00341">
        <ele>1610</ele>
        <time>2016-04-02T06:31:17Z</time>
      </trkpt>
      <trkpt lat="42.97182" lon="-0.00341">
        <ele>1609</ele>
        <time>2016-04-02T06:31:18Z</time>
      </trkpt>
      <trkpt lat="42.97183" lon="-0.00341">
        <ele>1609</ele>
        <time>2016-04-02T06:31:37Z</time>
      </trkpt>
      <trkpt lat="42.97183" lon="-0.00342">
        <ele>1609</ele>
        <time>2016-04-02T06:31:38Z</time>
      </trkpt>
      <trkpt lat="42.97181" lon="-0.00341">
        <ele>1609</ele>
        <time>2016-04-02T06:31:58Z</time>
      </trkpt>
      <trkpt lat="42.97181" lon="-0.00341">
        <ele>1609</ele>
        <time>2016-04-02T06:31:59Z</time>
      </trkpt>
      <trkpt lat="42.97179" lon="-0.00338">
        <ele>1609</ele>
        <time>2016-04-02T06:32:18Z</time>
      </trkpt>
      <trkpt lat="42.97179" lon="-0.00338">
        <ele>1608</ele>
        <time>2016-04-02T06:32:19Z</time>
      </trkpt>
      <trkpt lat="42.97181" lon="-0.00338">
        <ele>1608</ele>
        <time>2016-04-02T06:32:39Z</time>
      </trkpt>
      <trkpt lat="42.97181" lon="-0.00339">
        <ele>1609</ele>
        <time>2016-04-02T06:32:40Z</time>
      </trkpt>
      <trkpt lat="42.97179" lon="-0.00341">
        <ele>1609</ele>
        <time>2016-04-02T06:32:59Z</time>
      </trkpt>
      <trkpt lat="42.97179" lon="-0.00341">
        <ele>1610</ele>
        <time>2016-04-02T06:33:00Z</time>
      </trkpt>
      <trkpt lat="42.97179" lon="-0.00341">
        <ele>1611</ele>
        <time>2016-04-02T06:33:21Z</time>
      </trkpt>
      <trkpt lat="42.97179" lon="-0.00341">
        <ele>1611</ele>
        <time>2016-04-02T06:33:22Z</time>
      </trkpt>
      <trkpt lat="42.97178" lon="-0.00344">
        <ele>1612</ele>
        <time>2016-04-02T06:33:40Z</time>
      </trkpt>
      <trkpt lat="42.97178" lon="-0.00344">
        <ele>1612</ele>
        <time>2016-04-02T06:33:41Z</time>
      </trkpt>
      <trkpt lat="42.97178" lon="-0.00342">
        <ele>1613</ele>
        <time>2016-04-02T06:34:01Z</time>
      </trkpt>
      <trkpt lat="42.97178" lon="-0.00342">
        <ele>1614</ele>
        <time>2016-04-02T06:34:02Z</time>
      </trkpt>
      <trkpt lat="42.97178" lon="-0.00341">
        <ele>1614</ele>
        <time>2016-04-02T06:34:22Z</time>
      </trkpt>
      <trkpt lat="42.97178" lon="-0.00341">
        <ele>1614</ele>
        <time>2016-04-02T06:34:23Z</time>
      </trkpt>
      <trkpt lat="42.97178" lon="-0.00341">
        <ele>1614</ele>
        <time>2016-04-02T06:34:43Z</time>
      </trkpt>
      <trkpt lat="42.97178" lon="-0.00341">
        <ele>1614</ele>
        <time>2016-04-02T06:34:44Z</time>
      </trkpt>
      <trkpt lat="42.97178" lon="-0.00341">
        <ele>1613</ele>
        <time>2016-04-02T06:35:03Z</time>
      </trkpt>
      <trkpt lat="42.97178" lon="-0.00341">
        <ele>1613</ele>
        <time>2016-04-02T06:35:04Z</time>
      </trkpt>
      <trkpt lat="42.97179" lon="-0.0034">
        <ele>1613</ele>
        <time>2016-04-02T06:35:24Z</time>
      </trkpt>
      <trkpt lat="42.97179" lon="-0.0034">
        <ele>1613</ele>
        <time>2016-04-02T06:35:25Z</time>
      </trkpt>
      <trkpt lat="42.97179" lon="-0.0034">
        <ele>1612</ele>
        <time>2016-04-02T06:35:46Z</time>
      </trkpt>
      <trkpt lat="42.97179" lon="-0.0034">
        <ele>1612</ele>
        <time>2016-04-02T06:35:49Z</time>
      </trkpt>
      <trkpt lat="42.97178" lon="-0.00343">
        <ele>1612</ele>
        <time>2016-04-02T06:36:07Z</time>
      </trkpt>
      <trkpt lat="42.97178" lon="-0.00343">
        <ele>1612</ele>
        <time>2016-04-02T06:36:08Z</time>
      </trkpt>
      <trkpt lat="42.97178" lon="-0.00341">
        <ele>1611</ele>
        <time>2016-04-02T06:36:27Z</time>
      </trkpt>
      <trkpt lat="42.97178" lon="-0.00341">
        <ele>1611</ele>
        <time>2016-04-02T06:36:28Z</time>
      </trkpt>
      <trkpt lat="42.9718" lon="-0.00345">
        <ele>1610</ele>
        <time>2016-04-02T06:36:43Z</time>
      </trkpt>
      <trkpt lat="42.9718" lon="-0.00345">
        <ele>1610</ele>
        <time>2016-04-02T06:36:44Z</time>
      </trkpt>
      <trkpt lat="42.9718" lon="-0.00342">
        <ele>1610</ele>
        <time>2016-04-02T06:37:13Z</time>
      </trkpt>
      <trkpt lat="42.9718" lon="-0.00341">
        <ele>1609</ele>
        <time>2016-04-02T06:37:14Z</time>
      </trkpt>
      <trkpt lat="42.97181" lon="-0.0034">
        <ele>1610</ele>
        <time>2016-04-02T06:37:43Z</time>
      </trkpt>
      <trkpt lat="42.97181" lon="-0.0034">
        <ele>1610</ele>
        <time>2016-04-02T06:37:44Z</time>
      </trkpt>
      <trkpt lat="42.97168" lon="-0.00329">
        <ele>1610</ele>
        <time>2016-04-02T06:37:59Z</time>
      </trkpt>
      <trkpt lat="42.97166" lon="-0.00327">
        <ele>1610</ele>
        <time>2016-04-02T06:38:00Z</time>
      </trkpt>
      <trkpt lat="42.97148" lon="-0.00319">
        <ele>1610</ele>
        <time>2016-04-02T06:38:11Z</time>
      </trkpt>
      <trkpt lat="42.97138" lon="-0.00304">
        <ele>1609</ele>
        <time>2016-04-02T06:38:39Z</time>
      </trkpt>
      <trkpt lat="42.97137" lon="-0.00304">
        <ele>1608</ele>
        <time>2016-04-02T06:38:40Z</time>
      </trkpt>
      <trkpt lat="42.97136" lon="-0.00301">
        <ele>1607</ele>
        <time>2016-04-02T06:39:01Z</time>
      </trkpt>
      <trkpt lat="42.97136" lon="-0.00301">
        <ele>1606</ele>
        <time>2016-04-02T06:39:03Z</time>
      </trkpt>
      <trkpt lat="42.97136" lon="-0.003">
        <ele>1606</ele>
        <time>2016-04-02T06:39:24Z</time>
      </trkpt>
      <trkpt lat="42.97136" lon="-0.003">
        <ele>1606</ele>
        <time>2016-04-02T06:39:25Z</time>
      </trkpt>
      <trkpt lat="42.97137" lon="-0.003">
        <ele>1607</ele>
        <time>2016-04-02T06:39:45Z</time>
      </trkpt>
      <trkpt lat="42.97137" lon="-0.003">
        <ele>1607</ele>
        <time>2016-04-02T06:39:46Z</time>
      </trkpt>
      <trkpt lat="42.97137" lon="-0.003">
        <ele>1608</ele>
        <time>2016-04-02T06:40:05Z</time>
      </trkpt>
      <trkpt lat="42.97137" lon="-0.003">
        <ele>1609</ele>
        <time>2016-04-02T06:40:06Z</time>
      </trkpt>
      <trkpt lat="42.97133" lon="-0.00299">
        <ele>1609</ele>
        <time>2016-04-02T06:40:27Z</time>
      </trkpt>
      <trkpt lat="42.97134" lon="-0.00299">
        <ele>1610</ele>
        <time>2016-04-02T06:40:28Z</time>
      </trkpt>
      <trkpt lat="42.97133" lon="-0.00301">
        <ele>1610</ele>
        <time>2016-04-02T06:40:45Z</time>
      </trkpt>
      <trkpt lat="42.97133" lon="-0.00301">
        <ele>1610</ele>
        <time>2016-04-02T06:40:45Z</time>
      </trkpt>
      <trkpt lat="42.97133" lon="-0.00301">
        <ele>1611</ele>
        <time>2016-04-02T06:41:15Z</time>
      </trkpt>
      <trkpt lat="42.97133" lon="-0.00301">
        <ele>1611</ele>
        <time>2016-04-02T06:41:15Z</time>
      </trkpt>
      <trkpt lat="42.97134" lon="-0.003">
        <ele>1612</ele>
        <time>2016-04-02T06:41:45Z</time>
      </trkpt>
      <trkpt lat="42.97134" lon="-0.003">
        <ele>1613</ele>
        <time>2016-04-02T06:41:46Z</time>
      </trkpt>
      <trkpt lat="42.97134" lon="-0.00299">
        <ele>1613</ele>
        <time>2016-04-02T06:42:03Z</time>
      </trkpt>
      <trkpt lat="42.97134" lon="-0.00299">
        <ele>1613</ele>
        <time>2016-04-02T06:42:04Z</time>
      </trkpt>
      <trkpt lat="42.97134" lon="-0.00299">
        <ele>1613</ele>
        <time>2016-04-02T06:42:05Z</time>
      </trkpt>
      <trkpt lat="42.97134" lon="-0.00299">
        <ele>1612</ele>
        <time>2016-04-02T06:42:06Z</time>
      </trkpt>
      <trkpt lat="42.97124" lon="-0.00296">
        <ele>1612</ele>
        <time>2016-04-02T06:42:24Z</time>
      </trkpt>
      <trkpt lat="42.97122" lon="-0.00295">
        <ele>1612</ele>
        <time>2016-04-02T06:42:25Z</time>
      </trkpt>
      <trkpt lat="42.97104" lon="-0.00291">
        <ele>1612</ele>
        <time>2016-04-02T06:42:40Z</time>
      </trkpt>
      <trkpt lat="42.97092" lon="-0.00289">
        <ele>1612</ele>
        <time>2016-04-02T06:43:01Z</time>
      </trkpt>
      <trkpt lat="42.97091" lon="-0.00289">
        <ele>1613</ele>
        <time>2016-04-02T06:43:02Z</time>
      </trkpt>
      <trkpt lat="42.9708" lon="-0.00287">
        <ele>1613</ele>
        <time>2016-04-02T06:43:22Z</time>
      </trkpt>
      <trkpt lat="42.97078" lon="-0.00286">
        <ele>1614</ele>
        <time>2016-04-02T06:43:23Z</time>
      </trkpt>
      <trkpt lat="42.97062" lon="-0.00278">
        <ele>1615</ele>
        <time>2016-04-02T06:43:43Z</time>
      </trkpt>
      <trkpt lat="42.9706" lon="-0.00278">
        <ele>1615</ele>
        <time>2016-04-02T06:43:44Z</time>
      </trkpt>
      <trkpt lat="42.97047" lon="-0.00272">
        <ele>1617</ele>
        <time>2016-04-02T06:44:03Z</time>
      </trkpt>
      <trkpt lat="42.97047" lon="-0.00272">
        <ele>1619</ele>
        <time>2016-04-02T06:44:04Z</time>
      </trkpt>
      <trkpt lat="42.97035" lon="-0.00264">
        <ele>1622</ele>
        <time>2016-04-02T06:44:24Z</time>
      </trkpt>
      <trkpt lat="42.97035" lon="-0.00264">
        <ele>1624</ele>
        <time>2016-04-02T06:44:25Z</time>
      </trkpt>
      <trkpt lat="42.97023" lon="-0.00255">
        <ele>1627</ele>
        <time>2016-04-02T06:44:45Z</time>
      </trkpt>
      <trkpt lat="42.97022" lon="-0.00255">
        <ele>1629</ele>
        <time>2016-04-02T06:44:46Z</time>
      </trkpt>
      <trkpt lat="42.97013" lon="-0.00248">
        <ele>1631</ele>
        <time>2016-04-02T06:45:05Z</time>
      </trkpt>
      <trkpt lat="42.97012" lon="-0.00247">
        <ele>1632</ele>
        <time>2016-04-02T06:45:06Z</time>
      </trkpt>
      <trkpt lat="42.97001" lon="-0.00238">
        <ele>1633</ele>
        <time>2016-04-02T06:45:27Z</time>
      </trkpt>
      <trkpt lat="42.97001" lon="-0.00237">
        <ele>1634</ele>
        <time>2016-04-02T06:45:28Z</time>
      </trkpt>
      <trkpt lat="42.96991" lon="-0.00231">
        <ele>1635</ele>
        <time>2016-04-02T06:45:49Z</time>
      </trkpt>
      <trkpt lat="42.9699" lon="-0.0023">
        <ele>1636</ele>
        <time>2016-04-02T06:45:50Z</time>
      </trkpt>
      <trkpt lat="42.96981" lon="-0.00221">
        <ele>1639</ele>
        <time>2016-04-02T06:46:09Z</time>
      </trkpt>
      <trkpt lat="42.96981" lon="-0.00221">
        <ele>1640</ele>
        <time>2016-04-02T06:46:10Z</time>
      </trkpt>
      <trkpt lat="42.96973" lon="-0.00212">
        <ele>1643</ele>
        <time>2016-04-02T06:46:30Z</time>
      </trkpt>
      <trkpt lat="42.96973" lon="-0.00212">
        <ele>1645</ele>
        <time>2016-04-02T06:46:31Z</time>
      </trkpt>
      <trkpt lat="42.96962" lon="-0.00204">
        <ele>1647</ele>
        <time>2016-04-02T06:46:51Z</time>
      </trkpt>
      <trkpt lat="42.96962" lon="-0.00203">
        <ele>1649</ele>
        <time>2016-04-02T06:46:52Z</time>
      </trkpt>
      <trkpt lat="42.96952" lon="-0.00197">
        <ele>1651</ele>
        <time>2016-04-02T06:47:13Z</time>
      </trkpt>
      <trkpt lat="42.96951" lon="-0.00197">
        <ele>1652</ele>
        <time>2016-04-02T06:47:14Z</time>
      </trkpt>
      <trkpt lat="42.96944" lon="-0.00189">
        <ele>1654</ele>
        <time>2016-04-02T06:47:33Z</time>
      </trkpt>
      <trkpt lat="42.96944" lon="-0.00189">
        <ele>1655</ele>
        <time>2016-04-02T06:47:34Z</time>
      </trkpt>
      <trkpt lat="42.96936" lon="-0.0018">
        <ele>1656</ele>
        <time>2016-04-02T06:47:53Z</time>
      </trkpt>
      <trkpt lat="42.96935" lon="-0.0018">
        <ele>1658</ele>
        <time>2016-04-02T06:47:54Z</time>
      </trkpt>
      <trkpt lat="42.96928" lon="-0.00171">
        <ele>1661</ele>
        <time>2016-04-02T06:48:13Z</time>
      </trkpt>
      <trkpt lat="42.96927" lon="-0.0017">
        <ele>1663</ele>
        <time>2016-04-02T06:48:14Z</time>
      </trkpt>
      <trkpt lat="42.96919" lon="-0.0016">
        <ele>1666</ele>
        <time>2016-04-02T06:48:34Z</time>
      </trkpt>
      <trkpt lat="42.96919" lon="-0.00158">
        <ele>1668</ele>
        <time>2016-04-02T06:48:35Z</time>
      </trkpt>
      <trkpt lat="42.9691" lon="-0.00145">
        <ele>1671</ele>
        <time>2016-04-02T06:48:55Z</time>
      </trkpt>
      <trkpt lat="42.96909" lon="-0.00144">
        <ele>1674</ele>
        <time>2016-04-02T06:48:56Z</time>
      </trkpt>
      <trkpt lat="42.96902" lon="-0.00126">
        <ele>1676</ele>
        <time>2016-04-02T06:49:16Z</time>
      </trkpt>
      <trkpt lat="42.96901" lon="-0.00123">
        <ele>1677</ele>
        <time>2016-04-02T06:49:19Z</time>
      </trkpt>
      <trkpt lat="42.96897" lon="-0.00102">
        <ele>1678</ele>
        <time>2016-04-02T06:49:37Z</time>
      </trkpt>
      <trkpt lat="42.96897" lon="-0.00101">
        <ele>1678</ele>
        <time>2016-04-02T06:49:38Z</time>
      </trkpt>
      <trkpt lat="42.96894" lon="-0.00087">
        <ele>1679</ele>
        <time>2016-04-02T06:49:57Z</time>
      </trkpt>
      <trkpt lat="42.96894" lon="-0.00087">
        <ele>1679</ele>
        <time>2016-04-02T06:49:57Z</time>
      </trkpt>
      <trkpt lat="42.96888" lon="-0.00063">
        <ele>1680</ele>
        <time>2016-04-02T06:50:16Z</time>
      </trkpt>
      <trkpt lat="42.96882" lon="-0.0004">
        <ele>1679</ele>
        <time>2016-04-02T06:50:30Z</time>
      </trkpt>
      <trkpt lat="42.96876" lon="-0.00017">
        <ele>1679</ele>
        <time>2016-04-02T06:50:41Z</time>
      </trkpt>
      <trkpt lat="42.96872" lon="9.0E-5">
        <ele>1678</ele>
        <time>2016-04-02T06:50:57Z</time>
      </trkpt>
      <trkpt lat="42.96872" lon="0.00034">
        <ele>1678</ele>
        <time>2016-04-02T06:51:15Z</time>
      </trkpt>
      <trkpt lat="42.96874" lon="0.0006">
        <ele>1678</ele>
        <time>2016-04-02T06:51:29Z</time>
      </trkpt>
      <trkpt lat="42.96872" lon="0.00086">
        <ele>1679</ele>
        <time>2016-04-02T06:51:42Z</time>
      </trkpt>
      <trkpt lat="42.96863" lon="0.00109">
        <ele>1679</ele>
        <time>2016-04-02T06:51:58Z</time>
      </trkpt>
      <trkpt lat="42.96853" lon="0.00129">
        <ele>1680</ele>
        <time>2016-04-02T06:52:12Z</time>
      </trkpt>
      <trkpt lat="42.96845" lon="0.00153">
        <ele>1681</ele>
        <time>2016-04-02T06:52:26Z</time>
      </trkpt>
      <trkpt lat="42.96848" lon="0.00179">
        <ele>1682</ele>
        <time>2016-04-02T06:52:42Z</time>
      </trkpt>
      <trkpt lat="42.96858" lon="0.00201">
        <ele>1682</ele>
        <time>2016-04-02T06:52:57Z</time>
      </trkpt>
      <trkpt lat="42.96864" lon="0.00224">
        <ele>1682</ele>
        <time>2016-04-02T06:53:11Z</time>
      </trkpt>
      <trkpt lat="42.9687" lon="0.00248">
        <ele>1682</ele>
        <time>2016-04-02T06:53:25Z</time>
      </trkpt>
      <trkpt lat="42.96881" lon="0.00268">
        <ele>1682</ele>
        <time>2016-04-02T06:53:38Z</time>
      </trkpt>
      <trkpt lat="42.96895" lon="0.00284">
        <ele>1682</ele>
        <time>2016-04-02T06:53:49Z</time>
      </trkpt>
      <trkpt lat="42.96905" lon="0.00305">
        <ele>1682</ele>
        <time>2016-04-02T06:54:02Z</time>
      </trkpt>
      <trkpt lat="42.96901" lon="0.00331">
        <ele>1682</ele>
        <time>2016-04-02T06:54:16Z</time>
      </trkpt>
      <trkpt lat="42.96897" lon="0.00355">
        <ele>1682</ele>
        <time>2016-04-02T06:54:31Z</time>
      </trkpt>
      <trkpt lat="42.96893" lon="0.00379">
        <ele>1682</ele>
        <time>2016-04-02T06:54:45Z</time>
      </trkpt>
      <trkpt lat="42.96892" lon="0.00405">
        <ele>1682</ele>
        <time>2016-04-02T06:55:03Z</time>
      </trkpt>
      <trkpt lat="42.96892" lon="0.0043">
        <ele>1682</ele>
        <time>2016-04-02T06:55:18Z</time>
      </trkpt>
      <trkpt lat="42.96891" lon="0.00454">
        <ele>1681</ele>
        <time>2016-04-02T06:55:31Z</time>
      </trkpt>
      <trkpt lat="42.96886" lon="0.00478">
        <ele>1682</ele>
        <time>2016-04-02T06:55:44Z</time>
      </trkpt>
      <trkpt lat="42.9688" lon="0.00501">
        <ele>1682</ele>
        <time>2016-04-02T06:55:56Z</time>
      </trkpt>
      <trkpt lat="42.96872" lon="0.00524">
        <ele>1682</ele>
        <time>2016-04-02T06:56:09Z</time>
      </trkpt>
      <trkpt lat="42.96865" lon="0.00547">
        <ele>1683</ele>
        <time>2016-04-02T06:56:22Z</time>
      </trkpt>
      <trkpt lat="42.96859" lon="0.00571">
        <ele>1681</ele>
        <time>2016-04-02T06:56:36Z</time>
      </trkpt>
      <trkpt lat="42.96852" lon="0.00595">
        <ele>1681</ele>
        <time>2016-04-02T06:56:47Z</time>
      </trkpt>
      <trkpt lat="42.96849" lon="0.00621">
        <ele>1681</ele>
        <time>2016-04-02T06:56:59Z</time>
      </trkpt>
      <trkpt lat="42.96847" lon="0.00646">
        <ele>1680</ele>
        <time>2016-04-02T06:57:15Z</time>
      </trkpt>
      <trkpt lat="42.96846" lon="0.00672">
        <ele>1678</ele>
        <time>2016-04-02T06:57:26Z</time>
      </trkpt>
      <trkpt lat="42.96846" lon="0.00698">
        <ele>1679</ele>
        <time>2016-04-02T06:57:36Z</time>
      </trkpt>
      <trkpt lat="42.96837" lon="0.00719">
        <ele>1677</ele>
        <time>2016-04-02T06:57:47Z</time>
      </trkpt>
      <trkpt lat="42.96824" lon="0.00738">
        <ele>1676</ele>
        <time>2016-04-02T06:58:01Z</time>
      </trkpt>
      <trkpt lat="42.96813" lon="0.00759">
        <ele>1675</ele>
        <time>2016-04-02T06:58:18Z</time>
      </trkpt>
      <trkpt lat="42.96802" lon="0.0078">
        <ele>1675</ele>
        <time>2016-04-02T06:58:35Z</time>
      </trkpt>
      <trkpt lat="42.96794" lon="0.00803">
        <ele>1676</ele>
        <time>2016-04-02T06:58:49Z</time>
      </trkpt>
      <trkpt lat="42.96785" lon="0.00825">
        <ele>1678</ele>
        <time>2016-04-02T06:59:05Z</time>
      </trkpt>
      <trkpt lat="42.96777" lon="0.00848">
        <ele>1679</ele>
        <time>2016-04-02T06:59:20Z</time>
      </trkpt>
      <trkpt lat="42.96767" lon="0.00871">
        <ele>1680</ele>
        <time>2016-04-02T06:59:35Z</time>
      </trkpt>
      <trkpt lat="42.96757" lon="0.00892">
        <ele>1680</ele>
        <time>2016-04-02T06:59:50Z</time>
      </trkpt>
      <trkpt lat="42.96749" lon="0.00907">
        <ele>1681</ele>
        <time>2016-04-02T07:00:13Z</time>
      </trkpt>
      <trkpt lat="42.96749" lon="0.00907">
        <ele>1681</ele>
        <time>2016-04-02T07:00:14Z</time>
      </trkpt>
      <trkpt lat="42.96749" lon="0.00907">
        <ele>1681</ele>
        <time>2016-04-02T07:00:33Z</time>
      </trkpt>
      <trkpt lat="42.96749" lon="0.00907">
        <ele>1682</ele>
        <time>2016-04-02T07:00:34Z</time>
      </trkpt>
      <trkpt lat="42.96749" lon="0.00907">
        <ele>1683</ele>
        <time>2016-04-02T07:00:52Z</time>
      </trkpt>
      <trkpt lat="42.9675" lon="0.00906">
        <ele>1683</ele>
        <time>2016-04-02T07:00:54Z</time>
      </trkpt>
      <trkpt lat="42.96748" lon="0.00906">
        <ele>1683</ele>
        <time>2016-04-02T07:01:22Z</time>
      </trkpt>
      <trkpt lat="42.96748" lon="0.00906">
        <ele>1683</ele>
        <time>2016-04-02T07:01:23Z</time>
      </trkpt>
      <trkpt lat="42.96753" lon="0.00907">
        <ele>1684</ele>
        <time>2016-04-02T07:01:52Z</time>
      </trkpt>
      <trkpt lat="42.96751" lon="0.00907">
        <ele>1684</ele>
        <time>2016-04-02T07:01:53Z</time>
      </trkpt>
      <trkpt lat="42.96737" lon="0.00924">
        <ele>1684</ele>
        <time>2016-04-02T07:02:16Z</time>
      </trkpt>
      <trkpt lat="42.96728" lon="0.00946">
        <ele>1684</ele>
        <time>2016-04-02T07:02:33Z</time>
      </trkpt>
      <trkpt lat="42.9672" lon="0.00968">
        <ele>1684</ele>
        <time>2016-04-02T07:02:49Z</time>
      </trkpt>
      <trkpt lat="42.96711" lon="0.00991">
        <ele>1683</ele>
        <time>2016-04-02T07:03:05Z</time>
      </trkpt>
      <trkpt lat="42.96702" lon="0.01014">
        <ele>1683</ele>
        <time>2016-04-02T07:03:20Z</time>
      </trkpt>
      <trkpt lat="42.96693" lon="0.01036">
        <ele>1682</ele>
        <time>2016-04-02T07:03:29Z</time>
      </trkpt>
      <trkpt lat="42.96682" lon="0.01056">
        <ele>1681</ele>
        <time>2016-04-02T07:03:38Z</time>
      </trkpt>
      <trkpt lat="42.96672" lon="0.01078">
        <ele>1680</ele>
        <time>2016-04-02T07:03:52Z</time>
      </trkpt>
      <trkpt lat="42.96664" lon="0.01149">
        <ele>1678</ele>
        <time>2016-04-02T07:05:15Z</time>
      </trkpt>
      <trkpt lat="42.9666" lon="0.01174">
        <ele>1676</ele>
        <time>2016-04-02T07:05:26Z</time>
      </trkpt>
      <trkpt lat="42.96656" lon="0.01199">
        <ele>1673</ele>
        <time>2016-04-02T07:05:37Z</time>
      </trkpt>
      <trkpt lat="42.96651" lon="0.01225">
        <ele>1671</ele>
        <time>2016-04-02T07:05:50Z</time>
      </trkpt>
      <trkpt lat="42.96646" lon="0.01248">
        <ele>1669</ele>
        <time>2016-04-02T07:06:02Z</time>
      </trkpt>
      <trkpt lat="42.96635" lon="0.01269">
        <ele>1669</ele>
        <time>2016-04-02T07:06:13Z</time>
      </trkpt>
      <trkpt lat="42.96621" lon="0.01286">
        <ele>1669</ele>
        <time>2016-04-02T07:06:28Z</time>
      </trkpt>
      <trkpt lat="42.96611" lon="0.01306">
        <ele>1670</ele>
        <time>2016-04-02T07:06:43Z</time>
      </trkpt>
      <trkpt lat="42.96608" lon="0.01331">
        <ele>1670</ele>
        <time>2016-04-02T07:06:59Z</time>
      </trkpt>
      <trkpt lat="42.96607" lon="0.01355">
        <ele>1670</ele>
        <time>2016-04-02T07:07:14Z</time>
      </trkpt>
      <trkpt lat="42.96613" lon="0.0138">
        <ele>1672</ele>
        <time>2016-04-02T07:07:31Z</time>
      </trkpt>
      <trkpt lat="42.96617" lon="0.01404">
        <ele>1673</ele>
        <time>2016-04-02T07:07:45Z</time>
      </trkpt>
      <trkpt lat="42.96619" lon="0.01427">
        <ele>1674</ele>
        <time>2016-04-02T07:08:03Z</time>
      </trkpt>
      <trkpt lat="42.96619" lon="0.01429">
        <ele>1676</ele>
        <time>2016-04-02T07:08:04Z</time>
      </trkpt>
      <trkpt lat="42.96619" lon="0.0145">
        <ele>1677</ele>
        <time>2016-04-02T07:08:23Z</time>
      </trkpt>
      <trkpt lat="42.96618" lon="0.01452">
        <ele>1677</ele>
        <time>2016-04-02T07:08:24Z</time>
      </trkpt>
      <trkpt lat="42.9661" lon="0.01477">
        <ele>1677</ele>
        <time>2016-04-02T07:08:40Z</time>
      </trkpt>
      <trkpt lat="42.96601" lon="0.015">
        <ele>1679</ele>
        <time>2016-04-02T07:08:58Z</time>
      </trkpt>
      <trkpt lat="42.96594" lon="0.01523">
        <ele>1680</ele>
        <time>2016-04-02T07:09:19Z</time>
      </trkpt>
      <trkpt lat="42.96582" lon="0.01542">
        <ele>1682</ele>
        <time>2016-04-02T07:09:39Z</time>
      </trkpt>
      <trkpt lat="42.96574" lon="0.01565">
        <ele>1685</ele>
        <time>2016-04-02T07:10:00Z</time>
      </trkpt>
      <trkpt lat="42.96569" lon="0.01589">
        <ele>1688</ele>
        <time>2016-04-02T07:10:18Z</time>
      </trkpt>
      <trkpt lat="42.96564" lon="0.01614">
        <ele>1690</ele>
        <time>2016-04-02T07:10:39Z</time>
      </trkpt>
      <trkpt lat="42.96558" lon="0.01638">
        <ele>1693</ele>
        <time>2016-04-02T07:10:58Z</time>
      </trkpt>
      <trkpt lat="42.96555" lon="0.01659">
        <ele>1695</ele>
        <time>2016-04-02T07:11:20Z</time>
      </trkpt>
      <trkpt lat="42.96554" lon="0.0166">
        <ele>1698</ele>
        <time>2016-04-02T07:11:20Z</time>
      </trkpt>
      <trkpt lat="42.96549" lon="0.01677">
        <ele>1701</ele>
        <time>2016-04-02T07:11:39Z</time>
      </trkpt>
      <trkpt lat="42.96548" lon="0.01675">
        <ele>1702</ele>
        <time>2016-04-02T07:11:39Z</time>
      </trkpt>
      <trkpt lat="42.96542" lon="0.01694">
        <ele>1704</ele>
        <time>2016-04-02T07:11:58Z</time>
      </trkpt>
      <trkpt lat="42.96542" lon="0.01695">
        <ele>1705</ele>
        <time>2016-04-02T07:11:59Z</time>
      </trkpt>
      <trkpt lat="42.96531" lon="0.01713">
        <ele>1707</ele>
        <time>2016-04-02T07:12:17Z</time>
      </trkpt>
      <trkpt lat="42.96531" lon="0.01713">
        <ele>1708</ele>
        <time>2016-04-02T07:12:18Z</time>
      </trkpt>
      <trkpt lat="42.96524" lon="0.01725">
        <ele>1711</ele>
        <time>2016-04-02T07:12:37Z</time>
      </trkpt>
      <trkpt lat="42.96524" lon="0.01725">
        <ele>1713</ele>
        <time>2016-04-02T07:12:38Z</time>
      </trkpt>
      <trkpt lat="42.96514" lon="0.01739">
        <ele>1715</ele>
        <time>2016-04-02T07:12:56Z</time>
      </trkpt>
      <trkpt lat="42.96513" lon="0.01739">
        <ele>1716</ele>
        <time>2016-04-02T07:12:57Z</time>
      </trkpt>
      <trkpt lat="42.96509" lon="0.01754">
        <ele>1719</ele>
        <time>2016-04-02T07:13:14Z</time>
      </trkpt>
      <trkpt lat="42.96508" lon="0.01756">
        <ele>1721</ele>
        <time>2016-04-02T07:13:15Z</time>
      </trkpt>
      <trkpt lat="42.96506" lon="0.01777">
        <ele>1723</ele>
        <time>2016-04-02T07:13:34Z</time>
      </trkpt>
      <trkpt lat="42.96505" lon="0.01778">
        <ele>1724</ele>
        <time>2016-04-02T07:13:35Z</time>
      </trkpt>
      <trkpt lat="42.965" lon="0.01803">
        <ele>1726</ele>
        <time>2016-04-02T07:13:53Z</time>
      </trkpt>
      <trkpt lat="42.96501" lon="0.01828">
        <ele>1726</ele>
        <time>2016-04-02T07:14:06Z</time>
      </trkpt>
      <trkpt lat="42.96497" lon="0.01854">
        <ele>1725</ele>
        <time>2016-04-02T07:14:33Z</time>
      </trkpt>
      <trkpt lat="42.96492" lon="0.01878">
        <ele>1725</ele>
        <time>2016-04-02T07:14:52Z</time>
      </trkpt>
      <trkpt lat="42.96489" lon="0.01902">
        <ele>1725</ele>
        <time>2016-04-02T07:15:10Z</time>
      </trkpt>
      <trkpt lat="42.96487" lon="0.01927">
        <ele>1725</ele>
        <time>2016-04-02T07:15:30Z</time>
      </trkpt>
      <trkpt lat="42.96484" lon="0.01953">
        <ele>1727</ele>
        <time>2016-04-02T07:15:51Z</time>
      </trkpt>
      <trkpt lat="42.96478" lon="0.01977">
        <ele>1730</ele>
        <time>2016-04-02T07:16:11Z</time>
      </trkpt>
      <trkpt lat="42.96476" lon="0.02001">
        <ele>1733</ele>
        <time>2016-04-02T07:16:31Z</time>
      </trkpt>
      <trkpt lat="42.96468" lon="0.02024">
        <ele>1736</ele>
        <time>2016-04-02T07:16:49Z</time>
      </trkpt>
      <trkpt lat="42.96459" lon="0.02046">
        <ele>1737</ele>
        <time>2016-04-02T07:17:05Z</time>
      </trkpt>
      <trkpt lat="42.96449" lon="0.02073">
        <ele>1737</ele>
        <time>2016-04-02T07:17:12Z</time>
      </trkpt>
      <trkpt lat="42.96441" lon="0.02095">
        <ele>1736</ele>
        <time>2016-04-02T07:17:25Z</time>
      </trkpt>
      <trkpt lat="42.96431" lon="0.02114">
        <ele>1736</ele>
        <time>2016-04-02T07:17:52Z</time>
      </trkpt>
      <trkpt lat="42.96431" lon="0.02114">
        <ele>1736</ele>
        <time>2016-04-02T07:17:53Z</time>
      </trkpt>
      <trkpt lat="42.96423" lon="0.02124">
        <ele>1736</ele>
        <time>2016-04-02T07:18:12Z</time>
      </trkpt>
      <trkpt lat="42.96423" lon="0.02124">
        <ele>1738</ele>
        <time>2016-04-02T07:18:13Z</time>
      </trkpt>
      <trkpt lat="42.96413" lon="0.02142">
        <ele>1741</ele>
        <time>2016-04-02T07:18:33Z</time>
      </trkpt>
      <trkpt lat="42.96413" lon="0.02142">
        <ele>1742</ele>
        <time>2016-04-02T07:18:36Z</time>
      </trkpt>
      <trkpt lat="42.96424" lon="0.02141">
        <ele>1744</ele>
        <time>2016-04-02T07:18:53Z</time>
      </trkpt>
      <trkpt lat="42.96425" lon="0.02141">
        <ele>1746</ele>
        <time>2016-04-02T07:18:54Z</time>
      </trkpt>
      <trkpt lat="42.96438" lon="0.02144">
        <ele>1748</ele>
        <time>2016-04-02T07:19:13Z</time>
      </trkpt>
      <trkpt lat="42.96438" lon="0.02144">
        <ele>1751</ele>
        <time>2016-04-02T07:19:14Z</time>
      </trkpt>
      <trkpt lat="42.96448" lon="0.02156">
        <ele>1754</ele>
        <time>2016-04-02T07:19:32Z</time>
      </trkpt>
      <trkpt lat="42.96449" lon="0.02157">
        <ele>1756</ele>
        <time>2016-04-02T07:19:33Z</time>
      </trkpt>
      <trkpt lat="42.96447" lon="0.02174">
        <ele>1759</ele>
        <time>2016-04-02T07:19:52Z</time>
      </trkpt>
      <trkpt lat="42.96446" lon="0.02174">
        <ele>1761</ele>
        <time>2016-04-02T07:19:53Z</time>
      </trkpt>
      <trkpt lat="42.96436" lon="0.02186">
        <ele>1764</ele>
        <time>2016-04-02T07:20:12Z</time>
      </trkpt>
      <trkpt lat="42.96435" lon="0.02188">
        <ele>1765</ele>
        <time>2016-04-02T07:20:14Z</time>
      </trkpt>
      <trkpt lat="42.96429" lon="0.02204">
        <ele>1766</ele>
        <time>2016-04-02T07:20:30Z</time>
      </trkpt>
      <trkpt lat="42.96428" lon="0.02205">
        <ele>1767</ele>
        <time>2016-04-02T07:20:31Z</time>
      </trkpt>
      <trkpt lat="42.96427" lon="0.02223">
        <ele>1769</ele>
        <time>2016-04-02T07:20:50Z</time>
      </trkpt>
      <trkpt lat="42.96427" lon="0.02223">
        <ele>1770</ele>
        <time>2016-04-02T07:20:51Z</time>
      </trkpt>
      <trkpt lat="42.96418" lon="0.02229">
        <ele>1771</ele>
        <time>2016-04-02T07:21:11Z</time>
      </trkpt>
      <trkpt lat="42.96417" lon="0.0223">
        <ele>1772</ele>
        <time>2016-04-02T07:21:12Z</time>
      </trkpt>
      <trkpt lat="42.96411" lon="0.02234">
        <ele>1775</ele>
        <time>2016-04-02T07:21:32Z</time>
      </trkpt>
      <trkpt lat="42.96411" lon="0.02234">
        <ele>1776</ele>
        <time>2016-04-02T07:21:32Z</time>
      </trkpt>
      <trkpt lat="42.9641" lon="0.02234">
        <ele>1778</ele>
        <time>2016-04-02T07:21:33Z</time>
      </trkpt>
      <trkpt lat="42.96399" lon="0.02235">
        <ele>1780</ele>
        <time>2016-04-02T07:21:52Z</time>
      </trkpt>
      <trkpt lat="42.96398" lon="0.02235">
        <ele>1782</ele>
        <time>2016-04-02T07:21:53Z</time>
      </trkpt>
      <trkpt lat="42.96393" lon="0.02244">
        <ele>1783</ele>
        <time>2016-04-02T07:22:12Z</time>
      </trkpt>
      <trkpt lat="42.96392" lon="0.02244">
        <ele>1785</ele>
        <time>2016-04-02T07:22:13Z</time>
      </trkpt>
      <trkpt lat="42.96384" lon="0.02246">
        <ele>1787</ele>
        <time>2016-04-02T07:22:33Z</time>
      </trkpt>
      <trkpt lat="42.96383" lon="0.02247">
        <ele>1788</ele>
        <time>2016-04-02T07:22:34Z</time>
      </trkpt>
      <trkpt lat="42.96373" lon="0.02255">
        <ele>1790</ele>
        <time>2016-04-02T07:22:53Z</time>
      </trkpt>
      <trkpt lat="42.96372" lon="0.02256">
        <ele>1790</ele>
        <time>2016-04-02T07:22:54Z</time>
      </trkpt>
      <trkpt lat="42.9636" lon="0.02263">
        <ele>1791</ele>
        <time>2016-04-02T07:23:13Z</time>
      </trkpt>
      <trkpt lat="42.9636" lon="0.02263">
        <ele>1792</ele>
        <time>2016-04-02T07:23:13Z</time>
      </trkpt>
      <trkpt lat="42.9636" lon="0.02264">
        <ele>1793</ele>
        <time>2016-04-02T07:23:14Z</time>
      </trkpt>
      <trkpt lat="42.96349" lon="0.02275">
        <ele>1794</ele>
        <time>2016-04-02T07:23:33Z</time>
      </trkpt>
      <trkpt lat="42.96348" lon="0.02277">
        <ele>1796</ele>
        <time>2016-04-02T07:23:35Z</time>
      </trkpt>
      <trkpt lat="42.96337" lon="0.02286">
        <ele>1797</ele>
        <time>2016-04-02T07:23:52Z</time>
      </trkpt>
      <trkpt lat="42.96337" lon="0.02286">
        <ele>1798</ele>
        <time>2016-04-02T07:23:53Z</time>
      </trkpt>
      <trkpt lat="42.96326" lon="0.023">
        <ele>1799</ele>
        <time>2016-04-02T07:24:13Z</time>
      </trkpt>
      <trkpt lat="42.96326" lon="0.023">
        <ele>1800</ele>
        <time>2016-04-02T07:24:14Z</time>
      </trkpt>
      <trkpt lat="42.96317" lon="0.02314">
        <ele>1802</ele>
        <time>2016-04-02T07:24:32Z</time>
      </trkpt>
      <trkpt lat="42.96316" lon="0.02314">
        <ele>1803</ele>
        <time>2016-04-02T07:24:33Z</time>
      </trkpt>
      <trkpt lat="42.96305" lon="0.02333">
        <ele>1805</ele>
        <time>2016-04-02T07:24:53Z</time>
      </trkpt>
      <trkpt lat="42.96304" lon="0.02334">
        <ele>1807</ele>
        <time>2016-04-02T07:24:54Z</time>
      </trkpt>
      <trkpt lat="42.96294" lon="0.02351">
        <ele>1807</ele>
        <time>2016-04-02T07:25:13Z</time>
      </trkpt>
      <trkpt lat="42.96293" lon="0.02352">
        <ele>1808</ele>
        <time>2016-04-02T07:25:14Z</time>
      </trkpt>
      <trkpt lat="42.96286" lon="0.02366">
        <ele>1810</ele>
        <time>2016-04-02T07:25:30Z</time>
      </trkpt>
      <trkpt lat="42.96286" lon="0.02367">
        <ele>1811</ele>
        <time>2016-04-02T07:25:31Z</time>
      </trkpt>
      <trkpt lat="42.96277" lon="0.02386">
        <ele>1812</ele>
        <time>2016-04-02T07:25:49Z</time>
      </trkpt>
      <trkpt lat="42.96276" lon="0.02387">
        <ele>1814</ele>
        <time>2016-04-02T07:25:50Z</time>
      </trkpt>
      <trkpt lat="42.96267" lon="0.02402">
        <ele>1816</ele>
        <time>2016-04-02T07:26:08Z</time>
      </trkpt>
      <trkpt lat="42.96267" lon="0.02402">
        <ele>1817</ele>
        <time>2016-04-02T07:26:09Z</time>
      </trkpt>
      <trkpt lat="42.96263" lon="0.02409">
        <ele>1818</ele>
        <time>2016-04-02T07:26:27Z</time>
      </trkpt>
      <trkpt lat="42.96263" lon="0.02409">
        <ele>1819</ele>
        <time>2016-04-02T07:26:28Z</time>
      </trkpt>
      <trkpt lat="42.96262" lon="0.02409">
        <ele>1820</ele>
        <time>2016-04-02T07:26:48Z</time>
      </trkpt>
      <trkpt lat="42.96262" lon="0.02409">
        <ele>1820</ele>
        <time>2016-04-02T07:26:49Z</time>
      </trkpt>
      <trkpt lat="42.96265" lon="0.0241">
        <ele>1821</ele>
        <time>2016-04-02T07:27:07Z</time>
      </trkpt>
      <trkpt lat="42.96265" lon="0.0241">
        <ele>1822</ele>
        <time>2016-04-02T07:27:08Z</time>
      </trkpt>
      <trkpt lat="42.96267" lon="0.0241">
        <ele>1823</ele>
        <time>2016-04-02T07:27:27Z</time>
      </trkpt>
      <trkpt lat="42.96267" lon="0.0241">
        <ele>1824</ele>
        <time>2016-04-02T07:27:28Z</time>
      </trkpt>
      <trkpt lat="42.96259" lon="0.02432">
        <ele>1825</ele>
        <time>2016-04-02T07:27:47Z</time>
      </trkpt>
      <trkpt lat="42.96259" lon="0.02433">
        <ele>1826</ele>
        <time>2016-04-02T07:27:48Z</time>
      </trkpt>
      <trkpt lat="42.96256" lon="0.02457">
        <ele>1826</ele>
        <time>2016-04-02T07:28:06Z</time>
      </trkpt>
      <trkpt lat="42.96256" lon="0.02459">
        <ele>1827</ele>
        <time>2016-04-02T07:28:07Z</time>
      </trkpt>
      <trkpt lat="42.96254" lon="0.02481">
        <ele>1828</ele>
        <time>2016-04-02T07:28:24Z</time>
      </trkpt>
      <trkpt lat="42.96254" lon="0.02482">
        <ele>1829</ele>
        <time>2016-04-02T07:28:25Z</time>
      </trkpt>
      <trkpt lat="42.96252" lon="0.02504">
        <ele>1830</ele>
        <time>2016-04-02T07:28:43Z</time>
      </trkpt>
      <trkpt lat="42.96252" lon="0.02508">
        <ele>1831</ele>
        <time>2016-04-02T07:28:45Z</time>
      </trkpt>
      <trkpt lat="42.96251" lon="0.02532">
        <ele>1832</ele>
        <time>2016-04-02T07:29:04Z</time>
      </trkpt>
      <trkpt lat="42.96251" lon="0.02556">
        <ele>1834</ele>
        <time>2016-04-02T07:29:24Z</time>
      </trkpt>
      <trkpt lat="42.96251" lon="0.02557">
        <ele>1835</ele>
        <time>2016-04-02T07:29:25Z</time>
      </trkpt>
      <trkpt lat="42.9625" lon="0.02577">
        <ele>1837</ele>
        <time>2016-04-02T07:29:44Z</time>
      </trkpt>
      <trkpt lat="42.96249" lon="0.0258">
        <ele>1839</ele>
        <time>2016-04-02T07:29:45Z</time>
      </trkpt>
      <trkpt lat="42.96249" lon="0.026">
        <ele>1842</ele>
        <time>2016-04-02T07:30:04Z</time>
      </trkpt>
      <trkpt lat="42.96249" lon="0.02601">
        <ele>1843</ele>
        <time>2016-04-02T07:30:05Z</time>
      </trkpt>
      <trkpt lat="42.96249" lon="0.0262">
        <ele>1846</ele>
        <time>2016-04-02T07:30:24Z</time>
      </trkpt>
      <trkpt lat="42.96249" lon="0.02621">
        <ele>1847</ele>
        <time>2016-04-02T07:30:25Z</time>
      </trkpt>
      <trkpt lat="42.96245" lon="0.02645">
        <ele>1850</ele>
        <time>2016-04-02T07:30:44Z</time>
      </trkpt>
      <trkpt lat="42.96244" lon="0.02646">
        <ele>1851</ele>
        <time>2016-04-02T07:30:45Z</time>
      </trkpt>
      <trkpt lat="42.96234" lon="0.02666">
        <ele>1853</ele>
        <time>2016-04-02T07:31:04Z</time>
      </trkpt>
      <trkpt lat="42.96233" lon="0.02667">
        <ele>1854</ele>
        <time>2016-04-02T07:31:05Z</time>
      </trkpt>
      <trkpt lat="42.96228" lon="0.0269">
        <ele>1855</ele>
        <time>2016-04-02T07:31:25Z</time>
      </trkpt>
      <trkpt lat="42.96228" lon="0.02691">
        <ele>1856</ele>
        <time>2016-04-02T07:31:26Z</time>
      </trkpt>
      <trkpt lat="42.96222" lon="0.02713">
        <ele>1858</ele>
        <time>2016-04-02T07:31:44Z</time>
      </trkpt>
      <trkpt lat="42.96221" lon="0.02714">
        <ele>1858</ele>
        <time>2016-04-02T07:31:45Z</time>
      </trkpt>
      <trkpt lat="42.96209" lon="0.02732">
        <ele>1860</ele>
        <time>2016-04-02T07:32:04Z</time>
      </trkpt>
      <trkpt lat="42.96208" lon="0.02733">
        <ele>1861</ele>
        <time>2016-04-02T07:32:05Z</time>
      </trkpt>
      <trkpt lat="42.96201" lon="0.02741">
        <ele>1862</ele>
        <time>2016-04-02T07:32:24Z</time>
      </trkpt>
      <trkpt lat="42.96201" lon="0.02741">
        <ele>1862</ele>
        <time>2016-04-02T07:32:25Z</time>
      </trkpt>
      <trkpt lat="42.96189" lon="0.02758">
        <ele>1864</ele>
        <time>2016-04-02T07:32:44Z</time>
      </trkpt>
      <trkpt lat="42.96187" lon="0.0276">
        <ele>1865</ele>
        <time>2016-04-02T07:32:46Z</time>
      </trkpt>
      <trkpt lat="42.96177" lon="0.02773">
        <ele>1866</ele>
        <time>2016-04-02T07:33:03Z</time>
      </trkpt>
      <trkpt lat="42.96174" lon="0.02776">
        <ele>1867</ele>
        <time>2016-04-02T07:33:06Z</time>
      </trkpt>
      <trkpt lat="42.96162" lon="0.0279">
        <ele>1869</ele>
        <time>2016-04-02T07:33:22Z</time>
      </trkpt>
      <trkpt lat="42.96162" lon="0.02791">
        <ele>1870</ele>
        <time>2016-04-02T07:33:23Z</time>
      </trkpt>
      <trkpt lat="42.96149" lon="0.02804">
        <ele>1871</ele>
        <time>2016-04-02T07:33:42Z</time>
      </trkpt>
      <trkpt lat="42.96148" lon="0.02804">
        <ele>1872</ele>
        <time>2016-04-02T07:33:43Z</time>
      </trkpt>
      <trkpt lat="42.96133" lon="0.02819">
        <ele>1873</ele>
        <time>2016-04-02T07:34:02Z</time>
      </trkpt>
      <trkpt lat="42.96118" lon="0.0283">
        <ele>1874</ele>
        <time>2016-04-02T07:34:21Z</time>
      </trkpt>
      <trkpt lat="42.96117" lon="0.02831">
        <ele>1875</ele>
        <time>2016-04-02T07:34:22Z</time>
      </trkpt>
      <trkpt lat="42.96108" lon="0.02849">
        <ele>1877</ele>
        <time>2016-04-02T07:34:41Z</time>
      </trkpt>
      <trkpt lat="42.96108" lon="0.0285">
        <ele>1878</ele>
        <time>2016-04-02T07:34:42Z</time>
      </trkpt>
      <trkpt lat="42.96101" lon="0.02869">
        <ele>1880</ele>
        <time>2016-04-02T07:35:00Z</time>
      </trkpt>
      <trkpt lat="42.96101" lon="0.0287">
        <ele>1882</ele>
        <time>2016-04-02T07:35:01Z</time>
      </trkpt>
      <trkpt lat="42.96096" lon="0.02894">
        <ele>1883</ele>
        <time>2016-04-02T07:35:19Z</time>
      </trkpt>
      <trkpt lat="42.96096" lon="0.02897">
        <ele>1884</ele>
        <time>2016-04-02T07:35:21Z</time>
      </trkpt>
      <trkpt lat="42.96089" lon="0.02921">
        <ele>1885</ele>
        <time>2016-04-02T07:35:39Z</time>
      </trkpt>
      <trkpt lat="42.96086" lon="0.02945">
        <ele>1886</ele>
        <time>2016-04-02T07:35:56Z</time>
      </trkpt>
      <trkpt lat="42.96084" lon="0.0297">
        <ele>1886</ele>
        <time>2016-04-02T07:36:11Z</time>
      </trkpt>
      <trkpt lat="42.96078" lon="0.02994">
        <ele>1887</ele>
        <time>2016-04-02T07:36:30Z</time>
      </trkpt>
      <trkpt lat="42.9607" lon="0.03017">
        <ele>1887</ele>
        <time>2016-04-02T07:36:48Z</time>
      </trkpt>
      <trkpt lat="42.96061" lon="0.03038">
        <ele>1889</ele>
        <time>2016-04-02T07:37:08Z</time>
      </trkpt>
      <trkpt lat="42.96053" lon="0.03061">
        <ele>1889</ele>
        <time>2016-04-02T07:37:27Z</time>
      </trkpt>
      <trkpt lat="42.96041" lon="0.0308">
        <ele>1891</ele>
        <time>2016-04-02T07:37:47Z</time>
      </trkpt>
      <trkpt lat="42.96029" lon="0.03098">
        <ele>1893</ele>
        <time>2016-04-02T07:38:06Z</time>
      </trkpt>
      <trkpt lat="42.96017" lon="0.03118">
        <ele>1895</ele>
        <time>2016-04-02T07:38:26Z</time>
      </trkpt>
      <trkpt lat="42.96008" lon="0.0314">
        <ele>1897</ele>
        <time>2016-04-02T07:38:47Z</time>
      </trkpt>
      <trkpt lat="42.96002" lon="0.03163">
        <ele>1898</ele>
        <time>2016-04-02T07:39:07Z</time>
      </trkpt>
      <trkpt lat="42.95999" lon="0.03187">
        <ele>1900</ele>
        <time>2016-04-02T07:39:28Z</time>
      </trkpt>
      <trkpt lat="42.9599" lon="0.03209">
        <ele>1902</ele>
        <time>2016-04-02T07:39:49Z</time>
      </trkpt>
      <trkpt lat="42.95979" lon="0.03229">
        <ele>1905</ele>
        <time>2016-04-02T07:40:13Z</time>
      </trkpt>
      <trkpt lat="42.95972" lon="0.03244">
        <ele>1908</ele>
        <time>2016-04-02T07:40:34Z</time>
      </trkpt>
      <trkpt lat="42.95972" lon="0.03245">
        <ele>1911</ele>
        <time>2016-04-02T07:40:35Z</time>
      </trkpt>
      <trkpt lat="42.95964" lon="0.03259">
        <ele>1915</ele>
        <time>2016-04-02T07:40:53Z</time>
      </trkpt>
      <trkpt lat="42.95963" lon="0.0326">
        <ele>1918</ele>
        <time>2016-04-02T07:40:54Z</time>
      </trkpt>
      <trkpt lat="42.95955" lon="0.03276">
        <ele>1920</ele>
        <time>2016-04-02T07:41:12Z</time>
      </trkpt>
      <trkpt lat="42.95954" lon="0.03277">
        <ele>1923</ele>
        <time>2016-04-02T07:41:13Z</time>
      </trkpt>
      <trkpt lat="42.95944" lon="0.03295">
        <ele>1925</ele>
        <time>2016-04-02T07:41:32Z</time>
      </trkpt>
      <trkpt lat="42.95943" lon="0.03296">
        <ele>1926</ele>
        <time>2016-04-02T07:41:33Z</time>
      </trkpt>
      <trkpt lat="42.95934" lon="0.03311">
        <ele>1929</ele>
        <time>2016-04-02T07:41:51Z</time>
      </trkpt>
      <trkpt lat="42.95934" lon="0.03312">
        <ele>1930</ele>
        <time>2016-04-02T07:41:52Z</time>
      </trkpt>
      <trkpt lat="42.95926" lon="0.03324">
        <ele>1931</ele>
        <time>2016-04-02T07:42:12Z</time>
      </trkpt>
      <trkpt lat="42.95926" lon="0.03324">
        <ele>1932</ele>
        <time>2016-04-02T07:42:12Z</time>
      </trkpt>
      <trkpt lat="42.95926" lon="0.03323">
        <ele>1933</ele>
        <time>2016-04-02T07:42:13Z</time>
      </trkpt>
      <trkpt lat="42.95917" lon="0.03338">
        <ele>1933</ele>
        <time>2016-04-02T07:42:31Z</time>
      </trkpt>
      <trkpt lat="42.95917" lon="0.03339">
        <ele>1934</ele>
        <time>2016-04-02T07:42:32Z</time>
      </trkpt>
      <trkpt lat="42.95907" lon="0.03353">
        <ele>1935</ele>
        <time>2016-04-02T07:42:50Z</time>
      </trkpt>
      <trkpt lat="42.95907" lon="0.03353">
        <ele>1937</ele>
        <time>2016-04-02T07:42:51Z</time>
      </trkpt>
      <trkpt lat="42.95895" lon="0.03367">
        <ele>1938</ele>
        <time>2016-04-02T07:43:10Z</time>
      </trkpt>
      <trkpt lat="42.95894" lon="0.03367">
        <ele>1938</ele>
        <time>2016-04-02T07:43:11Z</time>
      </trkpt>
      <trkpt lat="42.95883" lon="0.03376">
        <ele>1937</ele>
        <time>2016-04-02T07:43:29Z</time>
      </trkpt>
      <trkpt lat="42.95882" lon="0.03376">
        <ele>1937</ele>
        <time>2016-04-02T07:43:30Z</time>
      </trkpt>
      <trkpt lat="42.95871" lon="0.03384">
        <ele>1936</ele>
        <time>2016-04-02T07:43:49Z</time>
      </trkpt>
      <trkpt lat="42.9587" lon="0.03383">
        <ele>1936</ele>
        <time>2016-04-02T07:43:50Z</time>
      </trkpt>
      <trkpt lat="42.95858" lon="0.03389">
        <ele>1936</ele>
        <time>2016-04-02T07:44:08Z</time>
      </trkpt>
      <trkpt lat="42.95858" lon="0.03389">
        <ele>1937</ele>
        <time>2016-04-02T07:44:09Z</time>
      </trkpt>
      <trkpt lat="42.95849" lon="0.03393">
        <ele>1938</ele>
        <time>2016-04-02T07:44:28Z</time>
      </trkpt>
      <trkpt lat="42.95848" lon="0.03393">
        <ele>1939</ele>
        <time>2016-04-02T07:44:29Z</time>
      </trkpt>
      <trkpt lat="42.9584" lon="0.03393">
        <ele>1941</ele>
        <time>2016-04-02T07:44:49Z</time>
      </trkpt>
      <trkpt lat="42.95839" lon="0.03393">
        <ele>1942</ele>
        <time>2016-04-02T07:44:50Z</time>
      </trkpt>
      <trkpt lat="42.95833" lon="0.03397">
        <ele>1944</ele>
        <time>2016-04-02T07:45:09Z</time>
      </trkpt>
      <trkpt lat="42.95832" lon="0.03398">
        <ele>1945</ele>
        <time>2016-04-02T07:45:10Z</time>
      </trkpt>
      <trkpt lat="42.95818" lon="0.03407">
        <ele>1947</ele>
        <time>2016-04-02T07:45:30Z</time>
      </trkpt>
      <trkpt lat="42.95818" lon="0.03407">
        <ele>1948</ele>
        <time>2016-04-02T07:45:31Z</time>
      </trkpt>
      <trkpt lat="42.95805" lon="0.03421">
        <ele>1950</ele>
        <time>2016-04-02T07:45:51Z</time>
      </trkpt>
      <trkpt lat="42.95805" lon="0.03422">
        <ele>1951</ele>
        <time>2016-04-02T07:45:52Z</time>
      </trkpt>
      <trkpt lat="42.95803" lon="0.03421">
        <ele>1951</ele>
        <time>2016-04-02T07:46:11Z</time>
      </trkpt>
      <trkpt lat="42.95803" lon="0.03421">
        <ele>1952</ele>
        <time>2016-04-02T07:46:12Z</time>
      </trkpt>
      <trkpt lat="42.95798" lon="0.03421">
        <ele>1953</ele>
        <time>2016-04-02T07:46:32Z</time>
      </trkpt>
      <trkpt lat="42.95796" lon="0.03422">
        <ele>1953</ele>
        <time>2016-04-02T07:46:34Z</time>
      </trkpt>
      <trkpt lat="42.95778" lon="0.03422">
        <ele>1954</ele>
        <time>2016-04-02T07:46:52Z</time>
      </trkpt>
      <trkpt lat="42.95777" lon="0.03422">
        <ele>1955</ele>
        <time>2016-04-02T07:46:53Z</time>
      </trkpt>
      <trkpt lat="42.95759" lon="0.03426">
        <ele>1956</ele>
        <time>2016-04-02T07:47:12Z</time>
      </trkpt>
      <trkpt lat="42.95742" lon="0.03429">
        <ele>1957</ele>
        <time>2016-04-02T07:47:31Z</time>
      </trkpt>
      <trkpt lat="42.95741" lon="0.03429">
        <ele>1958</ele>
        <time>2016-04-02T07:47:32Z</time>
      </trkpt>
      <trkpt lat="42.95725" lon="0.03431">
        <ele>1959</ele>
        <time>2016-04-02T07:47:51Z</time>
      </trkpt>
      <trkpt lat="42.95725" lon="0.03432">
        <ele>1960</ele>
        <time>2016-04-02T07:47:52Z</time>
      </trkpt>
      <trkpt lat="42.95716" lon="0.03435">
        <ele>1962</ele>
        <time>2016-04-02T07:48:11Z</time>
      </trkpt>
      <trkpt lat="42.95716" lon="0.03435">
        <ele>1962</ele>
        <time>2016-04-02T07:48:12Z</time>
      </trkpt>
      <trkpt lat="42.95716" lon="0.03435">
        <ele>1964</ele>
        <time>2016-04-02T07:48:31Z</time>
      </trkpt>
      <trkpt lat="42.95716" lon="0.03435">
        <ele>1964</ele>
        <time>2016-04-02T07:48:32Z</time>
      </trkpt>
      <trkpt lat="42.95717" lon="0.03436">
        <ele>1965</ele>
        <time>2016-04-02T07:48:53Z</time>
      </trkpt>
      <trkpt lat="42.95717" lon="0.03436">
        <ele>1965</ele>
        <time>2016-04-02T07:48:55Z</time>
      </trkpt>
      <trkpt lat="42.95717" lon="0.03437">
        <ele>1966</ele>
        <time>2016-04-02T07:49:12Z</time>
      </trkpt>
      <trkpt lat="42.95717" lon="0.03436">
        <ele>1966</ele>
        <time>2016-04-02T07:49:13Z</time>
      </trkpt>
      <trkpt lat="42.95716" lon="0.03436">
        <ele>1966</ele>
        <time>2016-04-02T07:49:32Z</time>
      </trkpt>
      <trkpt lat="42.95716" lon="0.03436">
        <ele>1966</ele>
        <time>2016-04-02T07:49:34Z</time>
      </trkpt>
      <trkpt lat="42.95717" lon="0.03436">
        <ele>1966</ele>
        <time>2016-04-02T07:49:53Z</time>
      </trkpt>
      <trkpt lat="42.95717" lon="0.03436">
        <ele>1966</ele>
        <time>2016-04-02T07:49:54Z</time>
      </trkpt>
      <trkpt lat="42.95716" lon="0.03436">
        <ele>1965</ele>
        <time>2016-04-02T07:50:13Z</time>
      </trkpt>
      <trkpt lat="42.95716" lon="0.03436">
        <ele>1965</ele>
        <time>2016-04-02T07:50:15Z</time>
      </trkpt>
      <trkpt lat="42.95715" lon="0.03436">
        <ele>1965</ele>
        <time>2016-04-02T07:50:32Z</time>
      </trkpt>
      <trkpt lat="42.95715" lon="0.03436">
        <ele>1965</ele>
        <time>2016-04-02T07:50:33Z</time>
      </trkpt>
      <trkpt lat="42.95715" lon="0.03436">
        <ele>1964</ele>
        <time>2016-04-02T07:50:52Z</time>
      </trkpt>
      <trkpt lat="42.95715" lon="0.03436">
        <ele>1964</ele>
        <time>2016-04-02T07:50:53Z</time>
      </trkpt>
      <trkpt lat="42.95714" lon="0.03436">
        <ele>1964</ele>
        <time>2016-04-02T07:51:12Z</time>
      </trkpt>
      <trkpt lat="42.95715" lon="0.03436">
        <ele>1964</ele>
        <time>2016-04-02T07:51:13Z</time>
      </trkpt>
      <trkpt lat="42.95715" lon="0.03436">
        <ele>1964</ele>
        <time>2016-04-02T07:51:32Z</time>
      </trkpt>
      <trkpt lat="42.95715" lon="0.03436">
        <ele>1964</ele>
        <time>2016-04-02T07:51:33Z</time>
      </trkpt>
      <trkpt lat="42.95715" lon="0.03436">
        <ele>1964</ele>
        <time>2016-04-02T07:51:53Z</time>
      </trkpt>
      <trkpt lat="42.95715" lon="0.03436">
        <ele>1964</ele>
        <time>2016-04-02T07:51:54Z</time>
      </trkpt>
      <trkpt lat="42.95716" lon="0.03435">
        <ele>1965</ele>
        <time>2016-04-02T07:52:13Z</time>
      </trkpt>
      <trkpt lat="42.95716" lon="0.03435">
        <ele>1965</ele>
        <time>2016-04-02T07:52:14Z</time>
      </trkpt>
      <trkpt lat="42.95716" lon="0.03434">
        <ele>1964</ele>
        <time>2016-04-02T07:52:33Z</time>
      </trkpt>
      <trkpt lat="42.95716" lon="0.03434">
        <ele>1964</ele>
        <time>2016-04-02T07:52:34Z</time>
      </trkpt>
      <trkpt lat="42.95716" lon="0.03432">
        <ele>1964</ele>
        <time>2016-04-02T07:52:55Z</time>
      </trkpt>
      <trkpt lat="42.95716" lon="0.03432">
        <ele>1964</ele>
        <time>2016-04-02T07:52:55Z</time>
      </trkpt>
      <trkpt lat="42.95716" lon="0.03432">
        <ele>1963</ele>
        <time>2016-04-02T07:52:57Z</time>
      </trkpt>
      <trkpt lat="42.95717" lon="0.03432">
        <ele>1963</ele>
        <time>2016-04-02T07:53:14Z</time>
      </trkpt>
      <trkpt lat="42.95717" lon="0.03433">
        <ele>1963</ele>
        <time>2016-04-02T07:53:15Z</time>
      </trkpt>
      <trkpt lat="42.95717" lon="0.03437">
        <ele>1963</ele>
        <time>2016-04-02T07:53:32Z</time>
      </trkpt>
      <trkpt lat="42.95717" lon="0.03437">
        <ele>1963</ele>
        <time>2016-04-02T07:53:33Z</time>
      </trkpt>
      <trkpt lat="42.95717" lon="0.03438">
        <ele>1962</ele>
        <time>2016-04-02T07:53:53Z</time>
      </trkpt>
      <trkpt lat="42.95717" lon="0.03438">
        <ele>1962</ele>
        <time>2016-04-02T07:53:54Z</time>
      </trkpt>
      <trkpt lat="42.95717" lon="0.03439">
        <ele>1961</ele>
        <time>2016-04-02T07:54:13Z</time>
      </trkpt>
      <trkpt lat="42.95717" lon="0.03439">
        <ele>1961</ele>
        <time>2016-04-02T07:54:14Z</time>
      </trkpt>
      <trkpt lat="42.95717" lon="0.03436">
        <ele>1962</ele>
        <time>2016-04-02T07:54:34Z</time>
      </trkpt>
      <trkpt lat="42.95717" lon="0.03436">
        <ele>1962</ele>
        <time>2016-04-02T07:54:35Z</time>
      </trkpt>
      <trkpt lat="42.95718" lon="0.03438">
        <ele>1963</ele>
        <time>2016-04-02T07:54:54Z</time>
      </trkpt>
      <trkpt lat="42.95718" lon="0.03438">
        <ele>1964</ele>
        <time>2016-04-02T07:54:55Z</time>
      </trkpt>
      <trkpt lat="42.95718" lon="0.03437">
        <ele>1964</ele>
        <time>2016-04-02T07:55:15Z</time>
      </trkpt>
      <trkpt lat="42.95718" lon="0.03437">
        <ele>1964</ele>
        <time>2016-04-02T07:55:16Z</time>
      </trkpt>
      <trkpt lat="42.95718" lon="0.03438">
        <ele>1964</ele>
        <time>2016-04-02T07:55:36Z</time>
      </trkpt>
      <trkpt lat="42.95718" lon="0.03438">
        <ele>1964</ele>
        <time>2016-04-02T07:55:37Z</time>
      </trkpt>
      <trkpt lat="42.95717" lon="0.03437">
        <ele>1964</ele>
        <time>2016-04-02T07:55:56Z</time>
      </trkpt>
      <trkpt lat="42.95717" lon="0.03437">
        <ele>1965</ele>
        <time>2016-04-02T07:55:57Z</time>
      </trkpt>
      <trkpt lat="42.95717" lon="0.03436">
        <ele>1965</ele>
        <time>2016-04-02T07:56:16Z</time>
      </trkpt>
      <trkpt lat="42.95717" lon="0.03436">
        <ele>1965</ele>
        <time>2016-04-02T07:56:17Z</time>
      </trkpt>
      <trkpt lat="42.95717" lon="0.03435">
        <ele>1965</ele>
        <time>2016-04-02T07:56:36Z</time>
      </trkpt>
      <trkpt lat="42.95717" lon="0.03435">
        <ele>1965</ele>
        <time>2016-04-02T07:56:37Z</time>
      </trkpt>
      <trkpt lat="42.95718" lon="0.03434">
        <ele>1964</ele>
        <time>2016-04-02T07:56:57Z</time>
      </trkpt>
      <trkpt lat="42.95718" lon="0.03434">
        <ele>1964</ele>
        <time>2016-04-02T07:56:58Z</time>
      </trkpt>
      <trkpt lat="42.95718" lon="0.03434">
        <ele>1963</ele>
        <time>2016-04-02T07:57:17Z</time>
      </trkpt>
      <trkpt lat="42.95718" lon="0.03434">
        <ele>1963</ele>
        <time>2016-04-02T07:57:18Z</time>
      </trkpt>
      <trkpt lat="42.95717" lon="0.03435">
        <ele>1963</ele>
        <time>2016-04-02T07:57:38Z</time>
      </trkpt>
      <trkpt lat="42.95717" lon="0.03435">
        <ele>1963</ele>
        <time>2016-04-02T07:57:39Z</time>
      </trkpt>
      <trkpt lat="42.95717" lon="0.03435">
        <ele>1963</ele>
        <time>2016-04-02T07:57:59Z</time>
      </trkpt>
      <trkpt lat="42.95717" lon="0.03435">
        <ele>1963</ele>
        <time>2016-04-02T07:58:00Z</time>
      </trkpt>
      <trkpt lat="42.95713" lon="0.03435">
        <ele>1963</ele>
        <time>2016-04-02T07:58:18Z</time>
      </trkpt>
      <trkpt lat="42.95713" lon="0.03435">
        <ele>1963</ele>
        <time>2016-04-02T07:58:19Z</time>
      </trkpt>
      <trkpt lat="42.95713" lon="0.03436">
        <ele>1963</ele>
        <time>2016-04-02T07:58:39Z</time>
      </trkpt>
      <trkpt lat="42.95713" lon="0.03435">
        <ele>1963</ele>
        <time>2016-04-02T07:58:40Z</time>
      </trkpt>
      <trkpt lat="42.95713" lon="0.03436">
        <ele>1963</ele>
        <time>2016-04-02T07:58:59Z</time>
      </trkpt>
      <trkpt lat="42.95713" lon="0.03436">
        <ele>1963</ele>
        <time>2016-04-02T07:59:00Z</time>
      </trkpt>
      <trkpt lat="42.95713" lon="0.03436">
        <ele>1963</ele>
        <time>2016-04-02T07:59:18Z</time>
      </trkpt>
      <trkpt lat="42.95713" lon="0.03436">
        <ele>1963</ele>
        <time>2016-04-02T07:59:19Z</time>
      </trkpt>
      <trkpt lat="42.95698" lon="0.03438">
        <ele>1961</ele>
        <time>2016-04-02T07:59:38Z</time>
      </trkpt>
      <trkpt lat="42.95696" lon="0.03439">
        <ele>1960</ele>
        <time>2016-04-02T07:59:39Z</time>
      </trkpt>
      <trkpt lat="42.95677" lon="0.03435">
        <ele>1957</ele>
        <time>2016-04-02T07:59:46Z</time>
      </trkpt>
      <trkpt lat="42.95657" lon="0.03428">
        <ele>1953</ele>
        <time>2016-04-02T07:59:53Z</time>
      </trkpt>
      <trkpt lat="42.95638" lon="0.0343">
        <ele>1948</ele>
        <time>2016-04-02T07:59:59Z</time>
      </trkpt>
      <trkpt lat="42.95617" lon="0.03438">
        <ele>1940</ele>
        <time>2016-04-02T08:00:06Z</time>
      </trkpt>
      <trkpt lat="42.95598" lon="0.03453">
        <ele>1931</ele>
        <time>2016-04-02T08:00:11Z</time>
      </trkpt>
      <trkpt lat="42.95597" lon="0.03479">
        <ele>1923</ele>
        <time>2016-04-02T08:00:14Z</time>
      </trkpt>
      <trkpt lat="42.95575" lon="0.03487">
        <ele>1914</ele>
        <time>2016-04-02T08:00:17Z</time>
      </trkpt>
      <trkpt lat="42.95561" lon="0.03503">
        <ele>1906</ele>
        <time>2016-04-02T08:00:20Z</time>
      </trkpt>
      <trkpt lat="42.95542" lon="0.0352">
        <ele>1898</ele>
        <time>2016-04-02T08:00:23Z</time>
      </trkpt>
      <trkpt lat="42.95525" lon="0.03537">
        <ele>1891</ele>
        <time>2016-04-02T08:00:26Z</time>
      </trkpt>
      <trkpt lat="42.95506" lon="0.03564">
        <ele>1883</ele>
        <time>2016-04-02T08:00:29Z</time>
      </trkpt>
      <trkpt lat="42.95491" lon="0.03582">
        <ele>1875</ele>
        <time>2016-04-02T08:00:31Z</time>
      </trkpt>
      <trkpt lat="42.95473" lon="0.03599">
        <ele>1868</ele>
        <time>2016-04-02T08:00:34Z</time>
      </trkpt>
      <trkpt lat="42.95464" lon="0.03603">
        <ele>1862</ele>
        <time>2016-04-02T08:00:58Z</time>
      </trkpt>
      <trkpt lat="42.95464" lon="0.03603">
        <ele>1857</ele>
        <time>2016-04-02T08:00:59Z</time>
      </trkpt>
      <trkpt lat="42.95464" lon="0.03604">
        <ele>1854</ele>
        <time>2016-04-02T08:01:18Z</time>
      </trkpt>
      <trkpt lat="42.95464" lon="0.03604">
        <ele>1851</ele>
        <time>2016-04-02T08:01:19Z</time>
      </trkpt>
      <trkpt lat="42.95464" lon="0.03602">
        <ele>1850</ele>
        <time>2016-04-02T08:01:37Z</time>
      </trkpt>
      <trkpt lat="42.95464" lon="0.03602">
        <ele>1849</ele>
        <time>2016-04-02T08:01:38Z</time>
      </trkpt>
      <trkpt lat="42.95448" lon="0.03616">
        <ele>1848</ele>
        <time>2016-04-02T08:01:56Z</time>
      </trkpt>
      <trkpt lat="42.95431" lon="0.03628">
        <ele>1845</ele>
        <time>2016-04-02T08:02:00Z</time>
      </trkpt>
      <trkpt lat="42.95412" lon="0.03641">
        <ele>1842</ele>
        <time>2016-04-02T08:02:12Z</time>
      </trkpt>
      <trkpt lat="42.95396" lon="0.03654">
        <ele>1839</ele>
        <time>2016-04-02T08:02:16Z</time>
      </trkpt>
      <trkpt lat="42.95378" lon="0.03662">
        <ele>1834</ele>
        <time>2016-04-02T08:02:20Z</time>
      </trkpt>
      <trkpt lat="42.95357" lon="0.03674">
        <ele>1830</ele>
        <time>2016-04-02T08:02:24Z</time>
      </trkpt>
      <trkpt lat="42.95343" lon="0.03691">
        <ele>1827</ele>
        <time>2016-04-02T08:02:28Z</time>
      </trkpt>
      <trkpt lat="42.95329" lon="0.03708">
        <ele>1824</ele>
        <time>2016-04-02T08:02:33Z</time>
      </trkpt>
      <trkpt lat="42.95326" lon="0.03733">
        <ele>1819</ele>
        <time>2016-04-02T08:02:47Z</time>
      </trkpt>
      <trkpt lat="42.95323" lon="0.03763">
        <ele>1812</ele>
        <time>2016-04-02T08:02:59Z</time>
      </trkpt>
      <trkpt lat="42.95309" lon="0.03784">
        <ele>1804</ele>
        <time>2016-04-02T08:03:04Z</time>
      </trkpt>
      <trkpt lat="42.95296" lon="0.03806">
        <ele>1794</ele>
        <time>2016-04-02T08:03:08Z</time>
      </trkpt>
      <trkpt lat="42.95283" lon="0.03829">
        <ele>1788</ele>
        <time>2016-04-02T08:03:11Z</time>
      </trkpt>
      <trkpt lat="42.95269" lon="0.03853">
        <ele>1782</ele>
        <time>2016-04-02T08:03:14Z</time>
      </trkpt>
      <trkpt lat="42.95256" lon="0.03881">
        <ele>1784</ele>
        <time>2016-04-02T08:03:17Z</time>
      </trkpt>
      <trkpt lat="42.95247" lon="0.03909">
        <ele>1786</ele>
        <time>2016-04-02T08:03:20Z</time>
      </trkpt>
      <trkpt lat="42.95246" lon="0.03942">
        <ele>1783</ele>
        <time>2016-04-02T08:03:23Z</time>
      </trkpt>
      <trkpt lat="42.95251" lon="0.03968">
        <ele>1775</ele>
        <time>2016-04-02T08:03:25Z</time>
      </trkpt>
      <trkpt lat="42.95252" lon="0.04">
        <ele>1770</ele>
        <time>2016-04-02T08:03:28Z</time>
      </trkpt>
      <trkpt lat="42.95231" lon="0.04066">
        <ele>1737</ele>
        <time>2016-04-02T08:05:06Z</time>
      </trkpt>
      <trkpt lat="42.95231" lon="0.04093">
        <ele>1733</ele>
        <time>2016-04-02T08:05:09Z</time>
      </trkpt>
      <trkpt lat="42.95224" lon="0.04121">
        <ele>1728</ele>
        <time>2016-04-02T08:05:20Z</time>
      </trkpt>
      <trkpt lat="42.95221" lon="0.04147">
        <ele>1723</ele>
        <time>2016-04-02T08:05:23Z</time>
      </trkpt>
      <trkpt lat="42.95203" lon="0.04163">
        <ele>1717</ele>
        <time>2016-04-02T08:05:28Z</time>
      </trkpt>
      <trkpt lat="42.95187" lon="0.04179">
        <ele>1712</ele>
        <time>2016-04-02T08:05:36Z</time>
      </trkpt>
      <trkpt lat="42.95178" lon="0.04201">
        <ele>1707</ele>
        <time>2016-04-02T08:05:40Z</time>
      </trkpt>
      <trkpt lat="42.95159" lon="0.04215">
        <ele>1704</ele>
        <time>2016-04-02T08:05:43Z</time>
      </trkpt>
      <trkpt lat="42.95136" lon="0.04229">
        <ele>1700</ele>
        <time>2016-04-02T08:05:46Z</time>
      </trkpt>
      <trkpt lat="42.95119" lon="0.0424">
        <ele>1697</ele>
        <time>2016-04-02T08:05:52Z</time>
      </trkpt>
      <trkpt lat="42.95104" lon="0.04255">
        <ele>1694</ele>
        <time>2016-04-02T08:06:00Z</time>
      </trkpt>
      <trkpt lat="42.95091" lon="0.04266">
        <ele>1691</ele>
        <time>2016-04-02T08:06:21Z</time>
      </trkpt>
      <trkpt lat="42.95089" lon="0.04268">
        <ele>1688</ele>
        <time>2016-04-02T08:06:22Z</time>
      </trkpt>
      <trkpt lat="42.95075" lon="0.04284">
        <ele>1687</ele>
        <time>2016-04-02T08:06:41Z</time>
      </trkpt>
      <trkpt lat="42.95058" lon="0.04292">
        <ele>1686</ele>
        <time>2016-04-02T08:07:02Z</time>
      </trkpt>
      <trkpt lat="42.95058" lon="0.04292">
        <ele>1686</ele>
        <time>2016-04-02T08:07:03Z</time>
      </trkpt>
      <trkpt lat="42.95043" lon="0.04298">
        <ele>1686</ele>
        <time>2016-04-02T08:07:22Z</time>
      </trkpt>
      <trkpt lat="42.95041" lon="0.04298">
        <ele>1687</ele>
        <time>2016-04-02T08:07:23Z</time>
      </trkpt>
      <trkpt lat="42.95025" lon="0.04312">
        <ele>1686</ele>
        <time>2016-04-02T08:07:42Z</time>
      </trkpt>
      <trkpt lat="42.95007" lon="0.04322">
        <ele>1686</ele>
        <time>2016-04-02T08:08:00Z</time>
      </trkpt>
      <trkpt lat="42.94989" lon="0.0433">
        <ele>1686</ele>
        <time>2016-04-02T08:08:19Z</time>
      </trkpt>
      <trkpt lat="42.94968" lon="0.0433">
        <ele>1686</ele>
        <time>2016-04-02T08:08:30Z</time>
      </trkpt>
      <trkpt lat="42.9495" lon="0.04336">
        <ele>1686</ele>
        <time>2016-04-02T08:08:40Z</time>
      </trkpt>
      <trkpt lat="42.94939" lon="0.04359">
        <ele>1686</ele>
        <time>2016-04-02T08:08:48Z</time>
      </trkpt>
      <trkpt lat="42.94932" lon="0.04383">
        <ele>1687</ele>
        <time>2016-04-02T08:08:54Z</time>
      </trkpt>
      <trkpt lat="42.94934" lon="0.0439">
        <ele>1689</ele>
        <time>2016-04-02T08:09:22Z</time>
      </trkpt>
      <trkpt lat="42.94934" lon="0.0439">
        <ele>1692</ele>
        <time>2016-04-02T08:09:23Z</time>
      </trkpt>
      <trkpt lat="42.94934" lon="0.0439">
        <ele>1693</ele>
        <time>2016-04-02T08:09:42Z</time>
      </trkpt>
      <trkpt lat="42.94934" lon="0.0439">
        <ele>1694</ele>
        <time>2016-04-02T08:09:43Z</time>
      </trkpt>
      <trkpt lat="42.94934" lon="0.0439">
        <ele>1695</ele>
        <time>2016-04-02T08:10:01Z</time>
      </trkpt>
      <trkpt lat="42.94934" lon="0.0439">
        <ele>1695</ele>
        <time>2016-04-02T08:10:02Z</time>
      </trkpt>
      <trkpt lat="42.94936" lon="0.04386">
        <ele>1695</ele>
        <time>2016-04-02T08:10:22Z</time>
      </trkpt>
      <trkpt lat="42.94937" lon="0.04386">
        <ele>1694</ele>
        <time>2016-04-02T08:10:23Z</time>
      </trkpt>
      <trkpt lat="42.94938" lon="0.04387">
        <ele>1694</ele>
        <time>2016-04-02T08:10:42Z</time>
      </trkpt>
      <trkpt lat="42.94938" lon="0.04387">
        <ele>1694</ele>
        <time>2016-04-02T08:10:43Z</time>
      </trkpt>
      <trkpt lat="42.94938" lon="0.04387">
        <ele>1694</ele>
        <time>2016-04-02T08:11:02Z</time>
      </trkpt>
      <trkpt lat="42.94938" lon="0.04387">
        <ele>1694</ele>
        <time>2016-04-02T08:11:03Z</time>
      </trkpt>
      <trkpt lat="42.94938" lon="0.04387">
        <ele>1695</ele>
        <time>2016-04-02T08:11:23Z</time>
      </trkpt>
      <trkpt lat="42.94938" lon="0.04387">
        <ele>1695</ele>
        <time>2016-04-02T08:11:24Z</time>
      </trkpt>
      <trkpt lat="42.94938" lon="0.04387">
        <ele>1695</ele>
        <time>2016-04-02T08:11:43Z</time>
      </trkpt>
      <trkpt lat="42.94938" lon="0.04387">
        <ele>1695</ele>
        <time>2016-04-02T08:11:44Z</time>
      </trkpt>
      <trkpt lat="42.94934" lon="0.04388">
        <ele>1693</ele>
        <time>2016-04-02T08:12:05Z</time>
      </trkpt>
      <trkpt lat="42.94933" lon="0.04384">
        <ele>1692</ele>
        <time>2016-04-02T08:12:12Z</time>
      </trkpt>
      <trkpt lat="42.94928" lon="0.04393">
        <ele>1690</ele>
        <time>2016-04-02T08:12:29Z</time>
      </trkpt>
      <trkpt lat="42.94928" lon="0.04393">
        <ele>1687</ele>
        <time>2016-04-02T08:12:30Z</time>
      </trkpt>
      <trkpt lat="42.94923" lon="0.0439">
        <ele>1685</ele>
        <time>2016-04-02T08:12:47Z</time>
      </trkpt>
      <trkpt lat="42.94923" lon="0.0439">
        <ele>1685</ele>
        <time>2016-04-02T08:12:48Z</time>
      </trkpt>
      <trkpt lat="42.94923" lon="0.0439">
        <ele>1684</ele>
        <time>2016-04-02T08:13:08Z</time>
      </trkpt>
      <trkpt lat="42.94923" lon="0.0439">
        <ele>1684</ele>
        <time>2016-04-02T08:13:09Z</time>
      </trkpt>
      <trkpt lat="42.94929" lon="0.04389">
        <ele>1684</ele>
        <time>2016-04-02T08:13:28Z</time>
      </trkpt>
      <trkpt lat="42.9493" lon="0.04389">
        <ele>1684</ele>
        <time>2016-04-02T08:13:29Z</time>
      </trkpt>
      <trkpt lat="42.94934" lon="0.04388">
        <ele>1685</ele>
        <time>2016-04-02T08:13:49Z</time>
      </trkpt>
      <trkpt lat="42.94935" lon="0.04387">
        <ele>1686</ele>
        <time>2016-04-02T08:13:51Z</time>
      </trkpt>
      <trkpt lat="42.94936" lon="0.04388">
        <ele>1688</ele>
        <time>2016-04-02T08:14:08Z</time>
      </trkpt>
      <trkpt lat="42.94936" lon="0.04388">
        <ele>1690</ele>
        <time>2016-04-02T08:14:09Z</time>
      </trkpt>
      <trkpt lat="42.94935" lon="0.04388">
        <ele>1692</ele>
        <time>2016-04-02T08:14:29Z</time>
      </trkpt>
      <trkpt lat="42.94934" lon="0.04387">
        <ele>1693</ele>
        <time>2016-04-02T08:14:30Z</time>
      </trkpt>
      <trkpt lat="42.94936" lon="0.04386">
        <ele>1694</ele>
        <time>2016-04-02T08:14:49Z</time>
      </trkpt>
      <trkpt lat="42.94936" lon="0.04386">
        <ele>1694</ele>
        <time>2016-04-02T08:14:50Z</time>
      </trkpt>
      <trkpt lat="42.94938" lon="0.04395">
        <ele>1694</ele>
        <time>2016-04-02T08:15:08Z</time>
      </trkpt>
      <trkpt lat="42.94938" lon="0.04394">
        <ele>1695</ele>
        <time>2016-04-02T08:15:10Z</time>
      </trkpt>
      <trkpt lat="42.94937" lon="0.04409">
        <ele>1695</ele>
        <time>2016-04-02T08:15:27Z</time>
      </trkpt>
      <trkpt lat="42.94936" lon="0.0441">
        <ele>1694</ele>
        <time>2016-04-02T08:15:28Z</time>
      </trkpt>
      <trkpt lat="42.9493" lon="0.04428">
        <ele>1694</ele>
        <time>2016-04-02T08:15:47Z</time>
      </trkpt>
      <trkpt lat="42.94929" lon="0.04429">
        <ele>1694</ele>
        <time>2016-04-02T08:15:48Z</time>
      </trkpt>
      <trkpt lat="42.94916" lon="0.04448">
        <ele>1693</ele>
        <time>2016-04-02T08:16:06Z</time>
      </trkpt>
      <trkpt lat="42.94902" lon="0.04464">
        <ele>1692</ele>
        <time>2016-04-02T08:16:22Z</time>
      </trkpt>
      <trkpt lat="42.94891" lon="0.04485">
        <ele>1691</ele>
        <time>2016-04-02T08:16:39Z</time>
      </trkpt>
      <trkpt lat="42.94878" lon="0.04503">
        <ele>1691</ele>
        <time>2016-04-02T08:16:56Z</time>
      </trkpt>
      <trkpt lat="42.94867" lon="0.04522">
        <ele>1693</ele>
        <time>2016-04-02T08:17:16Z</time>
      </trkpt>
      <trkpt lat="42.94856" lon="0.04542">
        <ele>1695</ele>
        <time>2016-04-02T08:17:34Z</time>
      </trkpt>
      <trkpt lat="42.94829" lon="0.04593">
        <ele>1711</ele>
        <time>2016-04-02T08:18:44Z</time>
      </trkpt>
      <trkpt lat="42.94828" lon="0.04594">
        <ele>1711</ele>
        <time>2016-04-02T08:18:45Z</time>
      </trkpt>
      <trkpt lat="42.94816" lon="0.04609">
        <ele>1712</ele>
        <time>2016-04-02T08:19:03Z</time>
      </trkpt>
      <trkpt lat="42.94815" lon="0.0461">
        <ele>1711</ele>
        <time>2016-04-02T08:19:04Z</time>
      </trkpt>
      <trkpt lat="42.94812" lon="0.04619">
        <ele>1711</ele>
        <time>2016-04-02T08:19:23Z</time>
      </trkpt>
      <trkpt lat="42.94812" lon="0.04619">
        <ele>1711</ele>
        <time>2016-04-02T08:19:24Z</time>
      </trkpt>
      <trkpt lat="42.94814" lon="0.04619">
        <ele>1711</ele>
        <time>2016-04-02T08:19:42Z</time>
      </trkpt>
      <trkpt lat="42.94814" lon="0.04619">
        <ele>1711</ele>
        <time>2016-04-02T08:19:44Z</time>
      </trkpt>
      <trkpt lat="42.94811" lon="0.04635">
        <ele>1711</ele>
        <time>2016-04-02T08:20:01Z</time>
      </trkpt>
      <trkpt lat="42.94812" lon="0.04636">
        <ele>1711</ele>
        <time>2016-04-02T08:20:02Z</time>
      </trkpt>
      <trkpt lat="42.94812" lon="0.04649">
        <ele>1712</ele>
        <time>2016-04-02T08:20:20Z</time>
      </trkpt>
      <trkpt lat="42.94812" lon="0.0465">
        <ele>1712</ele>
        <time>2016-04-02T08:20:21Z</time>
      </trkpt>
      <trkpt lat="42.94806" lon="0.04653">
        <ele>1713</ele>
        <time>2016-04-02T08:20:39Z</time>
      </trkpt>
      <trkpt lat="42.94805" lon="0.04652">
        <ele>1715</ele>
        <time>2016-04-02T08:20:40Z</time>
      </trkpt>
      <trkpt lat="42.94791" lon="0.04657">
        <ele>1717</ele>
        <time>2016-04-02T08:21:00Z</time>
      </trkpt>
      <trkpt lat="42.94792" lon="0.04657">
        <ele>1719</ele>
        <time>2016-04-02T08:21:01Z</time>
      </trkpt>
      <trkpt lat="42.9479" lon="0.0466">
        <ele>1722</ele>
        <time>2016-04-02T08:21:20Z</time>
      </trkpt>
      <trkpt lat="42.9479" lon="0.04661">
        <ele>1724</ele>
        <time>2016-04-02T08:21:21Z</time>
      </trkpt>
      <trkpt lat="42.94778" lon="0.04676">
        <ele>1727</ele>
        <time>2016-04-02T08:21:41Z</time>
      </trkpt>
      <trkpt lat="42.94778" lon="0.04677">
        <ele>1728</ele>
        <time>2016-04-02T08:21:42Z</time>
      </trkpt>
      <trkpt lat="42.9477" lon="0.04693">
        <ele>1731</ele>
        <time>2016-04-02T08:22:01Z</time>
      </trkpt>
      <trkpt lat="42.9477" lon="0.04695">
        <ele>1733</ele>
        <time>2016-04-02T08:22:03Z</time>
      </trkpt>
      <trkpt lat="42.94765" lon="0.04712">
        <ele>1733</ele>
        <time>2016-04-02T08:22:21Z</time>
      </trkpt>
      <trkpt lat="42.94765" lon="0.04714">
        <ele>1734</ele>
        <time>2016-04-02T08:22:22Z</time>
      </trkpt>
      <trkpt lat="42.94763" lon="0.04735">
        <ele>1734</ele>
        <time>2016-04-02T08:22:41Z</time>
      </trkpt>
      <trkpt lat="42.94763" lon="0.04735">
        <ele>1734</ele>
        <time>2016-04-02T08:22:42Z</time>
      </trkpt>
      <trkpt lat="42.94759" lon="0.04752">
        <ele>1733</ele>
        <time>2016-04-02T08:23:02Z</time>
      </trkpt>
      <trkpt lat="42.94759" lon="0.04753">
        <ele>1733</ele>
        <time>2016-04-02T08:23:03Z</time>
      </trkpt>
      <trkpt lat="42.94754" lon="0.04772">
        <ele>1733</ele>
        <time>2016-04-02T08:23:21Z</time>
      </trkpt>
      <trkpt lat="42.94754" lon="0.04772">
        <ele>1733</ele>
        <time>2016-04-02T08:23:22Z</time>
      </trkpt>
      <trkpt lat="42.94748" lon="0.04795">
        <ele>1733</ele>
        <time>2016-04-02T08:23:41Z</time>
      </trkpt>
      <trkpt lat="42.94747" lon="0.04796">
        <ele>1734</ele>
        <time>2016-04-02T08:23:42Z</time>
      </trkpt>
      <trkpt lat="42.94741" lon="0.04809">
        <ele>1734</ele>
        <time>2016-04-02T08:24:01Z</time>
      </trkpt>
      <trkpt lat="42.94741" lon="0.04808">
        <ele>1733</ele>
        <time>2016-04-02T08:24:02Z</time>
      </trkpt>
      <trkpt lat="42.94732" lon="0.0483">
        <ele>1734</ele>
        <time>2016-04-02T08:24:22Z</time>
      </trkpt>
      <trkpt lat="42.94721" lon="0.04849">
        <ele>1735</ele>
        <time>2016-04-02T08:24:41Z</time>
      </trkpt>
      <trkpt lat="42.9471" lon="0.0487">
        <ele>1736</ele>
        <time>2016-04-02T08:25:01Z</time>
      </trkpt>
      <trkpt lat="42.94702" lon="0.04893">
        <ele>1738</ele>
        <time>2016-04-02T08:25:20Z</time>
      </trkpt>
      <trkpt lat="42.94694" lon="0.0491">
        <ele>1740</ele>
        <time>2016-04-02T08:25:41Z</time>
      </trkpt>
      <trkpt lat="42.94694" lon="0.0491">
        <ele>1740</ele>
        <time>2016-04-02T08:25:42Z</time>
      </trkpt>
      <trkpt lat="42.94686" lon="0.04934">
        <ele>1740</ele>
        <time>2016-04-02T08:26:01Z</time>
      </trkpt>
      <trkpt lat="42.94677" lon="0.04955">
        <ele>1740</ele>
        <time>2016-04-02T08:26:20Z</time>
      </trkpt>
      <trkpt lat="42.9467" lon="0.04979">
        <ele>1740</ele>
        <time>2016-04-02T08:26:38Z</time>
      </trkpt>
      <trkpt lat="42.94664" lon="0.05003">
        <ele>1741</ele>
        <time>2016-04-02T08:26:57Z</time>
      </trkpt>
      <trkpt lat="42.94658" lon="0.05027">
        <ele>1743</ele>
        <time>2016-04-02T08:27:17Z</time>
      </trkpt>
      <trkpt lat="42.94651" lon="0.0505">
        <ele>1745</ele>
        <time>2016-04-02T08:27:36Z</time>
      </trkpt>
      <trkpt lat="42.94645" lon="0.05073">
        <ele>1747</ele>
        <time>2016-04-02T08:27:58Z</time>
      </trkpt>
      <trkpt lat="42.94639" lon="0.05095">
        <ele>1749</ele>
        <time>2016-04-02T08:28:19Z</time>
      </trkpt>
      <trkpt lat="42.94639" lon="0.05096">
        <ele>1752</ele>
        <time>2016-04-02T08:28:20Z</time>
      </trkpt>
      <trkpt lat="42.94628" lon="0.05116">
        <ele>1753</ele>
        <time>2016-04-02T08:28:40Z</time>
      </trkpt>
      <trkpt lat="42.94628" lon="0.05117">
        <ele>1754</ele>
        <time>2016-04-02T08:28:41Z</time>
      </trkpt>
      <trkpt lat="42.94613" lon="0.0513">
        <ele>1755</ele>
        <time>2016-04-02T08:28:56Z</time>
      </trkpt>
      <trkpt lat="42.946" lon="0.05151">
        <ele>1754</ele>
        <time>2016-04-02T08:29:14Z</time>
      </trkpt>
      <trkpt lat="42.94589" lon="0.0517">
        <ele>1754</ele>
        <time>2016-04-02T08:29:31Z</time>
      </trkpt>
      <trkpt lat="42.94577" lon="0.05189">
        <ele>1754</ele>
        <time>2016-04-02T08:29:46Z</time>
      </trkpt>
      <trkpt lat="42.94565" lon="0.05209">
        <ele>1753</ele>
        <time>2016-04-02T08:30:03Z</time>
      </trkpt>
      <trkpt lat="42.94551" lon="0.05224">
        <ele>1751</ele>
        <time>2016-04-02T08:30:19Z</time>
      </trkpt>
      <trkpt lat="42.9455" lon="0.05225">
        <ele>1750</ele>
        <time>2016-04-02T08:30:20Z</time>
      </trkpt>
      <trkpt lat="42.94538" lon="0.05244">
        <ele>1748</ele>
        <time>2016-04-02T08:30:30Z</time>
      </trkpt>
      <trkpt lat="42.9453" lon="0.05266">
        <ele>1747</ele>
        <time>2016-04-02T08:30:45Z</time>
      </trkpt>
      <trkpt lat="42.94523" lon="0.05288">
        <ele>1746</ele>
        <time>2016-04-02T08:31:04Z</time>
      </trkpt>
      <trkpt lat="42.94514" lon="0.05309">
        <ele>1746</ele>
        <time>2016-04-02T08:31:19Z</time>
      </trkpt>
      <trkpt lat="42.94513" lon="0.05311">
        <ele>1746</ele>
        <time>2016-04-02T08:31:20Z</time>
      </trkpt>
      <trkpt lat="42.94504" lon="0.05333">
        <ele>1746</ele>
        <time>2016-04-02T08:31:38Z</time>
      </trkpt>
      <trkpt lat="42.94493" lon="0.05354">
        <ele>1746</ele>
        <time>2016-04-02T08:31:56Z</time>
      </trkpt>
      <trkpt lat="42.94481" lon="0.05374">
        <ele>1746</ele>
        <time>2016-04-02T08:32:14Z</time>
      </trkpt>
      <trkpt lat="42.9447" lon="0.05393">
        <ele>1746</ele>
        <time>2016-04-02T08:32:34Z</time>
      </trkpt>
      <trkpt lat="42.94458" lon="0.05412">
        <ele>1746</ele>
        <time>2016-04-02T08:32:58Z</time>
      </trkpt>
      <trkpt lat="42.94446" lon="0.05429">
        <ele>1747</ele>
        <time>2016-04-02T08:33:20Z</time>
      </trkpt>
      <trkpt lat="42.94446" lon="0.0543">
        <ele>1747</ele>
        <time>2016-04-02T08:33:21Z</time>
      </trkpt>
      <trkpt lat="42.94434" lon="0.0544">
        <ele>1749</ele>
        <time>2016-04-02T08:33:40Z</time>
      </trkpt>
      <trkpt lat="42.94433" lon="0.05441">
        <ele>1749</ele>
        <time>2016-04-02T08:33:41Z</time>
      </trkpt>
      <trkpt lat="42.94421" lon="0.05452">
        <ele>1750</ele>
        <time>2016-04-02T08:33:59Z</time>
      </trkpt>
      <trkpt lat="42.94418" lon="0.05452">
        <ele>1750</ele>
        <time>2016-04-02T08:34:02Z</time>
      </trkpt>
      <trkpt lat="42.94401" lon="0.05462">
        <ele>1750</ele>
        <time>2016-04-02T08:34:18Z</time>
      </trkpt>
      <trkpt lat="42.94384" lon="0.05472">
        <ele>1749</ele>
        <time>2016-04-02T08:34:36Z</time>
      </trkpt>
      <trkpt lat="42.94369" lon="0.05485">
        <ele>1752</ele>
        <time>2016-04-02T08:34:59Z</time>
      </trkpt>
      <trkpt lat="42.94355" lon="0.05501">
        <ele>1755</ele>
        <time>2016-04-02T08:35:19Z</time>
      </trkpt>
      <trkpt lat="42.9434" lon="0.05517">
        <ele>1759</ele>
        <time>2016-04-02T08:35:42Z</time>
      </trkpt>
      <trkpt lat="42.94331" lon="0.05535">
        <ele>1764</ele>
        <time>2016-04-02T08:36:03Z</time>
      </trkpt>
      <trkpt lat="42.94331" lon="0.05536">
        <ele>1768</ele>
        <time>2016-04-02T08:36:04Z</time>
      </trkpt>
      <trkpt lat="42.94319" lon="0.05552">
        <ele>1770</ele>
        <time>2016-04-02T08:36:23Z</time>
      </trkpt>
      <trkpt lat="42.94317" lon="0.05554">
        <ele>1771</ele>
        <time>2016-04-02T08:36:26Z</time>
      </trkpt>
      <trkpt lat="42.94306" lon="0.05564">
        <ele>1771</ele>
        <time>2016-04-02T08:36:43Z</time>
      </trkpt>
      <trkpt lat="42.94306" lon="0.05564">
        <ele>1772</ele>
        <time>2016-04-02T08:36:44Z</time>
      </trkpt>
      <trkpt lat="42.94296" lon="0.05571">
        <ele>1773</ele>
        <time>2016-04-02T08:37:04Z</time>
      </trkpt>
      <trkpt lat="42.94298" lon="0.05573">
        <ele>1775</ele>
        <time>2016-04-02T08:37:06Z</time>
      </trkpt>
      <trkpt lat="42.94285" lon="0.05583">
        <ele>1779</ele>
        <time>2016-04-02T08:37:23Z</time>
      </trkpt>
      <trkpt lat="42.94284" lon="0.05584">
        <ele>1782</ele>
        <time>2016-04-02T08:37:24Z</time>
      </trkpt>
      <trkpt lat="42.94271" lon="0.05592">
        <ele>1787</ele>
        <time>2016-04-02T08:37:43Z</time>
      </trkpt>
      <trkpt lat="42.94269" lon="0.05592">
        <ele>1790</ele>
        <time>2016-04-02T08:37:44Z</time>
      </trkpt>
      <trkpt lat="42.94259" lon="0.05605">
        <ele>1792</ele>
        <time>2016-04-02T08:38:03Z</time>
      </trkpt>
      <trkpt lat="42.94258" lon="0.05605">
        <ele>1793</ele>
        <time>2016-04-02T08:38:04Z</time>
      </trkpt>
      <trkpt lat="42.94253" lon="0.05603">
        <ele>1795</ele>
        <time>2016-04-02T08:38:23Z</time>
      </trkpt>
      <trkpt lat="42.94254" lon="0.05601">
        <ele>1796</ele>
        <time>2016-04-02T08:38:24Z</time>
      </trkpt>
      <trkpt lat="42.94257" lon="0.05583">
        <ele>1799</ele>
        <time>2016-04-02T08:38:44Z</time>
      </trkpt>
      <trkpt lat="42.94259" lon="0.05582">
        <ele>1803</ele>
        <time>2016-04-02T08:38:47Z</time>
      </trkpt>
      <trkpt lat="42.94251" lon="0.0558">
        <ele>1805</ele>
        <time>2016-04-02T08:39:04Z</time>
      </trkpt>
      <trkpt lat="42.94251" lon="0.05581">
        <ele>1807</ele>
        <time>2016-04-02T08:39:05Z</time>
      </trkpt>
      <trkpt lat="42.94238" lon="0.05597">
        <ele>1810</ele>
        <time>2016-04-02T08:39:24Z</time>
      </trkpt>
      <trkpt lat="42.94238" lon="0.05598">
        <ele>1810</ele>
        <time>2016-04-02T08:39:25Z</time>
      </trkpt>
      <trkpt lat="42.94225" lon="0.05597">
        <ele>1810</ele>
        <time>2016-04-02T08:39:44Z</time>
      </trkpt>
      <trkpt lat="42.94225" lon="0.05597">
        <ele>1812</ele>
        <time>2016-04-02T08:39:45Z</time>
      </trkpt>
      <trkpt lat="42.94212" lon="0.05586">
        <ele>1813</ele>
        <time>2016-04-02T08:40:04Z</time>
      </trkpt>
      <trkpt lat="42.94212" lon="0.05586">
        <ele>1814</ele>
        <time>2016-04-02T08:40:05Z</time>
      </trkpt>
      <trkpt lat="42.94209" lon="0.056">
        <ele>1815</ele>
        <time>2016-04-02T08:40:24Z</time>
      </trkpt>
      <trkpt lat="42.94209" lon="0.056">
        <ele>1816</ele>
        <time>2016-04-02T08:40:25Z</time>
      </trkpt>
      <trkpt lat="42.94201" lon="0.05611">
        <ele>1818</ele>
        <time>2016-04-02T08:40:45Z</time>
      </trkpt>
      <trkpt lat="42.942" lon="0.05609">
        <ele>1819</ele>
        <time>2016-04-02T08:40:46Z</time>
      </trkpt>
      <trkpt lat="42.94192" lon="0.05598">
        <ele>1820</ele>
        <time>2016-04-02T08:41:04Z</time>
      </trkpt>
      <trkpt lat="42.94191" lon="0.05598">
        <ele>1821</ele>
        <time>2016-04-02T08:41:07Z</time>
      </trkpt>
      <trkpt lat="42.94182" lon="0.05595">
        <ele>1823</ele>
        <time>2016-04-02T08:41:24Z</time>
      </trkpt>
      <trkpt lat="42.94181" lon="0.05595">
        <ele>1823</ele>
        <time>2016-04-02T08:41:25Z</time>
      </trkpt>
      <trkpt lat="42.94169" lon="0.05602">
        <ele>1825</ele>
        <time>2016-04-02T08:41:45Z</time>
      </trkpt>
      <trkpt lat="42.94169" lon="0.05603">
        <ele>1826</ele>
        <time>2016-04-02T08:41:46Z</time>
      </trkpt>
      <trkpt lat="42.94159" lon="0.05616">
        <ele>1828</ele>
        <time>2016-04-02T08:42:05Z</time>
      </trkpt>
      <trkpt lat="42.94159" lon="0.05616">
        <ele>1829</ele>
        <time>2016-04-02T08:42:06Z</time>
      </trkpt>
      <trkpt lat="42.94152" lon="0.05618">
        <ele>1832</ele>
        <time>2016-04-02T08:42:25Z</time>
      </trkpt>
      <trkpt lat="42.94152" lon="0.05618">
        <ele>1833</ele>
        <time>2016-04-02T08:42:26Z</time>
      </trkpt>
      <trkpt lat="42.94143" lon="0.05621">
        <ele>1836</ele>
        <time>2016-04-02T08:42:45Z</time>
      </trkpt>
      <trkpt lat="42.94142" lon="0.05621">
        <ele>1839</ele>
        <time>2016-04-02T08:42:46Z</time>
      </trkpt>
      <trkpt lat="42.94132" lon="0.05623">
        <ele>1841</ele>
        <time>2016-04-02T08:43:05Z</time>
      </trkpt>
      <trkpt lat="42.94131" lon="0.05623">
        <ele>1843</ele>
        <time>2016-04-02T08:43:06Z</time>
      </trkpt>
      <trkpt lat="42.94117" lon="0.05622">
        <ele>1844</ele>
        <time>2016-04-02T08:43:25Z</time>
      </trkpt>
      <trkpt lat="42.94118" lon="0.05622">
        <ele>1845</ele>
        <time>2016-04-02T08:43:26Z</time>
      </trkpt>
      <trkpt lat="42.94109" lon="0.05628">
        <ele>1847</ele>
        <time>2016-04-02T08:43:43Z</time>
      </trkpt>
      <trkpt lat="42.94108" lon="0.05628">
        <ele>1848</ele>
        <time>2016-04-02T08:43:44Z</time>
      </trkpt>
      <trkpt lat="42.94099" lon="0.05632">
        <ele>1850</ele>
        <time>2016-04-02T08:44:02Z</time>
      </trkpt>
      <trkpt lat="42.94099" lon="0.05633">
        <ele>1853</ele>
        <time>2016-04-02T08:44:03Z</time>
      </trkpt>
      <trkpt lat="42.94081" lon="0.0564">
        <ele>1854</ele>
        <time>2016-04-02T08:44:19Z</time>
      </trkpt>
      <trkpt lat="42.9407" lon="0.0566">
        <ele>1855</ele>
        <time>2016-04-02T08:44:42Z</time>
      </trkpt>
      <trkpt lat="42.94062" lon="0.0568">
        <ele>1858</ele>
        <time>2016-04-02T08:45:05Z</time>
      </trkpt>
      <trkpt lat="42.94062" lon="0.05681">
        <ele>1859</ele>
        <time>2016-04-02T08:45:06Z</time>
      </trkpt>
      <trkpt lat="42.94051" lon="0.05688">
        <ele>1861</ele>
        <time>2016-04-02T08:45:25Z</time>
      </trkpt>
      <trkpt lat="42.9405" lon="0.05689">
        <ele>1864</ele>
        <time>2016-04-02T08:45:26Z</time>
      </trkpt>
      <trkpt lat="42.94043" lon="0.057">
        <ele>1867</ele>
        <time>2016-04-02T08:45:46Z</time>
      </trkpt>
      <trkpt lat="42.94043" lon="0.05699">
        <ele>1869</ele>
        <time>2016-04-02T08:45:47Z</time>
      </trkpt>
      <trkpt lat="42.94036" lon="0.05711">
        <ele>1871</ele>
        <time>2016-04-02T08:46:06Z</time>
      </trkpt>
      <trkpt lat="42.94035" lon="0.05711">
        <ele>1872</ele>
        <time>2016-04-02T08:46:07Z</time>
      </trkpt>
      <trkpt lat="42.9403" lon="0.0572">
        <ele>1875</ele>
        <time>2016-04-02T08:46:27Z</time>
      </trkpt>
      <trkpt lat="42.9403" lon="0.0572">
        <ele>1876</ele>
        <time>2016-04-02T08:46:29Z</time>
      </trkpt>
      <trkpt lat="42.94024" lon="0.0573">
        <ele>1879</ele>
        <time>2016-04-02T08:46:46Z</time>
      </trkpt>
      <trkpt lat="42.94025" lon="0.05731">
        <ele>1881</ele>
        <time>2016-04-02T08:46:47Z</time>
      </trkpt>
      <trkpt lat="42.94019" lon="0.05727">
        <ele>1883</ele>
        <time>2016-04-02T08:47:06Z</time>
      </trkpt>
      <trkpt lat="42.94019" lon="0.05726">
        <ele>1885</ele>
        <time>2016-04-02T08:47:07Z</time>
      </trkpt>
      <trkpt lat="42.94012" lon="0.05715">
        <ele>1888</ele>
        <time>2016-04-02T08:47:26Z</time>
      </trkpt>
      <trkpt lat="42.94011" lon="0.05714">
        <ele>1889</ele>
        <time>2016-04-02T08:47:27Z</time>
      </trkpt>
      <trkpt lat="42.94006" lon="0.05705">
        <ele>1891</ele>
        <time>2016-04-02T08:47:47Z</time>
      </trkpt>
      <trkpt lat="42.94007" lon="0.05706">
        <ele>1892</ele>
        <time>2016-04-02T08:47:48Z</time>
      </trkpt>
      <trkpt lat="42.94" lon="0.05721">
        <ele>1893</ele>
        <time>2016-04-02T08:48:06Z</time>
      </trkpt>
      <trkpt lat="42.94" lon="0.05722">
        <ele>1893</ele>
        <time>2016-04-02T08:48:07Z</time>
      </trkpt>
      <trkpt lat="42.93992" lon="0.05735">
        <ele>1894</ele>
        <time>2016-04-02T08:48:27Z</time>
      </trkpt>
      <trkpt lat="42.93992" lon="0.05735">
        <ele>1895</ele>
        <time>2016-04-02T08:48:28Z</time>
      </trkpt>
      <trkpt lat="42.93983" lon="0.05748">
        <ele>1895</ele>
        <time>2016-04-02T08:48:46Z</time>
      </trkpt>
      <trkpt lat="42.93983" lon="0.05748">
        <ele>1896</ele>
        <time>2016-04-02T08:48:47Z</time>
      </trkpt>
      <trkpt lat="42.93974" lon="0.05761">
        <ele>1898</ele>
        <time>2016-04-02T08:49:08Z</time>
      </trkpt>
      <trkpt lat="42.93973" lon="0.05762">
        <ele>1899</ele>
        <time>2016-04-02T08:49:09Z</time>
      </trkpt>
      <trkpt lat="42.93965" lon="0.05763">
        <ele>1900</ele>
        <time>2016-04-02T08:49:27Z</time>
      </trkpt>
      <trkpt lat="42.93964" lon="0.05763">
        <ele>1902</ele>
        <time>2016-04-02T08:49:28Z</time>
      </trkpt>
      <trkpt lat="42.93954" lon="0.05765">
        <ele>1904</ele>
        <time>2016-04-02T08:49:47Z</time>
      </trkpt>
      <trkpt lat="42.93953" lon="0.05766">
        <ele>1905</ele>
        <time>2016-04-02T08:49:48Z</time>
      </trkpt>
      <trkpt lat="42.93941" lon="0.05773">
        <ele>1907</ele>
        <time>2016-04-02T08:50:07Z</time>
      </trkpt>
      <trkpt lat="42.9394" lon="0.05773">
        <ele>1908</ele>
        <time>2016-04-02T08:50:08Z</time>
      </trkpt>
      <trkpt lat="42.93929" lon="0.0578">
        <ele>1909</ele>
        <time>2016-04-02T08:50:27Z</time>
      </trkpt>
      <trkpt lat="42.93929" lon="0.0578">
        <ele>1910</ele>
        <time>2016-04-02T08:50:28Z</time>
      </trkpt>
      <trkpt lat="42.93916" lon="0.05784">
        <ele>1911</ele>
        <time>2016-04-02T08:50:48Z</time>
      </trkpt>
      <trkpt lat="42.93915" lon="0.05784">
        <ele>1913</ele>
        <time>2016-04-02T08:50:49Z</time>
      </trkpt>
      <trkpt lat="42.939" lon="0.05798">
        <ele>1914</ele>
        <time>2016-04-02T08:51:07Z</time>
      </trkpt>
      <trkpt lat="42.93881" lon="0.05802">
        <ele>1915</ele>
        <time>2016-04-02T08:51:26Z</time>
      </trkpt>
      <trkpt lat="42.93862" lon="0.05805">
        <ele>1915</ele>
        <time>2016-04-02T08:51:41Z</time>
      </trkpt>
      <trkpt lat="42.93845" lon="0.0581">
        <ele>1915</ele>
        <time>2016-04-02T08:51:54Z</time>
      </trkpt>
      <trkpt lat="42.93827" lon="0.05817">
        <ele>1914</ele>
        <time>2016-04-02T08:52:10Z</time>
      </trkpt>
      <trkpt lat="42.93808" lon="0.05821">
        <ele>1914</ele>
        <time>2016-04-02T08:52:26Z</time>
      </trkpt>
      <trkpt lat="42.9379" lon="0.05821">
        <ele>1913</ele>
        <time>2016-04-02T08:52:36Z</time>
      </trkpt>
      <trkpt lat="42.93733" lon="0.05853">
        <ele>1909</ele>
        <time>2016-04-02T09:03:59Z</time>
      </trkpt>
      <trkpt lat="42.93715" lon="0.05861">
        <ele>1907</ele>
        <time>2016-04-02T09:04:15Z</time>
      </trkpt>
      <trkpt lat="42.93665" lon="0.05899">
        <ele>1906</ele>
        <time>2016-04-02T09:06:20Z</time>
      </trkpt>
      <trkpt lat="42.93665" lon="0.05899">
        <ele>1904</ele>
        <time>2016-04-02T09:06:22Z</time>
      </trkpt>
      <trkpt lat="42.93654" lon="0.05903">
        <ele>1904</ele>
        <time>2016-04-02T09:06:50Z</time>
      </trkpt>
      <trkpt lat="42.93654" lon="0.05905">
        <ele>1905</ele>
        <time>2016-04-02T09:06:52Z</time>
      </trkpt>
      <trkpt lat="42.93636" lon="0.05913">
        <ele>1905</ele>
        <time>2016-04-02T09:07:13Z</time>
      </trkpt>
      <trkpt lat="42.93617" lon="0.05921">
        <ele>1906</ele>
        <time>2016-04-02T09:07:36Z</time>
      </trkpt>
      <trkpt lat="42.936" lon="0.05931">
        <ele>1906</ele>
        <time>2016-04-02T09:08:00Z</time>
      </trkpt>
      <trkpt lat="42.93585" lon="0.0594">
        <ele>1906</ele>
        <time>2016-04-02T09:08:26Z</time>
      </trkpt>
      <trkpt lat="42.93584" lon="0.05941">
        <ele>1906</ele>
        <time>2016-04-02T09:08:27Z</time>
      </trkpt>
      <trkpt lat="42.93572" lon="0.05946">
        <ele>1906</ele>
        <time>2016-04-02T09:08:46Z</time>
      </trkpt>
      <trkpt lat="42.93571" lon="0.05946">
        <ele>1906</ele>
        <time>2016-04-02T09:08:47Z</time>
      </trkpt>
      <trkpt lat="42.9356" lon="0.05949">
        <ele>1909</ele>
        <time>2016-04-02T09:09:06Z</time>
      </trkpt>
      <trkpt lat="42.93559" lon="0.0595">
        <ele>1911</ele>
        <time>2016-04-02T09:09:07Z</time>
      </trkpt>
      <trkpt lat="42.93542" lon="0.05955">
        <ele>1913</ele>
        <time>2016-04-02T09:09:22Z</time>
      </trkpt>
      <trkpt lat="42.93524" lon="0.05961">
        <ele>1915</ele>
        <time>2016-04-02T09:09:45Z</time>
      </trkpt>
      <trkpt lat="42.93512" lon="0.05967">
        <ele>1918</ele>
        <time>2016-04-02T09:10:06Z</time>
      </trkpt>
      <trkpt lat="42.93513" lon="0.05966">
        <ele>1921</ele>
        <time>2016-04-02T09:10:07Z</time>
      </trkpt>
      <trkpt lat="42.93506" lon="0.05962">
        <ele>1923</ele>
        <time>2016-04-02T09:10:27Z</time>
      </trkpt>
      <trkpt lat="42.93503" lon="0.05965">
        <ele>1926</ele>
        <time>2016-04-02T09:10:29Z</time>
      </trkpt>
      <trkpt lat="42.93487" lon="0.05977">
        <ele>1928</ele>
        <time>2016-04-02T09:10:42Z</time>
      </trkpt>
      <trkpt lat="42.93473" lon="0.05984">
        <ele>1929</ele>
        <time>2016-04-02T09:11:06Z</time>
      </trkpt>
      <trkpt lat="42.93472" lon="0.05983">
        <ele>1931</ele>
        <time>2016-04-02T09:11:07Z</time>
      </trkpt>
      <trkpt lat="42.93456" lon="0.0599">
        <ele>1931</ele>
        <time>2016-04-02T09:11:26Z</time>
      </trkpt>
      <trkpt lat="42.93456" lon="0.05991">
        <ele>1932</ele>
        <time>2016-04-02T09:11:27Z</time>
      </trkpt>
      <trkpt lat="42.93438" lon="0.05999">
        <ele>1934</ele>
        <time>2016-04-02T09:11:46Z</time>
      </trkpt>
      <trkpt lat="42.93433" lon="0.06001">
        <ele>1935</ele>
        <time>2016-04-02T09:12:06Z</time>
      </trkpt>
      <trkpt lat="42.93433" lon="0.06001">
        <ele>1937</ele>
        <time>2016-04-02T09:12:07Z</time>
      </trkpt>
      <trkpt lat="42.93428" lon="0.06001">
        <ele>1938</ele>
        <time>2016-04-02T09:12:26Z</time>
      </trkpt>
      <trkpt lat="42.93428" lon="0.06001">
        <ele>1940</ele>
        <time>2016-04-02T09:12:27Z</time>
      </trkpt>
      <trkpt lat="42.9342" lon="0.06005">
        <ele>1942</ele>
        <time>2016-04-02T09:12:47Z</time>
      </trkpt>
      <trkpt lat="42.93414" lon="0.06007">
        <ele>1944</ele>
        <time>2016-04-02T09:12:50Z</time>
      </trkpt>
      <trkpt lat="42.93397" lon="0.06007">
        <ele>1946</ele>
        <time>2016-04-02T09:13:06Z</time>
      </trkpt>
      <trkpt lat="42.93398" lon="0.06007">
        <ele>1947</ele>
        <time>2016-04-02T09:13:07Z</time>
      </trkpt>
      <trkpt lat="42.93383" lon="0.06007">
        <ele>1947</ele>
        <time>2016-04-02T09:13:26Z</time>
      </trkpt>
      <trkpt lat="42.93382" lon="0.06007">
        <ele>1947</ele>
        <time>2016-04-02T09:13:27Z</time>
      </trkpt>
      <trkpt lat="42.93375" lon="0.05999">
        <ele>1946</ele>
        <time>2016-04-02T09:13:44Z</time>
      </trkpt>
      <trkpt lat="42.93374" lon="0.05999">
        <ele>1947</ele>
        <time>2016-04-02T09:13:45Z</time>
      </trkpt>
      <trkpt lat="42.93364" lon="0.05994">
        <ele>1948</ele>
        <time>2016-04-02T09:14:04Z</time>
      </trkpt>
      <trkpt lat="42.93358" lon="0.05993">
        <ele>1951</ele>
        <time>2016-04-02T09:14:19Z</time>
      </trkpt>
      <trkpt lat="42.93347" lon="0.05984">
        <ele>1954</ele>
        <time>2016-04-02T09:14:34Z</time>
      </trkpt>
      <trkpt lat="42.93346" lon="0.05983">
        <ele>1958</ele>
        <time>2016-04-02T09:14:35Z</time>
      </trkpt>
      <trkpt lat="42.93338" lon="0.05982">
        <ele>1961</ele>
        <time>2016-04-02T09:14:53Z</time>
      </trkpt>
      <trkpt lat="42.93338" lon="0.05982">
        <ele>1963</ele>
        <time>2016-04-02T09:14:54Z</time>
      </trkpt>
      <trkpt lat="42.93323" lon="0.0598">
        <ele>1965</ele>
        <time>2016-04-02T09:15:12Z</time>
      </trkpt>
      <trkpt lat="42.93322" lon="0.05979">
        <ele>1965</ele>
        <time>2016-04-02T09:15:13Z</time>
      </trkpt>
      <trkpt lat="42.9331" lon="0.05977">
        <ele>1967</ele>
        <time>2016-04-02T09:15:31Z</time>
      </trkpt>
      <trkpt lat="42.9331" lon="0.05977">
        <ele>1968</ele>
        <time>2016-04-02T09:15:32Z</time>
      </trkpt>
      <trkpt lat="42.93301" lon="0.05981">
        <ele>1970</ele>
        <time>2016-04-02T09:15:52Z</time>
      </trkpt>
      <trkpt lat="42.93301" lon="0.0598">
        <ele>1971</ele>
        <time>2016-04-02T09:15:53Z</time>
      </trkpt>
      <trkpt lat="42.93297" lon="0.05986">
        <ele>1973</ele>
        <time>2016-04-02T09:16:12Z</time>
      </trkpt>
      <trkpt lat="42.93297" lon="0.05987">
        <ele>1975</ele>
        <time>2016-04-02T09:16:13Z</time>
      </trkpt>
      <trkpt lat="42.93284" lon="0.05994">
        <ele>1976</ele>
        <time>2016-04-02T09:16:33Z</time>
      </trkpt>
      <trkpt lat="42.93283" lon="0.05994">
        <ele>1977</ele>
        <time>2016-04-02T09:16:34Z</time>
      </trkpt>
      <trkpt lat="42.93277" lon="0.05999">
        <ele>1979</ele>
        <time>2016-04-02T09:16:53Z</time>
      </trkpt>
      <trkpt lat="42.93276" lon="0.06">
        <ele>1980</ele>
        <time>2016-04-02T09:16:55Z</time>
      </trkpt>
      <trkpt lat="42.93269" lon="0.06003">
        <ele>1981</ele>
        <time>2016-04-02T09:17:13Z</time>
      </trkpt>
      <trkpt lat="42.93268" lon="0.06003">
        <ele>1982</ele>
        <time>2016-04-02T09:17:16Z</time>
      </trkpt>
      <trkpt lat="42.93259" lon="0.06006">
        <ele>1982</ele>
        <time>2016-04-02T09:17:32Z</time>
      </trkpt>
      <trkpt lat="42.93259" lon="0.06006">
        <ele>1982</ele>
        <time>2016-04-02T09:17:33Z</time>
      </trkpt>
      <trkpt lat="42.93259" lon="0.06006">
        <ele>1982</ele>
        <time>2016-04-02T09:17:52Z</time>
      </trkpt>
      <trkpt lat="42.93259" lon="0.06006">
        <ele>1982</ele>
        <time>2016-04-02T09:17:53Z</time>
      </trkpt>
      <trkpt lat="42.93251" lon="0.0601">
        <ele>1976</ele>
        <time>2016-04-02T09:18:11Z</time>
      </trkpt>
      <trkpt lat="42.93252" lon="0.0601">
        <ele>1972</ele>
        <time>2016-04-02T09:18:12Z</time>
      </trkpt>
      <trkpt lat="42.93238" lon="0.06015">
        <ele>1973</ele>
        <time>2016-04-02T09:18:31Z</time>
      </trkpt>
      <trkpt lat="42.93238" lon="0.06015">
        <ele>1973</ele>
        <time>2016-04-02T09:18:32Z</time>
      </trkpt>
      <trkpt lat="42.93227" lon="0.06023">
        <ele>1976</ele>
        <time>2016-04-02T09:18:52Z</time>
      </trkpt>
      <trkpt lat="42.93226" lon="0.06025">
        <ele>1983</ele>
        <time>2016-04-02T09:18:55Z</time>
      </trkpt>
      <trkpt lat="42.93214" lon="0.06033">
        <ele>1985</ele>
        <time>2016-04-02T09:19:11Z</time>
      </trkpt>
      <trkpt lat="42.93215" lon="0.06033">
        <ele>1983</ele>
        <time>2016-04-02T09:19:12Z</time>
      </trkpt>
      <trkpt lat="42.93202" lon="0.06034">
        <ele>1986</ele>
        <time>2016-04-02T09:19:31Z</time>
      </trkpt>
      <trkpt lat="42.93201" lon="0.06034">
        <ele>1988</ele>
        <time>2016-04-02T09:19:32Z</time>
      </trkpt>
      <trkpt lat="42.93192" lon="0.06034">
        <ele>1991</ele>
        <time>2016-04-02T09:19:51Z</time>
      </trkpt>
      <trkpt lat="42.93192" lon="0.06034">
        <ele>1999</ele>
        <time>2016-04-02T09:19:52Z</time>
      </trkpt>
      <trkpt lat="42.93179" lon="0.06032">
        <ele>2007</ele>
        <time>2016-04-02T09:20:12Z</time>
      </trkpt>
      <trkpt lat="42.93178" lon="0.06031">
        <ele>2010</ele>
        <time>2016-04-02T09:20:12Z</time>
      </trkpt>
      <trkpt lat="42.93169" lon="0.06028">
        <ele>2013</ele>
        <time>2016-04-02T09:20:31Z</time>
      </trkpt>
      <trkpt lat="42.93169" lon="0.06027">
        <ele>2015</ele>
        <time>2016-04-02T09:20:32Z</time>
      </trkpt>
      <trkpt lat="42.93159" lon="0.06023">
        <ele>2017</ele>
        <time>2016-04-02T09:20:52Z</time>
      </trkpt>
      <trkpt lat="42.93158" lon="0.06024">
        <ele>2019</ele>
        <time>2016-04-02T09:20:53Z</time>
      </trkpt>
      <trkpt lat="42.93145" lon="0.06022">
        <ele>2021</ele>
        <time>2016-04-02T09:21:14Z</time>
      </trkpt>
      <trkpt lat="42.93145" lon="0.06023">
        <ele>2023</ele>
        <time>2016-04-02T09:21:17Z</time>
      </trkpt>
      <trkpt lat="42.93134" lon="0.06023">
        <ele>2024</ele>
        <time>2016-04-02T09:21:35Z</time>
      </trkpt>
      <trkpt lat="42.93133" lon="0.06023">
        <ele>2026</ele>
        <time>2016-04-02T09:21:36Z</time>
      </trkpt>
      <trkpt lat="42.93135" lon="0.0603">
        <ele>2026</ele>
        <time>2016-04-02T09:21:56Z</time>
      </trkpt>
      <trkpt lat="42.93135" lon="0.06031">
        <ele>2026</ele>
        <time>2016-04-02T09:21:57Z</time>
      </trkpt>
      <trkpt lat="42.93136" lon="0.06036">
        <ele>2024</ele>
        <time>2016-04-02T09:22:17Z</time>
      </trkpt>
      <trkpt lat="42.93134" lon="0.06037">
        <ele>2023</ele>
        <time>2016-04-02T09:22:18Z</time>
      </trkpt>
      <trkpt lat="42.93116" lon="0.06039">
        <ele>2024</ele>
        <time>2016-04-02T09:22:35Z</time>
      </trkpt>
      <trkpt lat="42.93105" lon="0.06036">
        <ele>2027</ele>
        <time>2016-04-02T09:22:57Z</time>
      </trkpt>
      <trkpt lat="42.93105" lon="0.06036">
        <ele>2030</ele>
        <time>2016-04-02T09:22:58Z</time>
      </trkpt>
      <trkpt lat="42.93093" lon="0.0603">
        <ele>2035</ele>
        <time>2016-04-02T09:23:17Z</time>
      </trkpt>
      <trkpt lat="42.93093" lon="0.06029">
        <ele>2039</ele>
        <time>2016-04-02T09:23:18Z</time>
      </trkpt>
      <trkpt lat="42.93089" lon="0.06031">
        <ele>2031</ele>
        <time>2016-04-02T09:23:38Z</time>
      </trkpt>
      <trkpt lat="42.9309" lon="0.06041">
        <ele>2024</ele>
        <time>2016-04-02T09:23:47Z</time>
      </trkpt>
      <trkpt lat="42.93084" lon="0.06052">
        <ele>2012</ele>
        <time>2016-04-02T09:24:03Z</time>
      </trkpt>
      <trkpt lat="42.93084" lon="0.06051">
        <ele>2005</ele>
        <time>2016-04-02T09:24:06Z</time>
      </trkpt>
      <trkpt lat="42.93075" lon="0.06045">
        <ele>2005</ele>
        <time>2016-04-02T09:24:21Z</time>
      </trkpt>
      <trkpt lat="42.93074" lon="0.06046">
        <ele>2015</ele>
        <time>2016-04-02T09:24:22Z</time>
      </trkpt>
      <trkpt lat="42.93065" lon="0.06037">
        <ele>2023</ele>
        <time>2016-04-02T09:24:41Z</time>
      </trkpt>
      <trkpt lat="42.93065" lon="0.06035">
        <ele>2036</ele>
        <time>2016-04-02T09:24:42Z</time>
      </trkpt>
      <trkpt lat="42.93059" lon="0.06045">
        <ele>2045</ele>
        <time>2016-04-02T09:25:01Z</time>
      </trkpt>
      <trkpt lat="42.93059" lon="0.06044">
        <ele>2047</ele>
        <time>2016-04-02T09:25:02Z</time>
      </trkpt>
      <trkpt lat="42.93056" lon="0.06051">
        <ele>2049</ele>
        <time>2016-04-02T09:25:19Z</time>
      </trkpt>
      <trkpt lat="42.93057" lon="0.06051">
        <ele>2051</ele>
        <time>2016-04-02T09:25:20Z</time>
      </trkpt>
      <trkpt lat="42.93052" lon="0.06053">
        <ele>2054</ele>
        <time>2016-04-02T09:25:39Z</time>
      </trkpt>
      <trkpt lat="42.93052" lon="0.06052">
        <ele>2056</ele>
        <time>2016-04-02T09:25:40Z</time>
      </trkpt>
      <trkpt lat="42.93043" lon="0.06046">
        <ele>2059</ele>
        <time>2016-04-02T09:25:59Z</time>
      </trkpt>
      <trkpt lat="42.93042" lon="0.06046">
        <ele>2060</ele>
        <time>2016-04-02T09:26:00Z</time>
      </trkpt>
      <trkpt lat="42.93036" lon="0.06034">
        <ele>2062</ele>
        <time>2016-04-02T09:26:18Z</time>
      </trkpt>
      <trkpt lat="42.93036" lon="0.06032">
        <ele>2062</ele>
        <time>2016-04-02T09:26:21Z</time>
      </trkpt>
      <trkpt lat="42.93034" lon="0.06033">
        <ele>2063</ele>
        <time>2016-04-02T09:26:37Z</time>
      </trkpt>
      <trkpt lat="42.93034" lon="0.06034">
        <ele>2064</ele>
        <time>2016-04-02T09:26:38Z</time>
      </trkpt>
      <trkpt lat="42.9303" lon="0.06047">
        <ele>2064</ele>
        <time>2016-04-02T09:26:57Z</time>
      </trkpt>
      <trkpt lat="42.9303" lon="0.06047">
        <ele>2065</ele>
        <time>2016-04-02T09:26:58Z</time>
      </trkpt>
      <trkpt lat="42.93024" lon="0.06042">
        <ele>2065</ele>
        <time>2016-04-02T09:27:16Z</time>
      </trkpt>
      <trkpt lat="42.93024" lon="0.06042">
        <ele>2065</ele>
        <time>2016-04-02T09:27:17Z</time>
      </trkpt>
      <trkpt lat="42.9302" lon="0.06028">
        <ele>2066</ele>
        <time>2016-04-02T09:27:36Z</time>
      </trkpt>
      <trkpt lat="42.9302" lon="0.06027">
        <ele>2067</ele>
        <time>2016-04-02T09:27:37Z</time>
      </trkpt>
      <trkpt lat="42.93018" lon="0.06021">
        <ele>2070</ele>
        <time>2016-04-02T09:27:56Z</time>
      </trkpt>
      <trkpt lat="42.93018" lon="0.0602">
        <ele>2072</ele>
        <time>2016-04-02T09:27:57Z</time>
      </trkpt>
      <trkpt lat="42.93015" lon="0.06019">
        <ele>2075</ele>
        <time>2016-04-02T09:28:18Z</time>
      </trkpt>
      <trkpt lat="42.93015" lon="0.06019">
        <ele>2077</ele>
        <time>2016-04-02T09:28:19Z</time>
      </trkpt>
      <trkpt lat="42.93015" lon="0.06014">
        <ele>2080</ele>
        <time>2016-04-02T09:28:38Z</time>
      </trkpt>
      <trkpt lat="42.93015" lon="0.06014">
        <ele>2082</ele>
        <time>2016-04-02T09:28:39Z</time>
      </trkpt>
      <trkpt lat="42.93013" lon="0.06014">
        <ele>2085</ele>
        <time>2016-04-02T09:28:58Z</time>
      </trkpt>
      <trkpt lat="42.93013" lon="0.06014">
        <ele>2087</ele>
        <time>2016-04-02T09:28:59Z</time>
      </trkpt>
      <trkpt lat="42.9301" lon="0.06006">
        <ele>2090</ele>
        <time>2016-04-02T09:29:20Z</time>
      </trkpt>
      <trkpt lat="42.93009" lon="0.06006">
        <ele>2092</ele>
        <time>2016-04-02T09:29:22Z</time>
      </trkpt>
      <trkpt lat="42.93009" lon="0.06004">
        <ele>2095</ele>
        <time>2016-04-02T09:29:39Z</time>
      </trkpt>
      <trkpt lat="42.93008" lon="0.06003">
        <ele>2096</ele>
        <time>2016-04-02T09:29:40Z</time>
      </trkpt>
      <trkpt lat="42.93" lon="0.06017">
        <ele>2097</ele>
        <time>2016-04-02T09:29:59Z</time>
      </trkpt>
      <trkpt lat="42.92999" lon="0.06018">
        <ele>2098</ele>
        <time>2016-04-02T09:30:00Z</time>
      </trkpt>
      <trkpt lat="42.92996" lon="0.06006">
        <ele>2099</ele>
        <time>2016-04-02T09:30:19Z</time>
      </trkpt>
      <trkpt lat="42.92997" lon="0.06005">
        <ele>2100</ele>
        <time>2016-04-02T09:30:20Z</time>
      </trkpt>
      <trkpt lat="42.92988" lon="0.06006">
        <ele>2101</ele>
        <time>2016-04-02T09:30:39Z</time>
      </trkpt>
      <trkpt lat="42.92987" lon="0.06007">
        <ele>2102</ele>
        <time>2016-04-02T09:30:40Z</time>
      </trkpt>
      <trkpt lat="42.92987" lon="0.06008">
        <ele>2100</ele>
        <time>2016-04-02T09:31:00Z</time>
      </trkpt>
      <trkpt lat="42.92984" lon="0.06012">
        <ele>2096</ele>
        <time>2016-04-02T09:31:03Z</time>
      </trkpt>
      <trkpt lat="42.92985" lon="0.06007">
        <ele>2097</ele>
        <time>2016-04-02T09:31:20Z</time>
      </trkpt>
      <trkpt lat="42.92985" lon="0.06007">
        <ele>2091</ele>
        <time>2016-04-02T09:31:21Z</time>
      </trkpt>
      <trkpt lat="42.92983" lon="0.05995">
        <ele>2092</ele>
        <time>2016-04-02T09:31:40Z</time>
      </trkpt>
      <trkpt lat="42.92983" lon="0.05996">
        <ele>2096</ele>
        <time>2016-04-02T09:31:41Z</time>
      </trkpt>
      <trkpt lat="42.92982" lon="0.06002">
        <ele>2102</ele>
        <time>2016-04-02T09:32:00Z</time>
      </trkpt>
      <trkpt lat="42.92982" lon="0.06002">
        <ele>2102</ele>
        <time>2016-04-02T09:32:02Z</time>
      </trkpt>
      <trkpt lat="42.9298" lon="0.06002">
        <ele>2110</ele>
        <time>2016-04-02T09:32:17Z</time>
      </trkpt>
      <trkpt lat="42.92979" lon="0.06002">
        <ele>2112</ele>
        <time>2016-04-02T09:32:18Z</time>
      </trkpt>
      <trkpt lat="42.92969" lon="0.05995">
        <ele>2114</ele>
        <time>2016-04-02T09:32:38Z</time>
      </trkpt>
      <trkpt lat="42.92968" lon="0.05995">
        <ele>2116</ele>
        <time>2016-04-02T09:32:39Z</time>
      </trkpt>
      <trkpt lat="42.92963" lon="0.05983">
        <ele>2118</ele>
        <time>2016-04-02T09:32:57Z</time>
      </trkpt>
      <trkpt lat="42.92965" lon="0.05982">
        <ele>2119</ele>
        <time>2016-04-02T09:32:58Z</time>
      </trkpt>
      <trkpt lat="42.92959" lon="0.05973">
        <ele>2120</ele>
        <time>2016-04-02T09:33:18Z</time>
      </trkpt>
      <trkpt lat="42.92958" lon="0.05972">
        <ele>2120</ele>
        <time>2016-04-02T09:33:19Z</time>
      </trkpt>
      <trkpt lat="42.92954" lon="0.05966">
        <ele>2121</ele>
        <time>2016-04-02T09:33:37Z</time>
      </trkpt>
      <trkpt lat="42.92954" lon="0.05966">
        <ele>2121</ele>
        <time>2016-04-02T09:33:38Z</time>
      </trkpt>
      <trkpt lat="42.92945" lon="0.05959">
        <ele>2111</ele>
        <time>2016-04-02T09:33:58Z</time>
      </trkpt>
      <trkpt lat="42.92946" lon="0.05959">
        <ele>2102</ele>
        <time>2016-04-02T09:34:00Z</time>
      </trkpt>
      <trkpt lat="42.92945" lon="0.0596">
        <ele>2100</ele>
        <time>2016-04-02T09:34:17Z</time>
      </trkpt>
      <trkpt lat="42.92944" lon="0.0596">
        <ele>2097</ele>
        <time>2016-04-02T09:34:18Z</time>
      </trkpt>
      <trkpt lat="42.92935" lon="0.05955">
        <ele>2097</ele>
        <time>2016-04-02T09:34:37Z</time>
      </trkpt>
      <trkpt lat="42.92934" lon="0.05955">
        <ele>2108</ele>
        <time>2016-04-02T09:34:38Z</time>
      </trkpt>
      <trkpt lat="42.92923" lon="0.0595">
        <ele>2118</ele>
        <time>2016-04-02T09:34:56Z</time>
      </trkpt>
      <trkpt lat="42.92922" lon="0.05951">
        <ele>2121</ele>
        <time>2016-04-02T09:34:57Z</time>
      </trkpt>
      <trkpt lat="42.92906" lon="0.05952">
        <ele>2125</ele>
        <time>2016-04-02T09:35:16Z</time>
      </trkpt>
      <trkpt lat="42.92905" lon="0.0595">
        <ele>2126</ele>
        <time>2016-04-02T09:35:17Z</time>
      </trkpt>
      <trkpt lat="42.92895" lon="0.05946">
        <ele>2128</ele>
        <time>2016-04-02T09:35:35Z</time>
      </trkpt>
      <trkpt lat="42.92895" lon="0.05947">
        <ele>2129</ele>
        <time>2016-04-02T09:35:36Z</time>
      </trkpt>
      <trkpt lat="42.92895" lon="0.05949">
        <ele>2131</ele>
        <time>2016-04-02T09:35:55Z</time>
      </trkpt>
      <trkpt lat="42.92895" lon="0.05949">
        <ele>2131</ele>
        <time>2016-04-02T09:35:56Z</time>
      </trkpt>
      <trkpt lat="42.92896" lon="0.05948">
        <ele>2132</ele>
        <time>2016-04-02T09:36:15Z</time>
      </trkpt>
      <trkpt lat="42.92896" lon="0.05948">
        <ele>2133</ele>
        <time>2016-04-02T09:36:15Z</time>
      </trkpt>
      <trkpt lat="42.92897" lon="0.05951">
        <ele>2134</ele>
        <time>2016-04-02T09:36:45Z</time>
      </trkpt>
      <trkpt lat="42.92897" lon="0.05952">
        <ele>2134</ele>
        <time>2016-04-02T09:36:47Z</time>
      </trkpt>
      <trkpt lat="42.92895" lon="0.05951">
        <ele>2134</ele>
        <time>2016-04-02T09:37:15Z</time>
      </trkpt>
      <trkpt lat="42.92895" lon="0.05951">
        <ele>2134</ele>
        <time>2016-04-02T09:37:16Z</time>
      </trkpt>
      <trkpt lat="42.92895" lon="0.05951">
        <ele>2134</ele>
        <time>2016-04-02T09:37:32Z</time>
      </trkpt>
      <trkpt lat="42.92895" lon="0.05951">
        <ele>2134</ele>
        <time>2016-04-02T09:37:33Z</time>
      </trkpt>
      <trkpt lat="42.92895" lon="0.05951">
        <ele>2134</ele>
        <time>2016-04-02T09:37:50Z</time>
      </trkpt>
      <trkpt lat="42.92895" lon="0.05951">
        <ele>2134</ele>
        <time>2016-04-02T09:37:50Z</time>
      </trkpt>
      <trkpt lat="42.92893" lon="0.05951">
        <ele>2133</ele>
        <time>2016-04-02T09:38:20Z</time>
      </trkpt>
      <trkpt lat="42.92894" lon="0.05952">
        <ele>2133</ele>
        <time>2016-04-02T09:38:20Z</time>
      </trkpt>
      <trkpt lat="42.92871" lon="0.06005">
        <ele>2149</ele>
        <time>2016-04-02T09:42:11Z</time>
      </trkpt>
      <trkpt lat="42.92865" lon="0.06014">
        <ele>2151</ele>
        <time>2016-04-02T09:42:30Z</time>
      </trkpt>
      <trkpt lat="42.92865" lon="0.06015">
        <ele>2152</ele>
        <time>2016-04-02T09:42:31Z</time>
      </trkpt>
      <trkpt lat="42.92857" lon="0.06023">
        <ele>2154</ele>
        <time>2016-04-02T09:42:49Z</time>
      </trkpt>
      <trkpt lat="42.92857" lon="0.06024">
        <ele>2156</ele>
        <time>2016-04-02T09:42:50Z</time>
      </trkpt>
      <trkpt lat="42.92851" lon="0.06031">
        <ele>2158</ele>
        <time>2016-04-02T09:43:08Z</time>
      </trkpt>
      <trkpt lat="42.92852" lon="0.06031">
        <ele>2160</ele>
        <time>2016-04-02T09:43:09Z</time>
      </trkpt>
      <trkpt lat="42.92847" lon="0.06043">
        <ele>2162</ele>
        <time>2016-04-02T09:43:28Z</time>
      </trkpt>
      <trkpt lat="42.92847" lon="0.06043">
        <ele>2163</ele>
        <time>2016-04-02T09:43:29Z</time>
      </trkpt>
      <trkpt lat="42.92844" lon="0.06055">
        <ele>2166</ele>
        <time>2016-04-02T09:43:48Z</time>
      </trkpt>
      <trkpt lat="42.92843" lon="0.06056">
        <ele>2168</ele>
        <time>2016-04-02T09:43:49Z</time>
      </trkpt>
      <trkpt lat="42.92835" lon="0.06068">
        <ele>2171</ele>
        <time>2016-04-02T09:44:08Z</time>
      </trkpt>
      <trkpt lat="42.92836" lon="0.06069">
        <ele>2173</ele>
        <time>2016-04-02T09:44:09Z</time>
      </trkpt>
      <trkpt lat="42.92827" lon="0.06076">
        <ele>2175</ele>
        <time>2016-04-02T09:44:27Z</time>
      </trkpt>
      <trkpt lat="42.92825" lon="0.06076">
        <ele>2177</ele>
        <time>2016-04-02T09:44:28Z</time>
      </trkpt>
      <trkpt lat="42.9281" lon="0.06079">
        <ele>2178</ele>
        <time>2016-04-02T09:44:46Z</time>
      </trkpt>
      <trkpt lat="42.92809" lon="0.0608">
        <ele>2178</ele>
        <time>2016-04-02T09:44:47Z</time>
      </trkpt>
      <trkpt lat="42.92801" lon="0.06088">
        <ele>2179</ele>
        <time>2016-04-02T09:45:05Z</time>
      </trkpt>
      <trkpt lat="42.92799" lon="0.06089">
        <ele>2180</ele>
        <time>2016-04-02T09:45:06Z</time>
      </trkpt>
      <trkpt lat="42.92794" lon="0.06102">
        <ele>2180</ele>
        <time>2016-04-02T09:45:24Z</time>
      </trkpt>
      <trkpt lat="42.92794" lon="0.06103">
        <ele>2181</ele>
        <time>2016-04-02T09:45:25Z</time>
      </trkpt>
      <trkpt lat="42.92766" lon="0.06168">
        <ele>2183</ele>
        <time>2016-04-02T09:47:00Z</time>
      </trkpt>
      <trkpt lat="42.92755" lon="0.06177">
        <ele>2186</ele>
        <time>2016-04-02T09:47:19Z</time>
      </trkpt>
      <trkpt lat="42.92754" lon="0.06178">
        <ele>2189</ele>
        <time>2016-04-02T09:47:20Z</time>
      </trkpt>
      <trkpt lat="42.92748" lon="0.06184">
        <ele>2193</ele>
        <time>2016-04-02T09:47:38Z</time>
      </trkpt>
      <trkpt lat="42.92747" lon="0.06185">
        <ele>2197</ele>
        <time>2016-04-02T09:47:39Z</time>
      </trkpt>
      <trkpt lat="42.92745" lon="0.06197">
        <ele>2198</ele>
        <time>2016-04-02T09:47:58Z</time>
      </trkpt>
      <trkpt lat="42.92744" lon="0.06198">
        <ele>2199</ele>
        <time>2016-04-02T09:47:59Z</time>
      </trkpt>
      <trkpt lat="42.92738" lon="0.06206">
        <ele>2200</ele>
        <time>2016-04-02T09:48:18Z</time>
      </trkpt>
      <trkpt lat="42.92738" lon="0.06206">
        <ele>2201</ele>
        <time>2016-04-02T09:48:19Z</time>
      </trkpt>
      <trkpt lat="42.92736" lon="0.06218">
        <ele>2203</ele>
        <time>2016-04-02T09:48:37Z</time>
      </trkpt>
      <trkpt lat="42.92736" lon="0.06218">
        <ele>2205</ele>
        <time>2016-04-02T09:48:38Z</time>
      </trkpt>
      <trkpt lat="42.9273" lon="0.06228">
        <ele>2208</ele>
        <time>2016-04-02T09:48:57Z</time>
      </trkpt>
      <trkpt lat="42.92729" lon="0.06228">
        <ele>2209</ele>
        <time>2016-04-02T09:48:58Z</time>
      </trkpt>
      <trkpt lat="42.92724" lon="0.06237">
        <ele>2212</ele>
        <time>2016-04-02T09:49:16Z</time>
      </trkpt>
      <trkpt lat="42.92725" lon="0.06237">
        <ele>2213</ele>
        <time>2016-04-02T09:49:17Z</time>
      </trkpt>
      <trkpt lat="42.92719" lon="0.06248">
        <ele>2216</ele>
        <time>2016-04-02T09:49:36Z</time>
      </trkpt>
      <trkpt lat="42.92719" lon="0.06249">
        <ele>2218</ele>
        <time>2016-04-02T09:49:37Z</time>
      </trkpt>
      <trkpt lat="42.92712" lon="0.06265">
        <ele>2220</ele>
        <time>2016-04-02T09:49:56Z</time>
      </trkpt>
      <trkpt lat="42.92712" lon="0.06266">
        <ele>2221</ele>
        <time>2016-04-02T09:49:57Z</time>
      </trkpt>
      <trkpt lat="42.92709" lon="0.06278">
        <ele>2221</ele>
        <time>2016-04-02T09:50:15Z</time>
      </trkpt>
      <trkpt lat="42.92709" lon="0.06279">
        <ele>2221</ele>
        <time>2016-04-02T09:50:16Z</time>
      </trkpt>
      <trkpt lat="42.92703" lon="0.06293">
        <ele>2221</ele>
        <time>2016-04-02T09:50:35Z</time>
      </trkpt>
      <trkpt lat="42.92703" lon="0.06294">
        <ele>2221</ele>
        <time>2016-04-02T09:50:36Z</time>
      </trkpt>
      <trkpt lat="42.92698" lon="0.06304">
        <ele>2222</ele>
        <time>2016-04-02T09:50:56Z</time>
      </trkpt>
      <trkpt lat="42.92698" lon="0.06306">
        <ele>2224</ele>
        <time>2016-04-02T09:50:57Z</time>
      </trkpt>
      <trkpt lat="42.92703" lon="0.0632">
        <ele>2224</ele>
        <time>2016-04-02T09:51:16Z</time>
      </trkpt>
      <trkpt lat="42.92705" lon="0.06322">
        <ele>2225</ele>
        <time>2016-04-02T09:51:18Z</time>
      </trkpt>
      <trkpt lat="42.92697" lon="0.06332">
        <ele>2226</ele>
        <time>2016-04-02T09:51:35Z</time>
      </trkpt>
      <trkpt lat="42.92698" lon="0.06332">
        <ele>2225</ele>
        <time>2016-04-02T09:51:36Z</time>
      </trkpt>
      <trkpt lat="42.92701" lon="0.06333">
        <ele>2227</ele>
        <time>2016-04-02T09:51:55Z</time>
      </trkpt>
      <trkpt lat="42.92705" lon="0.06332">
        <ele>2231</ele>
        <time>2016-04-02T09:51:56Z</time>
      </trkpt>
      <trkpt lat="42.92708" lon="0.06339">
        <ele>2233</ele>
        <time>2016-04-02T09:52:15Z</time>
      </trkpt>
      <trkpt lat="42.92708" lon="0.06339">
        <ele>2235</ele>
        <time>2016-04-02T09:52:16Z</time>
      </trkpt>
      <trkpt lat="42.9271" lon="0.06347">
        <ele>2236</ele>
        <time>2016-04-02T09:52:34Z</time>
      </trkpt>
      <trkpt lat="42.92711" lon="0.06348">
        <ele>2235</ele>
        <time>2016-04-02T09:52:35Z</time>
      </trkpt>
      <trkpt lat="42.92717" lon="0.06346">
        <ele>2232</ele>
        <time>2016-04-02T09:52:54Z</time>
      </trkpt>
      <trkpt lat="42.92716" lon="0.06347">
        <ele>2230</ele>
        <time>2016-04-02T09:52:55Z</time>
      </trkpt>
      <trkpt lat="42.92718" lon="0.06352">
        <ele>2230</ele>
        <time>2016-04-02T09:53:14Z</time>
      </trkpt>
      <trkpt lat="42.92718" lon="0.06352">
        <ele>2230</ele>
        <time>2016-04-02T09:53:15Z</time>
      </trkpt>
      <trkpt lat="42.92713" lon="0.0636">
        <ele>2232</ele>
        <time>2016-04-02T09:53:33Z</time>
      </trkpt>
      <trkpt lat="42.92713" lon="0.0636">
        <ele>2233</ele>
        <time>2016-04-02T09:53:34Z</time>
      </trkpt>
      <trkpt lat="42.92712" lon="0.06367">
        <ele>2236</ele>
        <time>2016-04-02T09:53:52Z</time>
      </trkpt>
      <trkpt lat="42.92712" lon="0.06367">
        <ele>2238</ele>
        <time>2016-04-02T09:53:53Z</time>
      </trkpt>
      <trkpt lat="42.92714" lon="0.06374">
        <ele>2240</ele>
        <time>2016-04-02T09:54:11Z</time>
      </trkpt>
      <trkpt lat="42.92714" lon="0.06373">
        <ele>2241</ele>
        <time>2016-04-02T09:54:12Z</time>
      </trkpt>
      <trkpt lat="42.92716" lon="0.06371">
        <ele>2242</ele>
        <time>2016-04-02T09:54:30Z</time>
      </trkpt>
      <trkpt lat="42.92716" lon="0.06371">
        <ele>2242</ele>
        <time>2016-04-02T09:54:31Z</time>
      </trkpt>
      <trkpt lat="42.92722" lon="0.06371">
        <ele>2244</ele>
        <time>2016-04-02T09:54:50Z</time>
      </trkpt>
      <trkpt lat="42.92727" lon="0.06372">
        <ele>2247</ele>
        <time>2016-04-02T09:54:52Z</time>
      </trkpt>
      <trkpt lat="42.92728" lon="0.06378">
        <ele>2250</ele>
        <time>2016-04-02T09:55:09Z</time>
      </trkpt>
      <trkpt lat="42.92728" lon="0.06377">
        <ele>2253</ele>
        <time>2016-04-02T09:55:10Z</time>
      </trkpt>
      <trkpt lat="42.92727" lon="0.0638">
        <ele>2254</ele>
        <time>2016-04-02T09:55:28Z</time>
      </trkpt>
      <trkpt lat="42.92727" lon="0.0638">
        <ele>2254</ele>
        <time>2016-04-02T09:55:29Z</time>
      </trkpt>
      <trkpt lat="42.92723" lon="0.06389">
        <ele>2255</ele>
        <time>2016-04-02T09:55:47Z</time>
      </trkpt>
      <trkpt lat="42.92723" lon="0.0639">
        <ele>2255</ele>
        <time>2016-04-02T09:55:48Z</time>
      </trkpt>
      <trkpt lat="42.92723" lon="0.06391">
        <ele>2249</ele>
        <time>2016-04-02T09:56:07Z</time>
      </trkpt>
      <trkpt lat="42.92722" lon="0.06391">
        <ele>2237</ele>
        <time>2016-04-02T09:56:08Z</time>
      </trkpt>
      <trkpt lat="42.9272" lon="0.06396">
        <ele>2236</ele>
        <time>2016-04-02T09:56:25Z</time>
      </trkpt>
      <trkpt lat="42.92722" lon="0.06396">
        <ele>2234</ele>
        <time>2016-04-02T09:56:26Z</time>
      </trkpt>
      <trkpt lat="42.9273" lon="0.06398">
        <ele>2235</ele>
        <time>2016-04-02T09:56:44Z</time>
      </trkpt>
      <trkpt lat="42.9273" lon="0.06398">
        <ele>2242</ele>
        <time>2016-04-02T09:56:45Z</time>
      </trkpt>
      <trkpt lat="42.92729" lon="0.06398">
        <ele>2257</ele>
        <time>2016-04-02T09:57:03Z</time>
      </trkpt>
      <trkpt lat="42.9273" lon="0.06399">
        <ele>2259</ele>
        <time>2016-04-02T09:57:04Z</time>
      </trkpt>
      <trkpt lat="42.92728" lon="0.06402">
        <ele>2263</ele>
        <time>2016-04-02T09:57:22Z</time>
      </trkpt>
      <trkpt lat="42.92728" lon="0.06402">
        <ele>2264</ele>
        <time>2016-04-02T09:57:23Z</time>
      </trkpt>
      <trkpt lat="42.92724" lon="0.06409">
        <ele>2265</ele>
        <time>2016-04-02T09:57:41Z</time>
      </trkpt>
      <trkpt lat="42.92724" lon="0.06409">
        <ele>2266</ele>
        <time>2016-04-02T09:57:42Z</time>
      </trkpt>
      <trkpt lat="42.92724" lon="0.06416">
        <ele>2270</ele>
        <time>2016-04-02T09:58:01Z</time>
      </trkpt>
      <trkpt lat="42.92724" lon="0.06415">
        <ele>2273</ele>
        <time>2016-04-02T09:58:02Z</time>
      </trkpt>
      <trkpt lat="42.92716" lon="0.06415">
        <ele>2275</ele>
        <time>2016-04-02T09:58:20Z</time>
      </trkpt>
      <trkpt lat="42.92713" lon="0.06417">
        <ele>2276</ele>
        <time>2016-04-02T09:58:23Z</time>
      </trkpt>
      <trkpt lat="42.92714" lon="0.06424">
        <ele>2279</ele>
        <time>2016-04-02T09:58:40Z</time>
      </trkpt>
      <trkpt lat="42.92712" lon="0.06424">
        <ele>2280</ele>
        <time>2016-04-02T09:58:42Z</time>
      </trkpt>
      <trkpt lat="42.92714" lon="0.06423">
        <ele>2282</ele>
        <time>2016-04-02T09:58:58Z</time>
      </trkpt>
      <trkpt lat="42.92714" lon="0.06423">
        <ele>2285</ele>
        <time>2016-04-02T09:59:00Z</time>
      </trkpt>
      <trkpt lat="42.92714" lon="0.06423">
        <ele>2288</ele>
        <time>2016-04-02T09:59:20Z</time>
      </trkpt>
      <trkpt lat="42.92714" lon="0.06423">
        <ele>2289</ele>
        <time>2016-04-02T09:59:21Z</time>
      </trkpt>
      <trkpt lat="42.92709" lon="0.06426">
        <ele>2289</ele>
        <time>2016-04-02T09:59:40Z</time>
      </trkpt>
      <trkpt lat="42.9271" lon="0.06427">
        <ele>2288</ele>
        <time>2016-04-02T09:59:41Z</time>
      </trkpt>
      <trkpt lat="42.9271" lon="0.06428">
        <ele>2287</ele>
        <time>2016-04-02T10:00:00Z</time>
      </trkpt>
      <trkpt lat="42.9271" lon="0.06428">
        <ele>2286</ele>
        <time>2016-04-02T10:00:01Z</time>
      </trkpt>
      <trkpt lat="42.9271" lon="0.06428">
        <ele>2286</ele>
        <time>2016-04-02T10:00:19Z</time>
      </trkpt>
      <trkpt lat="42.9271" lon="0.06428">
        <ele>2285</ele>
        <time>2016-04-02T10:00:20Z</time>
      </trkpt>
      <trkpt lat="42.92706" lon="0.0643">
        <ele>2286</ele>
        <time>2016-04-02T10:00:39Z</time>
      </trkpt>
      <trkpt lat="42.92706" lon="0.0643">
        <ele>2286</ele>
        <time>2016-04-02T10:00:40Z</time>
      </trkpt>
      <trkpt lat="42.92699" lon="0.06432">
        <ele>2283</ele>
        <time>2016-04-02T10:00:59Z</time>
      </trkpt>
      <trkpt lat="42.92699" lon="0.06432">
        <ele>2281</ele>
        <time>2016-04-02T10:01:00Z</time>
      </trkpt>
      <trkpt lat="42.92699" lon="0.06432">
        <ele>2279</ele>
        <time>2016-04-02T10:01:19Z</time>
      </trkpt>
      <trkpt lat="42.92699" lon="0.06432">
        <ele>2276</ele>
        <time>2016-04-02T10:01:20Z</time>
      </trkpt>
      <trkpt lat="42.92698" lon="0.06434">
        <ele>2272</ele>
        <time>2016-04-02T10:01:39Z</time>
      </trkpt>
      <trkpt lat="42.92699" lon="0.06436">
        <ele>2272</ele>
        <time>2016-04-02T10:01:42Z</time>
      </trkpt>
      <trkpt lat="42.92709" lon="0.06436">
        <ele>2273</ele>
        <time>2016-04-02T10:01:57Z</time>
      </trkpt>
      <trkpt lat="42.92709" lon="0.06436">
        <ele>2275</ele>
        <time>2016-04-02T10:01:58Z</time>
      </trkpt>
      <trkpt lat="42.92717" lon="0.06437">
        <ele>2277</ele>
        <time>2016-04-02T10:02:16Z</time>
      </trkpt>
      <trkpt lat="42.92717" lon="0.06436">
        <ele>2278</ele>
        <time>2016-04-02T10:02:17Z</time>
      </trkpt>
      <trkpt lat="42.92736" lon="0.0644">
        <ele>2283</ele>
        <time>2016-04-02T10:02:34Z</time>
      </trkpt>
      <trkpt lat="42.92748" lon="0.0644">
        <ele>2284</ele>
        <time>2016-04-02T10:02:55Z</time>
      </trkpt>
      <trkpt lat="42.92749" lon="0.0644">
        <ele>2286</ele>
        <time>2016-04-02T10:02:56Z</time>
      </trkpt>
      <trkpt lat="42.92749" lon="0.06443">
        <ele>2286</ele>
        <time>2016-04-02T10:03:14Z</time>
      </trkpt>
      <trkpt lat="42.92751" lon="0.06444">
        <ele>2287</ele>
        <time>2016-04-02T10:03:15Z</time>
      </trkpt>
      <trkpt lat="42.92744" lon="0.06446">
        <ele>2285</ele>
        <time>2016-04-02T10:03:34Z</time>
      </trkpt>
      <trkpt lat="42.92744" lon="0.06446">
        <ele>2283</ele>
        <time>2016-04-02T10:03:35Z</time>
      </trkpt>
      <trkpt lat="42.92734" lon="0.06454">
        <ele>2281</ele>
        <time>2016-04-02T10:03:54Z</time>
      </trkpt>
      <trkpt lat="42.92734" lon="0.06454">
        <ele>2280</ele>
        <time>2016-04-02T10:03:55Z</time>
      </trkpt>
      <trkpt lat="42.92737" lon="0.06464">
        <ele>2282</ele>
        <time>2016-04-02T10:04:15Z</time>
      </trkpt>
      <trkpt lat="42.92737" lon="0.06465">
        <ele>2285</ele>
        <time>2016-04-02T10:04:16Z</time>
      </trkpt>
      <trkpt lat="42.92736" lon="0.0647">
        <ele>2287</ele>
        <time>2016-04-02T10:04:35Z</time>
      </trkpt>
      <trkpt lat="42.92735" lon="0.06471">
        <ele>2289</ele>
        <time>2016-04-02T10:04:36Z</time>
      </trkpt>
      <trkpt lat="42.92733" lon="0.06484">
        <ele>2291</ele>
        <time>2016-04-02T10:04:55Z</time>
      </trkpt>
      <trkpt lat="42.92734" lon="0.06484">
        <ele>2290</ele>
        <time>2016-04-02T10:04:56Z</time>
      </trkpt>
      <trkpt lat="42.92732" lon="0.06488">
        <ele>2289</ele>
        <time>2016-04-02T10:05:15Z</time>
      </trkpt>
      <trkpt lat="42.92732" lon="0.06488">
        <ele>2288</ele>
        <time>2016-04-02T10:05:16Z</time>
      </trkpt>
      <trkpt lat="42.9273" lon="0.065">
        <ele>2290</ele>
        <time>2016-04-02T10:05:34Z</time>
      </trkpt>
      <trkpt lat="42.92732" lon="0.06499">
        <ele>2293</ele>
        <time>2016-04-02T10:05:35Z</time>
      </trkpt>
      <trkpt lat="42.9273" lon="0.06509">
        <ele>2296</ele>
        <time>2016-04-02T10:05:54Z</time>
      </trkpt>
      <trkpt lat="42.9273" lon="0.0651">
        <ele>2300</ele>
        <time>2016-04-02T10:05:55Z</time>
      </trkpt>
      <trkpt lat="42.92731" lon="0.06524">
        <ele>2305</ele>
        <time>2016-04-02T10:06:13Z</time>
      </trkpt>
      <trkpt lat="42.9273" lon="0.06525">
        <ele>2308</ele>
        <time>2016-04-02T10:06:14Z</time>
      </trkpt>
      <trkpt lat="42.92733" lon="0.06524">
        <ele>2311</ele>
        <time>2016-04-02T10:06:33Z</time>
      </trkpt>
      <trkpt lat="42.92733" lon="0.06524">
        <ele>2312</ele>
        <time>2016-04-02T10:06:34Z</time>
      </trkpt>
      <trkpt lat="42.92732" lon="0.06539">
        <ele>2314</ele>
        <time>2016-04-02T10:06:53Z</time>
      </trkpt>
      <trkpt lat="42.92732" lon="0.06539">
        <ele>2315</ele>
        <time>2016-04-02T10:06:54Z</time>
      </trkpt>
      <trkpt lat="42.9273" lon="0.06551">
        <ele>2316</ele>
        <time>2016-04-02T10:07:12Z</time>
      </trkpt>
      <trkpt lat="42.9273" lon="0.06552">
        <ele>2318</ele>
        <time>2016-04-02T10:07:13Z</time>
      </trkpt>
      <trkpt lat="42.92728" lon="0.06563">
        <ele>2320</ele>
        <time>2016-04-02T10:07:31Z</time>
      </trkpt>
      <trkpt lat="42.92729" lon="0.06563">
        <ele>2322</ele>
        <time>2016-04-02T10:07:33Z</time>
      </trkpt>
      <trkpt lat="42.9273" lon="0.06562">
        <ele>2323</ele>
        <time>2016-04-02T10:07:49Z</time>
      </trkpt>
      <trkpt lat="42.9273" lon="0.06562">
        <ele>2323</ele>
        <time>2016-04-02T10:07:50Z</time>
      </trkpt>
      <trkpt lat="42.92733" lon="0.06564">
        <ele>2324</ele>
        <time>2016-04-02T10:08:10Z</time>
      </trkpt>
      <trkpt lat="42.92733" lon="0.06564">
        <ele>2324</ele>
        <time>2016-04-02T10:08:11Z</time>
      </trkpt>
      <trkpt lat="42.92731" lon="0.06566">
        <ele>2324</ele>
        <time>2016-04-02T10:08:29Z</time>
      </trkpt>
      <trkpt lat="42.92731" lon="0.06566">
        <ele>2324</ele>
        <time>2016-04-02T10:08:30Z</time>
      </trkpt>
      <trkpt lat="42.92731" lon="0.06566">
        <ele>2323</ele>
        <time>2016-04-02T10:08:50Z</time>
      </trkpt>
      <trkpt lat="42.92731" lon="0.06566">
        <ele>2323</ele>
        <time>2016-04-02T10:08:54Z</time>
      </trkpt>
      <trkpt lat="42.92744" lon="0.06566">
        <ele>2324</ele>
        <time>2016-04-02T10:09:09Z</time>
      </trkpt>
      <trkpt lat="42.92745" lon="0.06566">
        <ele>2325</ele>
        <time>2016-04-02T10:09:11Z</time>
      </trkpt>
      <trkpt lat="42.92758" lon="0.06568">
        <ele>2328</ele>
        <time>2016-04-02T10:09:28Z</time>
      </trkpt>
      <trkpt lat="42.92758" lon="0.06568">
        <ele>2331</ele>
        <time>2016-04-02T10:09:31Z</time>
      </trkpt>
      <trkpt lat="42.92787" lon="0.06636">
        <ele>2304</ele>
        <time>2016-04-02T10:20:16Z</time>
      </trkpt>
      <trkpt lat="42.928" lon="0.06657">
        <ele>2302</ele>
        <time>2016-04-02T10:20:19Z</time>
      </trkpt>
      <trkpt lat="42.92819" lon="0.06672">
        <ele>2299</ele>
        <time>2016-04-02T10:20:23Z</time>
      </trkpt>
      <trkpt lat="42.92825" lon="0.067">
        <ele>2296</ele>
        <time>2016-04-02T10:20:27Z</time>
      </trkpt>
      <trkpt lat="42.92828" lon="0.06726">
        <ele>2296</ele>
        <time>2016-04-02T10:20:47Z</time>
      </trkpt>
      <trkpt lat="42.92836" lon="0.06748">
        <ele>2295</ele>
        <time>2016-04-02T10:20:51Z</time>
      </trkpt>
      <trkpt lat="42.9285" lon="0.0677">
        <ele>2293</ele>
        <time>2016-04-02T10:20:54Z</time>
      </trkpt>
      <trkpt lat="42.92864" lon="0.06796">
        <ele>2289</ele>
        <time>2016-04-02T10:20:57Z</time>
      </trkpt>
      <trkpt lat="42.92878" lon="0.06813">
        <ele>2284</ele>
        <time>2016-04-02T10:20:59Z</time>
      </trkpt>
      <trkpt lat="42.92885" lon="0.06838">
        <ele>2279</ele>
        <time>2016-04-02T10:21:02Z</time>
      </trkpt>
      <trkpt lat="42.92896" lon="0.06865">
        <ele>2274</ele>
        <time>2016-04-02T10:21:05Z</time>
      </trkpt>
      <trkpt lat="42.92925" lon="0.0688">
        <ele>2266</ele>
        <time>2016-04-02T10:21:17Z</time>
      </trkpt>
      <trkpt lat="42.92941" lon="0.06894">
        <ele>2260</ele>
        <time>2016-04-02T10:21:19Z</time>
      </trkpt>
      <trkpt lat="42.92957" lon="0.0691">
        <ele>2255</ele>
        <time>2016-04-02T10:21:21Z</time>
      </trkpt>
      <trkpt lat="42.92968" lon="0.06931">
        <ele>2247</ele>
        <time>2016-04-02T10:21:24Z</time>
      </trkpt>
      <trkpt lat="42.92987" lon="0.06946">
        <ele>2240</ele>
        <time>2016-04-02T10:21:27Z</time>
      </trkpt>
      <trkpt lat="42.93011" lon="0.06952">
        <ele>2237</ele>
        <time>2016-04-02T10:21:30Z</time>
      </trkpt>
      <trkpt lat="42.93015" lon="0.06954">
        <ele>2234</ele>
        <time>2016-04-02T10:21:51Z</time>
      </trkpt>
      <trkpt lat="42.93015" lon="0.06954">
        <ele>2232</ele>
        <time>2016-04-02T10:21:52Z</time>
      </trkpt>
      <trkpt lat="42.93015" lon="0.06953">
        <ele>2232</ele>
        <time>2016-04-02T10:22:10Z</time>
      </trkpt>
      <trkpt lat="42.93015" lon="0.06953">
        <ele>2232</ele>
        <time>2016-04-02T10:22:13Z</time>
      </trkpt>
      <trkpt lat="42.93016" lon="0.06952">
        <ele>2235</ele>
        <time>2016-04-02T10:22:30Z</time>
      </trkpt>
      <trkpt lat="42.93016" lon="0.06953">
        <ele>2236</ele>
        <time>2016-04-02T10:22:31Z</time>
      </trkpt>
      <trkpt lat="42.93015" lon="0.06954">
        <ele>2237</ele>
        <time>2016-04-02T10:22:50Z</time>
      </trkpt>
      <trkpt lat="42.93015" lon="0.06954">
        <ele>2238</ele>
        <time>2016-04-02T10:22:53Z</time>
      </trkpt>
      <trkpt lat="42.9301" lon="0.06954">
        <ele>2239</ele>
        <time>2016-04-02T10:23:08Z</time>
      </trkpt>
      <trkpt lat="42.9301" lon="0.06954">
        <ele>2238</ele>
        <time>2016-04-02T10:23:09Z</time>
      </trkpt>
      <trkpt lat="42.93011" lon="0.06954">
        <ele>2237</ele>
        <time>2016-04-02T10:23:28Z</time>
      </trkpt>
      <trkpt lat="42.93011" lon="0.06954">
        <ele>2237</ele>
        <time>2016-04-02T10:23:29Z</time>
      </trkpt>
      <trkpt lat="42.93011" lon="0.06954">
        <ele>2237</ele>
        <time>2016-04-02T10:23:48Z</time>
      </trkpt>
      <trkpt lat="42.93011" lon="0.06954">
        <ele>2237</ele>
        <time>2016-04-02T10:23:51Z</time>
      </trkpt>
      <trkpt lat="42.93011" lon="0.06954">
        <ele>2237</ele>
        <time>2016-04-02T10:24:07Z</time>
      </trkpt>
      <trkpt lat="42.93011" lon="0.06955">
        <ele>2237</ele>
        <time>2016-04-02T10:24:08Z</time>
      </trkpt>
      <trkpt lat="42.93025" lon="0.06973">
        <ele>2235</ele>
        <time>2016-04-02T10:24:16Z</time>
      </trkpt>
      <trkpt lat="42.93039" lon="0.06997">
        <ele>2231</ele>
        <time>2016-04-02T10:24:20Z</time>
      </trkpt>
      <trkpt lat="42.93049" lon="0.07021">
        <ele>2227</ele>
        <time>2016-04-02T10:24:23Z</time>
      </trkpt>
      <trkpt lat="42.93057" lon="0.07049">
        <ele>2222</ele>
        <time>2016-04-02T10:24:26Z</time>
      </trkpt>
      <trkpt lat="42.93072" lon="0.07069">
        <ele>2218</ele>
        <time>2016-04-02T10:24:29Z</time>
      </trkpt>
      <trkpt lat="42.9309" lon="0.07086">
        <ele>2215</ele>
        <time>2016-04-02T10:24:32Z</time>
      </trkpt>
      <trkpt lat="42.93105" lon="0.07116">
        <ele>2212</ele>
        <time>2016-04-02T10:24:36Z</time>
      </trkpt>
      <trkpt lat="42.93121" lon="0.0714">
        <ele>2207</ele>
        <time>2016-04-02T10:24:39Z</time>
      </trkpt>
      <trkpt lat="42.93143" lon="0.07153">
        <ele>2202</ele>
        <time>2016-04-02T10:24:41Z</time>
      </trkpt>
      <trkpt lat="42.93147" lon="0.07188">
        <ele>2193</ele>
        <time>2016-04-02T10:24:45Z</time>
      </trkpt>
      <trkpt lat="42.93155" lon="0.07216">
        <ele>2189</ele>
        <time>2016-04-02T10:24:48Z</time>
      </trkpt>
      <trkpt lat="42.9314" lon="0.0724">
        <ele>2186</ele>
        <time>2016-04-02T10:24:51Z</time>
      </trkpt>
      <trkpt lat="42.93139" lon="0.07265">
        <ele>2182</ele>
        <time>2016-04-02T10:24:54Z</time>
      </trkpt>
      <trkpt lat="42.93134" lon="0.0729">
        <ele>2175</ele>
        <time>2016-04-02T10:24:57Z</time>
      </trkpt>
      <trkpt lat="42.93145" lon="0.07315">
        <ele>2175</ele>
        <time>2016-04-02T10:25:00Z</time>
      </trkpt>
      <trkpt lat="42.93141" lon="0.07342">
        <ele>2168</ele>
        <time>2016-04-02T10:25:02Z</time>
      </trkpt>
      <trkpt lat="42.93128" lon="0.0736">
        <ele>2158</ele>
        <time>2016-04-02T10:25:17Z</time>
      </trkpt>
      <trkpt lat="42.93129" lon="0.07359">
        <ele>2149</ele>
        <time>2016-04-02T10:25:43Z</time>
      </trkpt>
      <trkpt lat="42.93129" lon="0.07359">
        <ele>2143</ele>
        <time>2016-04-02T10:25:44Z</time>
      </trkpt>
      <trkpt lat="42.93129" lon="0.07359">
        <ele>2133</ele>
        <time>2016-04-02T10:26:02Z</time>
      </trkpt>
      <trkpt lat="42.93129" lon="0.07359">
        <ele>2125</ele>
        <time>2016-04-02T10:26:03Z</time>
      </trkpt>
      <trkpt lat="42.93128" lon="0.07359">
        <ele>2123</ele>
        <time>2016-04-02T10:26:21Z</time>
      </trkpt>
      <trkpt lat="42.93129" lon="0.07358">
        <ele>2124</ele>
        <time>2016-04-02T10:26:22Z</time>
      </trkpt>
      <trkpt lat="42.93129" lon="0.07355">
        <ele>2127</ele>
        <time>2016-04-02T10:26:40Z</time>
      </trkpt>
      <trkpt lat="42.93129" lon="0.07355">
        <ele>2129</ele>
        <time>2016-04-02T10:26:41Z</time>
      </trkpt>
      <trkpt lat="42.93129" lon="0.07355">
        <ele>2131</ele>
        <time>2016-04-02T10:26:59Z</time>
      </trkpt>
      <trkpt lat="42.93129" lon="0.07355">
        <ele>2133</ele>
        <time>2016-04-02T10:27:00Z</time>
      </trkpt>
      <trkpt lat="42.93131" lon="0.0737">
        <ele>2133</ele>
        <time>2016-04-02T10:27:19Z</time>
      </trkpt>
      <trkpt lat="42.93147" lon="0.07414">
        <ele>2131</ele>
        <time>2016-04-02T10:27:24Z</time>
      </trkpt>
      <trkpt lat="42.93153" lon="0.07442">
        <ele>2127</ele>
        <time>2016-04-02T10:27:27Z</time>
      </trkpt>
      <trkpt lat="42.93162" lon="0.07469">
        <ele>2121</ele>
        <time>2016-04-02T10:27:31Z</time>
      </trkpt>
      <trkpt lat="42.9316" lon="0.07501">
        <ele>2113</ele>
        <time>2016-04-02T10:27:35Z</time>
      </trkpt>
      <trkpt lat="42.93145" lon="0.07516">
        <ele>2104</ele>
        <time>2016-04-02T10:27:38Z</time>
      </trkpt>
      <trkpt lat="42.93148" lon="0.07543">
        <ele>2122</ele>
        <time>2016-04-02T10:27:44Z</time>
      </trkpt>
      <trkpt lat="42.93159" lon="0.07568">
        <ele>2133</ele>
        <time>2016-04-02T10:27:48Z</time>
      </trkpt>
      <trkpt lat="42.93176" lon="0.07582">
        <ele>2143</ele>
        <time>2016-04-02T10:27:50Z</time>
      </trkpt>
      <trkpt lat="42.93205" lon="0.07596">
        <ele>2147</ele>
        <time>2016-04-02T10:27:53Z</time>
      </trkpt>
      <trkpt lat="42.9319" lon="0.07622">
        <ele>2165</ele>
        <time>2016-04-02T10:27:58Z</time>
      </trkpt>
      <trkpt lat="42.93174" lon="0.07634">
        <ele>2134</ele>
        <time>2016-04-02T10:28:17Z</time>
      </trkpt>
      <trkpt lat="42.93171" lon="0.07662">
        <ele>2117</ele>
        <time>2016-04-02T10:28:22Z</time>
      </trkpt>
      <trkpt lat="42.93174" lon="0.07687">
        <ele>2112</ele>
        <time>2016-04-02T10:28:25Z</time>
      </trkpt>
      <trkpt lat="42.93185" lon="0.07712">
        <ele>2109</ele>
        <time>2016-04-02T10:28:28Z</time>
      </trkpt>
      <trkpt lat="42.93181" lon="0.07736">
        <ele>2086</ele>
        <time>2016-04-02T10:28:32Z</time>
      </trkpt>
      <trkpt lat="42.93166" lon="0.07751">
        <ele>2082</ele>
        <time>2016-04-02T10:28:36Z</time>
      </trkpt>
      <trkpt lat="42.93158" lon="0.07749">
        <ele>2070</ele>
        <time>2016-04-02T10:28:55Z</time>
      </trkpt>
      <trkpt lat="42.93158" lon="0.07749">
        <ele>2047</ele>
        <time>2016-04-02T10:28:58Z</time>
      </trkpt>
      <trkpt lat="42.93152" lon="0.07749">
        <ele>2023</ele>
        <time>2016-04-02T10:29:14Z</time>
      </trkpt>
      <trkpt lat="42.9315" lon="0.0775">
        <ele>2008</ele>
        <time>2016-04-02T10:29:15Z</time>
      </trkpt>
      <trkpt lat="42.93136" lon="0.07765">
        <ele>1995</ele>
        <time>2016-04-02T10:29:34Z</time>
      </trkpt>
      <trkpt lat="42.93136" lon="0.07766">
        <ele>1985</ele>
        <time>2016-04-02T10:29:35Z</time>
      </trkpt>
      <trkpt lat="42.93135" lon="0.07764">
        <ele>1976</ele>
        <time>2016-04-02T10:29:54Z</time>
      </trkpt>
      <trkpt lat="42.93135" lon="0.07764">
        <ele>1973</ele>
        <time>2016-04-02T10:29:55Z</time>
      </trkpt>
      <trkpt lat="42.93135" lon="0.07764">
        <ele>1969</ele>
        <time>2016-04-02T10:30:14Z</time>
      </trkpt>
      <trkpt lat="42.93135" lon="0.07764">
        <ele>1968</ele>
        <time>2016-04-02T10:30:15Z</time>
      </trkpt>
      <trkpt lat="42.93135" lon="0.07764">
        <ele>1967</ele>
        <time>2016-04-02T10:30:31Z</time>
      </trkpt>
      <trkpt lat="42.93135" lon="0.07764">
        <ele>1966</ele>
        <time>2016-04-02T10:30:31Z</time>
      </trkpt>
      <trkpt lat="42.93135" lon="0.07764">
        <ele>1966</ele>
        <time>2016-04-02T10:30:50Z</time>
      </trkpt>
      <trkpt lat="42.93135" lon="0.07764">
        <ele>1966</ele>
        <time>2016-04-02T10:30:52Z</time>
      </trkpt>
      <trkpt lat="42.93136" lon="0.07764">
        <ele>1965</ele>
        <time>2016-04-02T10:31:09Z</time>
      </trkpt>
      <trkpt lat="42.93136" lon="0.07764">
        <ele>1965</ele>
        <time>2016-04-02T10:31:10Z</time>
      </trkpt>
      <trkpt lat="42.93138" lon="0.07759">
        <ele>1965</ele>
        <time>2016-04-02T10:31:28Z</time>
      </trkpt>
      <trkpt lat="42.93138" lon="0.07759">
        <ele>1964</ele>
        <time>2016-04-02T10:31:29Z</time>
      </trkpt>
      <trkpt lat="42.93138" lon="0.07759">
        <ele>1963</ele>
        <time>2016-04-02T10:31:47Z</time>
      </trkpt>
      <trkpt lat="42.93138" lon="0.07759">
        <ele>1963</ele>
        <time>2016-04-02T10:31:48Z</time>
      </trkpt>
      <trkpt lat="42.93138" lon="0.07759">
        <ele>1963</ele>
        <time>2016-04-02T10:32:07Z</time>
      </trkpt>
      <trkpt lat="42.93138" lon="0.07759">
        <ele>1963</ele>
        <time>2016-04-02T10:32:08Z</time>
      </trkpt>
      <trkpt lat="42.93138" lon="0.07759">
        <ele>1962</ele>
        <time>2016-04-02T10:32:27Z</time>
      </trkpt>
      <trkpt lat="42.93138" lon="0.07759">
        <ele>1962</ele>
        <time>2016-04-02T10:32:28Z</time>
      </trkpt>
      <trkpt lat="42.93137" lon="0.07757">
        <ele>1962</ele>
        <time>2016-04-02T10:32:45Z</time>
      </trkpt>
      <trkpt lat="42.93137" lon="0.07757">
        <ele>1961</ele>
        <time>2016-04-02T10:32:46Z</time>
      </trkpt>
      <trkpt lat="42.93136" lon="0.07755">
        <ele>1960</ele>
        <time>2016-04-02T10:33:04Z</time>
      </trkpt>
      <trkpt lat="42.93136" lon="0.07755">
        <ele>1959</ele>
        <time>2016-04-02T10:33:05Z</time>
      </trkpt>
      <trkpt lat="42.93135" lon="0.07756">
        <ele>1959</ele>
        <time>2016-04-02T10:33:23Z</time>
      </trkpt>
      <trkpt lat="42.93135" lon="0.07756">
        <ele>1958</ele>
        <time>2016-04-02T10:33:24Z</time>
      </trkpt>
      <trkpt lat="42.93136" lon="0.07759">
        <ele>1958</ele>
        <time>2016-04-02T10:33:42Z</time>
      </trkpt>
      <trkpt lat="42.93135" lon="0.07759">
        <ele>1959</ele>
        <time>2016-04-02T10:33:43Z</time>
      </trkpt>
      <trkpt lat="42.93135" lon="0.07759">
        <ele>1959</ele>
        <time>2016-04-02T10:34:00Z</time>
      </trkpt>
      <trkpt lat="42.93133" lon="0.07759">
        <ele>1959</ele>
        <time>2016-04-02T10:34:03Z</time>
      </trkpt>
      <trkpt lat="42.93139" lon="0.07762">
        <ele>1961</ele>
        <time>2016-04-02T10:34:18Z</time>
      </trkpt>
      <trkpt lat="42.93139" lon="0.07762">
        <ele>1962</ele>
        <time>2016-04-02T10:34:19Z</time>
      </trkpt>
      <trkpt lat="42.93139" lon="0.07762">
        <ele>1963</ele>
        <time>2016-04-02T10:34:37Z</time>
      </trkpt>
      <trkpt lat="42.93139" lon="0.07762">
        <ele>1964</ele>
        <time>2016-04-02T10:34:38Z</time>
      </trkpt>
      <trkpt lat="42.93141" lon="0.07758">
        <ele>1965</ele>
        <time>2016-04-02T10:34:55Z</time>
      </trkpt>
      <trkpt lat="42.93141" lon="0.07758">
        <ele>1965</ele>
        <time>2016-04-02T10:34:56Z</time>
      </trkpt>
      <trkpt lat="42.93141" lon="0.07758">
        <ele>1965</ele>
        <time>2016-04-02T10:34:57Z</time>
      </trkpt>
      <trkpt lat="42.93143" lon="0.07761">
        <ele>1966</ele>
        <time>2016-04-02T10:35:26Z</time>
      </trkpt>
      <trkpt lat="42.93143" lon="0.07761">
        <ele>1967</ele>
        <time>2016-04-02T10:35:26Z</time>
      </trkpt>
      <trkpt lat="42.93142" lon="0.07759">
        <ele>1967</ele>
        <time>2016-04-02T10:35:56Z</time>
      </trkpt>
      <trkpt lat="42.93142" lon="0.07759">
        <ele>1967</ele>
        <time>2016-04-02T10:35:57Z</time>
      </trkpt>
      <trkpt lat="42.93142" lon="0.07759">
        <ele>1967</ele>
        <time>2016-04-02T10:36:16Z</time>
      </trkpt>
      <trkpt lat="42.93142" lon="0.07759">
        <ele>1966</ele>
        <time>2016-04-02T10:36:17Z</time>
      </trkpt>
      <trkpt lat="42.93142" lon="0.07759">
        <ele>1966</ele>
        <time>2016-04-02T10:36:35Z</time>
      </trkpt>
      <trkpt lat="42.93142" lon="0.07759">
        <ele>1966</ele>
        <time>2016-04-02T10:36:36Z</time>
      </trkpt>
      <trkpt lat="42.93139" lon="0.07762">
        <ele>1965</ele>
        <time>2016-04-02T10:36:54Z</time>
      </trkpt>
      <trkpt lat="42.93139" lon="0.07762">
        <ele>1964</ele>
        <time>2016-04-02T10:36:55Z</time>
      </trkpt>
      <trkpt lat="42.93139" lon="0.07762">
        <ele>1963</ele>
        <time>2016-04-02T10:37:13Z</time>
      </trkpt>
      <trkpt lat="42.93139" lon="0.07762">
        <ele>1963</ele>
        <time>2016-04-02T10:37:14Z</time>
      </trkpt>
      <trkpt lat="42.93139" lon="0.07762">
        <ele>1962</ele>
        <time>2016-04-02T10:37:33Z</time>
      </trkpt>
      <trkpt lat="42.93139" lon="0.07762">
        <ele>1962</ele>
        <time>2016-04-02T10:37:35Z</time>
      </trkpt>
      <trkpt lat="42.93139" lon="0.07762">
        <ele>1962</ele>
        <time>2016-04-02T10:37:51Z</time>
      </trkpt>
      <trkpt lat="42.93139" lon="0.07762">
        <ele>1962</ele>
        <time>2016-04-02T10:37:52Z</time>
      </trkpt>
      <trkpt lat="42.93139" lon="0.07762">
        <ele>1962</ele>
        <time>2016-04-02T10:38:10Z</time>
      </trkpt>
      <trkpt lat="42.93139" lon="0.07762">
        <ele>1962</ele>
        <time>2016-04-02T10:38:11Z</time>
      </trkpt>
      <trkpt lat="42.93139" lon="0.07761">
        <ele>1962</ele>
        <time>2016-04-02T10:38:29Z</time>
      </trkpt>
      <trkpt lat="42.93141" lon="0.07762">
        <ele>1963</ele>
        <time>2016-04-02T10:38:30Z</time>
      </trkpt>
      <trkpt lat="42.9314" lon="0.0776">
        <ele>1964</ele>
        <time>2016-04-02T10:38:47Z</time>
      </trkpt>
      <trkpt lat="42.9314" lon="0.0776">
        <ele>1966</ele>
        <time>2016-04-02T10:38:48Z</time>
      </trkpt>
      <trkpt lat="42.93131" lon="0.0777">
        <ele>1967</ele>
        <time>2016-04-02T10:39:06Z</time>
      </trkpt>
      <trkpt lat="42.93131" lon="0.0777">
        <ele>1968</ele>
        <time>2016-04-02T10:39:07Z</time>
      </trkpt>
      <trkpt lat="42.9313" lon="0.07773">
        <ele>1970</ele>
        <time>2016-04-02T10:39:25Z</time>
      </trkpt>
      <trkpt lat="42.9313" lon="0.07772">
        <ele>1971</ele>
        <time>2016-04-02T10:39:26Z</time>
      </trkpt>
      <trkpt lat="42.93128" lon="0.07781">
        <ele>1972</ele>
        <time>2016-04-02T10:39:43Z</time>
      </trkpt>
      <trkpt lat="42.93128" lon="0.07782">
        <ele>1973</ele>
        <time>2016-04-02T10:39:45Z</time>
      </trkpt>
      <trkpt lat="42.93121" lon="0.07801">
        <ele>1974</ele>
        <time>2016-04-02T10:40:03Z</time>
      </trkpt>
      <trkpt lat="42.93122" lon="0.07802">
        <ele>1975</ele>
        <time>2016-04-02T10:40:04Z</time>
      </trkpt>
      <trkpt lat="42.93125" lon="0.07825">
        <ele>1977</ele>
        <time>2016-04-02T10:40:22Z</time>
      </trkpt>
      <trkpt lat="42.93124" lon="0.07828">
        <ele>1979</ele>
        <time>2016-04-02T10:40:23Z</time>
      </trkpt>
      <trkpt lat="42.93119" lon="0.07853">
        <ele>1981</ele>
        <time>2016-04-02T10:40:42Z</time>
      </trkpt>
      <trkpt lat="42.93119" lon="0.07855">
        <ele>1981</ele>
        <time>2016-04-02T10:40:43Z</time>
      </trkpt>
      <trkpt lat="42.93121" lon="0.0787">
        <ele>1982</ele>
        <time>2016-04-02T10:41:00Z</time>
      </trkpt>
      <trkpt lat="42.93121" lon="0.07872">
        <ele>1981</ele>
        <time>2016-04-02T10:41:01Z</time>
      </trkpt>
      <trkpt lat="42.93112" lon="0.07896">
        <ele>1982</ele>
        <time>2016-04-02T10:41:10Z</time>
      </trkpt>
      <trkpt lat="42.93114" lon="0.07922">
        <ele>1985</ele>
        <time>2016-04-02T10:41:30Z</time>
      </trkpt>
      <trkpt lat="42.93123" lon="0.07945">
        <ele>1983</ele>
        <time>2016-04-02T10:41:53Z</time>
      </trkpt>
      <trkpt lat="42.93127" lon="0.0797">
        <ele>1979</ele>
        <time>2016-04-02T10:42:13Z</time>
      </trkpt>
      <trkpt lat="42.93131" lon="0.07995">
        <ele>1972</ele>
        <time>2016-04-02T10:42:27Z</time>
      </trkpt>
      <trkpt lat="42.93137" lon="0.08019">
        <ele>1964</ele>
        <time>2016-04-02T10:42:48Z</time>
      </trkpt>
      <trkpt lat="42.93142" lon="0.08043">
        <ele>1953</ele>
        <time>2016-04-02T10:43:03Z</time>
      </trkpt>
      <trkpt lat="42.93149" lon="0.08066">
        <ele>1950</ele>
        <time>2016-04-02T10:43:19Z</time>
      </trkpt>
      <trkpt lat="42.93161" lon="0.08087">
        <ele>1948</ele>
        <time>2016-04-02T10:43:32Z</time>
      </trkpt>
      <trkpt lat="42.93178" lon="0.08097">
        <ele>1948</ele>
        <time>2016-04-02T10:43:48Z</time>
      </trkpt>
      <trkpt lat="42.93195" lon="0.08108">
        <ele>1950</ele>
        <time>2016-04-02T10:44:07Z</time>
      </trkpt>
      <trkpt lat="42.9321" lon="0.08122">
        <ele>1953</ele>
        <time>2016-04-02T10:44:23Z</time>
      </trkpt>
      <trkpt lat="42.93212" lon="0.08147">
        <ele>1952</ele>
        <time>2016-04-02T10:44:45Z</time>
      </trkpt>
      <trkpt lat="42.9321" lon="0.08172">
        <ele>1952</ele>
        <time>2016-04-02T10:45:04Z</time>
      </trkpt>
      <trkpt lat="42.9321" lon="0.08173">
        <ele>1952</ele>
        <time>2016-04-02T10:45:25Z</time>
      </trkpt>
      <trkpt lat="42.9321" lon="0.08173">
        <ele>1952</ele>
        <time>2016-04-02T10:45:26Z</time>
      </trkpt>
      <trkpt lat="42.9321" lon="0.08173">
        <ele>1952</ele>
        <time>2016-04-02T10:45:43Z</time>
      </trkpt>
      <trkpt lat="42.9321" lon="0.08174">
        <ele>1953</ele>
        <time>2016-04-02T10:45:44Z</time>
      </trkpt>
      <trkpt lat="42.93209" lon="0.08196">
        <ele>1954</ele>
        <time>2016-04-02T10:46:01Z</time>
      </trkpt>
      <trkpt lat="42.93209" lon="0.08197">
        <ele>1955</ele>
        <time>2016-04-02T10:46:02Z</time>
      </trkpt>
      <trkpt lat="42.93215" lon="0.08218">
        <ele>1953</ele>
        <time>2016-04-02T10:46:20Z</time>
      </trkpt>
      <trkpt lat="42.93215" lon="0.08219">
        <ele>1952</ele>
        <time>2016-04-02T10:46:21Z</time>
      </trkpt>
      <trkpt lat="42.9322" lon="0.08224">
        <ele>1952</ele>
        <time>2016-04-02T10:46:39Z</time>
      </trkpt>
      <trkpt lat="42.93219" lon="0.08224">
        <ele>1951</ele>
        <time>2016-04-02T10:46:40Z</time>
      </trkpt>
      <trkpt lat="42.93225" lon="0.0823">
        <ele>1951</ele>
        <time>2016-04-02T10:46:58Z</time>
      </trkpt>
      <trkpt lat="42.93225" lon="0.0823">
        <ele>1953</ele>
        <time>2016-04-02T10:46:59Z</time>
      </trkpt>
      <trkpt lat="42.93236" lon="0.0824">
        <ele>1955</ele>
        <time>2016-04-02T10:47:18Z</time>
      </trkpt>
      <trkpt lat="42.93236" lon="0.0824">
        <ele>1957</ele>
        <time>2016-04-02T10:47:19Z</time>
      </trkpt>
      <trkpt lat="42.93247" lon="0.08247">
        <ele>1959</ele>
        <time>2016-04-02T10:47:38Z</time>
      </trkpt>
      <trkpt lat="42.93247" lon="0.08248">
        <ele>1961</ele>
        <time>2016-04-02T10:47:39Z</time>
      </trkpt>
      <trkpt lat="42.93253" lon="0.0826">
        <ele>1962</ele>
        <time>2016-04-02T10:47:58Z</time>
      </trkpt>
      <trkpt lat="42.93254" lon="0.08262">
        <ele>1963</ele>
        <time>2016-04-02T10:47:59Z</time>
      </trkpt>
      <trkpt lat="42.93253" lon="0.08277">
        <ele>1964</ele>
        <time>2016-04-02T10:48:18Z</time>
      </trkpt>
      <trkpt lat="42.93253" lon="0.08278">
        <ele>1963</ele>
        <time>2016-04-02T10:48:19Z</time>
      </trkpt>
      <trkpt lat="42.93257" lon="0.08286">
        <ele>1963</ele>
        <time>2016-04-02T10:48:37Z</time>
      </trkpt>
      <trkpt lat="42.93258" lon="0.08287">
        <ele>1962</ele>
        <time>2016-04-02T10:48:39Z</time>
      </trkpt>
      <trkpt lat="42.93258" lon="0.08296">
        <ele>1962</ele>
        <time>2016-04-02T10:48:55Z</time>
      </trkpt>
      <trkpt lat="42.93259" lon="0.08297">
        <ele>1962</ele>
        <time>2016-04-02T10:48:56Z</time>
      </trkpt>
      <trkpt lat="42.9326" lon="0.08311">
        <ele>1962</ele>
        <time>2016-04-02T10:49:14Z</time>
      </trkpt>
      <trkpt lat="42.9326" lon="0.08312">
        <ele>1963</ele>
        <time>2016-04-02T10:49:15Z</time>
      </trkpt>
      <trkpt lat="42.93264" lon="0.08319">
        <ele>1964</ele>
        <time>2016-04-02T10:49:34Z</time>
      </trkpt>
      <trkpt lat="42.93264" lon="0.08319">
        <ele>1966</ele>
        <time>2016-04-02T10:49:35Z</time>
      </trkpt>
      <trkpt lat="42.93267" lon="0.08332">
        <ele>1967</ele>
        <time>2016-04-02T10:49:53Z</time>
      </trkpt>
      <trkpt lat="42.93268" lon="0.08333">
        <ele>1968</ele>
        <time>2016-04-02T10:49:54Z</time>
      </trkpt>
      <trkpt lat="42.93271" lon="0.08346">
        <ele>1970</ele>
        <time>2016-04-02T10:50:13Z</time>
      </trkpt>
      <trkpt lat="42.93272" lon="0.08346">
        <ele>1970</ele>
        <time>2016-04-02T10:50:14Z</time>
      </trkpt>
      <trkpt lat="42.93276" lon="0.08353">
        <ele>1972</ele>
        <time>2016-04-02T10:50:32Z</time>
      </trkpt>
      <trkpt lat="42.93276" lon="0.08355">
        <ele>1975</ele>
        <time>2016-04-02T10:50:33Z</time>
      </trkpt>
      <trkpt lat="42.9328" lon="0.08362">
        <ele>1977</ele>
        <time>2016-04-02T10:50:52Z</time>
      </trkpt>
      <trkpt lat="42.9328" lon="0.08363">
        <ele>1979</ele>
        <time>2016-04-02T10:50:54Z</time>
      </trkpt>
      <trkpt lat="42.93274" lon="0.08377">
        <ele>1980</ele>
        <time>2016-04-02T10:51:11Z</time>
      </trkpt>
      <trkpt lat="42.93273" lon="0.08378">
        <ele>1981</ele>
        <time>2016-04-02T10:51:13Z</time>
      </trkpt>
      <trkpt lat="42.9327" lon="0.08387">
        <ele>1981</ele>
        <time>2016-04-02T10:51:30Z</time>
      </trkpt>
      <trkpt lat="42.93271" lon="0.08387">
        <ele>1982</ele>
        <time>2016-04-02T10:51:31Z</time>
      </trkpt>
      <trkpt lat="42.93272" lon="0.0839">
        <ele>1983</ele>
        <time>2016-04-02T10:51:49Z</time>
      </trkpt>
      <trkpt lat="42.93272" lon="0.0839">
        <ele>1984</ele>
        <time>2016-04-02T10:51:50Z</time>
      </trkpt>
      <trkpt lat="42.93276" lon="0.08394">
        <ele>1985</ele>
        <time>2016-04-02T10:52:09Z</time>
      </trkpt>
      <trkpt lat="42.93276" lon="0.08395">
        <ele>1986</ele>
        <time>2016-04-02T10:52:10Z</time>
      </trkpt>
      <trkpt lat="42.93277" lon="0.08408">
        <ele>1988</ele>
        <time>2016-04-02T10:52:28Z</time>
      </trkpt>
      <trkpt lat="42.93276" lon="0.0841">
        <ele>1990</ele>
        <time>2016-04-02T10:52:29Z</time>
      </trkpt>
      <trkpt lat="42.93271" lon="0.0843">
        <ele>1992</ele>
        <time>2016-04-02T10:52:47Z</time>
      </trkpt>
      <trkpt lat="42.93271" lon="0.08431">
        <ele>1994</ele>
        <time>2016-04-02T10:52:48Z</time>
      </trkpt>
      <trkpt lat="42.9327" lon="0.0844">
        <ele>1997</ele>
        <time>2016-04-02T10:53:06Z</time>
      </trkpt>
      <trkpt lat="42.9327" lon="0.08441">
        <ele>1999</ele>
        <time>2016-04-02T10:53:07Z</time>
      </trkpt>
      <trkpt lat="42.93268" lon="0.08459">
        <ele>2000</ele>
        <time>2016-04-02T10:53:26Z</time>
      </trkpt>
      <trkpt lat="42.93267" lon="0.0846">
        <ele>2001</ele>
        <time>2016-04-02T10:53:27Z</time>
      </trkpt>
      <trkpt lat="42.93264" lon="0.08473">
        <ele>2001</ele>
        <time>2016-04-02T10:53:45Z</time>
      </trkpt>
      <trkpt lat="42.93264" lon="0.08475">
        <ele>2002</ele>
        <time>2016-04-02T10:53:46Z</time>
      </trkpt>
      <trkpt lat="42.93259" lon="0.08486">
        <ele>2003</ele>
        <time>2016-04-02T10:54:04Z</time>
      </trkpt>
      <trkpt lat="42.93259" lon="0.08487">
        <ele>2004</ele>
        <time>2016-04-02T10:54:05Z</time>
      </trkpt>
      <trkpt lat="42.93258" lon="0.08496">
        <ele>2005</ele>
        <time>2016-04-02T10:54:23Z</time>
      </trkpt>
      <trkpt lat="42.93258" lon="0.08498">
        <ele>2006</ele>
        <time>2016-04-02T10:54:24Z</time>
      </trkpt>
      <trkpt lat="42.93259" lon="0.08512">
        <ele>2008</ele>
        <time>2016-04-02T10:54:43Z</time>
      </trkpt>
      <trkpt lat="42.93259" lon="0.08514">
        <ele>2009</ele>
        <time>2016-04-02T10:54:44Z</time>
      </trkpt>
      <trkpt lat="42.9326" lon="0.08528">
        <ele>2012</ele>
        <time>2016-04-02T10:55:01Z</time>
      </trkpt>
      <trkpt lat="42.9326" lon="0.0853">
        <ele>2015</ele>
        <time>2016-04-02T10:55:02Z</time>
      </trkpt>
      <trkpt lat="42.93263" lon="0.08546">
        <ele>2018</ele>
        <time>2016-04-02T10:55:20Z</time>
      </trkpt>
      <trkpt lat="42.93263" lon="0.08546">
        <ele>2019</ele>
        <time>2016-04-02T10:55:21Z</time>
      </trkpt>
      <trkpt lat="42.93267" lon="0.08553">
        <ele>2021</ele>
        <time>2016-04-02T10:55:38Z</time>
      </trkpt>
      <trkpt lat="42.93267" lon="0.08554">
        <ele>2022</ele>
        <time>2016-04-02T10:55:40Z</time>
      </trkpt>
      <trkpt lat="42.93265" lon="0.08569">
        <ele>2022</ele>
        <time>2016-04-02T10:55:59Z</time>
      </trkpt>
      <trkpt lat="42.93264" lon="0.0857">
        <ele>2023</ele>
        <time>2016-04-02T10:56:00Z</time>
      </trkpt>
      <trkpt lat="42.93261" lon="0.08591">
        <ele>2023</ele>
        <time>2016-04-02T10:56:18Z</time>
      </trkpt>
      <trkpt lat="42.9326" lon="0.08593">
        <ele>2024</ele>
        <time>2016-04-02T10:56:19Z</time>
      </trkpt>
      <trkpt lat="42.93256" lon="0.08618">
        <ele>2024</ele>
        <time>2016-04-02T10:56:38Z</time>
      </trkpt>
      <trkpt lat="42.93257" lon="0.08619">
        <ele>2025</ele>
        <time>2016-04-02T10:56:39Z</time>
      </trkpt>
      <trkpt lat="42.93255" lon="0.08641">
        <ele>2026</ele>
        <time>2016-04-02T10:56:57Z</time>
      </trkpt>
      <trkpt lat="42.93255" lon="0.08642">
        <ele>2028</ele>
        <time>2016-04-02T10:56:58Z</time>
      </trkpt>
      <trkpt lat="42.9325" lon="0.08647">
        <ele>2029</ele>
        <time>2016-04-02T10:57:17Z</time>
      </trkpt>
      <trkpt lat="42.9325" lon="0.08647">
        <ele>2030</ele>
        <time>2016-04-02T10:57:18Z</time>
      </trkpt>
      <trkpt lat="42.9324" lon="0.08655">
        <ele>2031</ele>
        <time>2016-04-02T10:57:37Z</time>
      </trkpt>
      <trkpt lat="42.9324" lon="0.08657">
        <ele>2031</ele>
        <time>2016-04-02T10:57:38Z</time>
      </trkpt>
      <trkpt lat="42.93239" lon="0.08661">
        <ele>2030</ele>
        <time>2016-04-02T10:57:55Z</time>
      </trkpt>
      <trkpt lat="42.93238" lon="0.08661">
        <ele>2030</ele>
        <time>2016-04-02T10:57:56Z</time>
      </trkpt>
      <trkpt lat="42.93236" lon="0.0867">
        <ele>2029</ele>
        <time>2016-04-02T10:58:14Z</time>
      </trkpt>
      <trkpt lat="42.93235" lon="0.08671">
        <ele>2027</ele>
        <time>2016-04-02T10:58:15Z</time>
      </trkpt>
      <trkpt lat="42.93227" lon="0.08685">
        <ele>2026</ele>
        <time>2016-04-02T10:58:33Z</time>
      </trkpt>
      <trkpt lat="42.93227" lon="0.08686">
        <ele>2024</ele>
        <time>2016-04-02T10:58:34Z</time>
      </trkpt>
      <trkpt lat="42.93224" lon="0.08698">
        <ele>2023</ele>
        <time>2016-04-02T10:58:53Z</time>
      </trkpt>
      <trkpt lat="42.93224" lon="0.08699">
        <ele>2022</ele>
        <time>2016-04-02T10:58:54Z</time>
      </trkpt>
      <trkpt lat="42.9322" lon="0.08712">
        <ele>2022</ele>
        <time>2016-04-02T10:59:12Z</time>
      </trkpt>
      <trkpt lat="42.93219" lon="0.08713">
        <ele>2022</ele>
        <time>2016-04-02T10:59:14Z</time>
      </trkpt>
      <trkpt lat="42.93217" lon="0.08732">
        <ele>2023</ele>
        <time>2016-04-02T10:59:32Z</time>
      </trkpt>
      <trkpt lat="42.93217" lon="0.08734">
        <ele>2024</ele>
        <time>2016-04-02T10:59:33Z</time>
      </trkpt>
      <trkpt lat="42.9322" lon="0.08754">
        <ele>2024</ele>
        <time>2016-04-02T10:59:52Z</time>
      </trkpt>
      <trkpt lat="42.93221" lon="0.08755">
        <ele>2023</ele>
        <time>2016-04-02T10:59:53Z</time>
      </trkpt>
      <trkpt lat="42.93222" lon="0.08777">
        <ele>2023</ele>
        <time>2016-04-02T11:00:10Z</time>
      </trkpt>
      <trkpt lat="42.93222" lon="0.08781">
        <ele>2023</ele>
        <time>2016-04-02T11:00:11Z</time>
      </trkpt>
      <trkpt lat="42.93225" lon="0.08804">
        <ele>2022</ele>
        <time>2016-04-02T11:00:30Z</time>
      </trkpt>
      <trkpt lat="42.93226" lon="0.08805">
        <ele>2023</ele>
        <time>2016-04-02T11:00:31Z</time>
      </trkpt>
      <trkpt lat="42.93226" lon="0.08824">
        <ele>2023</ele>
        <time>2016-04-02T11:00:48Z</time>
      </trkpt>
      <trkpt lat="42.93227" lon="0.08824">
        <ele>2024</ele>
        <time>2016-04-02T11:00:49Z</time>
      </trkpt>
      <trkpt lat="42.93226" lon="0.08849">
        <ele>2025</ele>
        <time>2016-04-02T11:01:04Z</time>
      </trkpt>
      <trkpt lat="42.93226" lon="0.08874">
        <ele>2026</ele>
        <time>2016-04-02T11:01:20Z</time>
      </trkpt>
      <trkpt lat="42.93222" lon="0.08898">
        <ele>2026</ele>
        <time>2016-04-02T11:01:40Z</time>
      </trkpt>
      <trkpt lat="42.93216" lon="0.08923">
        <ele>2027</ele>
        <time>2016-04-02T11:01:58Z</time>
      </trkpt>
      <trkpt lat="42.93211" lon="0.08948">
        <ele>2028</ele>
        <time>2016-04-02T11:02:12Z</time>
      </trkpt>
      <trkpt lat="42.93212" lon="0.08973">
        <ele>2028</ele>
        <time>2016-04-02T11:02:31Z</time>
      </trkpt>
      <trkpt lat="42.93211" lon="0.08998">
        <ele>2028</ele>
        <time>2016-04-02T11:02:48Z</time>
      </trkpt>
      <trkpt lat="42.93211" lon="0.09024">
        <ele>2029</ele>
        <time>2016-04-02T11:03:04Z</time>
      </trkpt>
      <trkpt lat="42.93212" lon="0.0905">
        <ele>2031</ele>
        <time>2016-04-02T11:03:21Z</time>
      </trkpt>
      <trkpt lat="42.93212" lon="0.09076">
        <ele>2032</ele>
        <time>2016-04-02T11:03:40Z</time>
      </trkpt>
      <trkpt lat="42.93213" lon="0.09099">
        <ele>2033</ele>
        <time>2016-04-02T11:04:00Z</time>
      </trkpt>
      <trkpt lat="42.93213" lon="0.091">
        <ele>2034</ele>
        <time>2016-04-02T11:04:01Z</time>
      </trkpt>
      <trkpt lat="42.93206" lon="0.09124">
        <ele>2035</ele>
        <time>2016-04-02T11:04:17Z</time>
      </trkpt>
      <trkpt lat="42.93205" lon="0.09135">
        <ele>2034</ele>
        <time>2016-04-02T11:04:38Z</time>
      </trkpt>
      <trkpt lat="42.93205" lon="0.09137">
        <ele>2033</ele>
        <time>2016-04-02T11:04:39Z</time>
      </trkpt>
      <trkpt lat="42.93214" lon="0.09156">
        <ele>2032</ele>
        <time>2016-04-02T11:04:57Z</time>
      </trkpt>
      <trkpt lat="42.93215" lon="0.09158">
        <ele>2032</ele>
        <time>2016-04-02T11:04:58Z</time>
      </trkpt>
      <trkpt lat="42.9322" lon="0.09177">
        <ele>2032</ele>
        <time>2016-04-02T11:05:16Z</time>
      </trkpt>
      <trkpt lat="42.9322" lon="0.0918">
        <ele>2033</ele>
        <time>2016-04-02T11:05:17Z</time>
      </trkpt>
      <trkpt lat="42.93224" lon="0.09194">
        <ele>2034</ele>
        <time>2016-04-02T11:05:34Z</time>
      </trkpt>
      <trkpt lat="42.93224" lon="0.09196">
        <ele>2034</ele>
        <time>2016-04-02T11:05:35Z</time>
      </trkpt>
      <trkpt lat="42.93227" lon="0.09213">
        <ele>2035</ele>
        <time>2016-04-02T11:05:52Z</time>
      </trkpt>
      <trkpt lat="42.93227" lon="0.09214">
        <ele>2035</ele>
        <time>2016-04-02T11:05:53Z</time>
      </trkpt>
      <trkpt lat="42.93226" lon="0.09237">
        <ele>2037</ele>
        <time>2016-04-02T11:06:12Z</time>
      </trkpt>
      <trkpt lat="42.93226" lon="0.09238">
        <ele>2038</ele>
        <time>2016-04-02T11:06:13Z</time>
      </trkpt>
      <trkpt lat="42.93222" lon="0.09259">
        <ele>2039</ele>
        <time>2016-04-02T11:06:32Z</time>
      </trkpt>
      <trkpt lat="42.93222" lon="0.0926">
        <ele>2039</ele>
        <time>2016-04-02T11:06:33Z</time>
      </trkpt>
      <trkpt lat="42.93221" lon="0.09264">
        <ele>2041</ele>
        <time>2016-04-02T11:06:51Z</time>
      </trkpt>
      <trkpt lat="42.93221" lon="0.09266">
        <ele>2041</ele>
        <time>2016-04-02T11:06:53Z</time>
      </trkpt>
      <trkpt lat="42.93217" lon="0.09286">
        <ele>2042</ele>
        <time>2016-04-02T11:07:12Z</time>
      </trkpt>
      <trkpt lat="42.93216" lon="0.09286">
        <ele>2043</ele>
        <time>2016-04-02T11:07:13Z</time>
      </trkpt>
      <trkpt lat="42.93216" lon="0.09302">
        <ele>2045</ele>
        <time>2016-04-02T11:07:31Z</time>
      </trkpt>
      <trkpt lat="42.93216" lon="0.09303">
        <ele>2047</ele>
        <time>2016-04-02T11:07:32Z</time>
      </trkpt>
      <trkpt lat="42.93217" lon="0.09318">
        <ele>2050</ele>
        <time>2016-04-02T11:07:51Z</time>
      </trkpt>
      <trkpt lat="42.93217" lon="0.09319">
        <ele>2051</ele>
        <time>2016-04-02T11:07:52Z</time>
      </trkpt>
      <trkpt lat="42.93217" lon="0.09326">
        <ele>2053</ele>
        <time>2016-04-02T11:08:10Z</time>
      </trkpt>
      <trkpt lat="42.93217" lon="0.09326">
        <ele>2055</ele>
        <time>2016-04-02T11:08:11Z</time>
      </trkpt>
      <trkpt lat="42.93211" lon="0.09321">
        <ele>2057</ele>
        <time>2016-04-02T11:08:28Z</time>
      </trkpt>
      <trkpt lat="42.93211" lon="0.0932">
        <ele>2058</ele>
        <time>2016-04-02T11:08:29Z</time>
      </trkpt>
      <trkpt lat="42.932" lon="0.09315">
        <ele>2059</ele>
        <time>2016-04-02T11:08:48Z</time>
      </trkpt>
      <trkpt lat="42.93199" lon="0.09315">
        <ele>2060</ele>
        <time>2016-04-02T11:08:49Z</time>
      </trkpt>
      <trkpt lat="42.932" lon="0.09318">
        <ele>2061</ele>
        <time>2016-04-02T11:09:08Z</time>
      </trkpt>
      <trkpt lat="42.932" lon="0.09318">
        <ele>2061</ele>
        <time>2016-04-02T11:09:09Z</time>
      </trkpt>
      <trkpt lat="42.932" lon="0.09318">
        <ele>2062</ele>
        <time>2016-04-02T11:09:26Z</time>
      </trkpt>
      <trkpt lat="42.932" lon="0.09318">
        <ele>2062</ele>
        <time>2016-04-02T11:09:27Z</time>
      </trkpt>
      <trkpt lat="42.932" lon="0.0933">
        <ele>2062</ele>
        <time>2016-04-02T11:09:45Z</time>
      </trkpt>
      <trkpt lat="42.932" lon="0.0933">
        <ele>2062</ele>
        <time>2016-04-02T11:09:46Z</time>
      </trkpt>
      <trkpt lat="42.93203" lon="0.09345">
        <ele>2062</ele>
        <time>2016-04-02T11:10:05Z</time>
      </trkpt>
      <trkpt lat="42.93203" lon="0.09345">
        <ele>2061</ele>
        <time>2016-04-02T11:10:07Z</time>
      </trkpt>
      <trkpt lat="42.93208" lon="0.0936">
        <ele>2062</ele>
        <time>2016-04-02T11:10:24Z</time>
      </trkpt>
      <trkpt lat="42.93208" lon="0.09361">
        <ele>2063</ele>
        <time>2016-04-02T11:10:25Z</time>
      </trkpt>
      <trkpt lat="42.93213" lon="0.09371">
        <ele>2065</ele>
        <time>2016-04-02T11:10:43Z</time>
      </trkpt>
      <trkpt lat="42.93213" lon="0.09372">
        <ele>2066</ele>
        <time>2016-04-02T11:10:45Z</time>
      </trkpt>
      <trkpt lat="42.93214" lon="0.09386">
        <ele>2068</ele>
        <time>2016-04-02T11:11:03Z</time>
      </trkpt>
      <trkpt lat="42.93214" lon="0.09386">
        <ele>2068</ele>
        <time>2016-04-02T11:11:04Z</time>
      </trkpt>
      <trkpt lat="42.93217" lon="0.09402">
        <ele>2069</ele>
        <time>2016-04-02T11:11:22Z</time>
      </trkpt>
      <trkpt lat="42.93217" lon="0.09402">
        <ele>2069</ele>
        <time>2016-04-02T11:11:23Z</time>
      </trkpt>
      <trkpt lat="42.93217" lon="0.09412">
        <ele>2070</ele>
        <time>2016-04-02T11:11:41Z</time>
      </trkpt>
      <trkpt lat="42.93218" lon="0.09413">
        <ele>2071</ele>
        <time>2016-04-02T11:11:42Z</time>
      </trkpt>
      <trkpt lat="42.93218" lon="0.09414">
        <ele>2072</ele>
        <time>2016-04-02T11:12:00Z</time>
      </trkpt>
      <trkpt lat="42.93218" lon="0.09415">
        <ele>2073</ele>
        <time>2016-04-02T11:12:01Z</time>
      </trkpt>
      <trkpt lat="42.93217" lon="0.09432">
        <ele>2074</ele>
        <time>2016-04-02T11:12:20Z</time>
      </trkpt>
      <trkpt lat="42.93217" lon="0.09432">
        <ele>2076</ele>
        <time>2016-04-02T11:12:21Z</time>
      </trkpt>
      <trkpt lat="42.93214" lon="0.09448">
        <ele>2077</ele>
        <time>2016-04-02T11:12:38Z</time>
      </trkpt>
      <trkpt lat="42.93214" lon="0.09448">
        <ele>2079</ele>
        <time>2016-04-02T11:12:39Z</time>
      </trkpt>
      <trkpt lat="42.93214" lon="0.09464">
        <ele>2080</ele>
        <time>2016-04-02T11:12:57Z</time>
      </trkpt>
      <trkpt lat="42.93214" lon="0.09465">
        <ele>2082</ele>
        <time>2016-04-02T11:12:58Z</time>
      </trkpt>
      <trkpt lat="42.93213" lon="0.09479">
        <ele>2084</ele>
        <time>2016-04-02T11:13:15Z</time>
      </trkpt>
      <trkpt lat="42.93213" lon="0.09479">
        <ele>2086</ele>
        <time>2016-04-02T11:13:16Z</time>
      </trkpt>
      <trkpt lat="42.93216" lon="0.0949">
        <ele>2088</ele>
        <time>2016-04-02T11:13:34Z</time>
      </trkpt>
      <trkpt lat="42.93216" lon="0.0949">
        <ele>2089</ele>
        <time>2016-04-02T11:13:35Z</time>
      </trkpt>
      <trkpt lat="42.93211" lon="0.09504">
        <ele>2092</ele>
        <time>2016-04-02T11:13:52Z</time>
      </trkpt>
      <trkpt lat="42.93212" lon="0.09504">
        <ele>2092</ele>
        <time>2016-04-02T11:13:53Z</time>
      </trkpt>
      <trkpt lat="42.93213" lon="0.09509">
        <ele>2093</ele>
        <time>2016-04-02T11:14:12Z</time>
      </trkpt>
      <trkpt lat="42.93213" lon="0.09509">
        <ele>2094</ele>
        <time>2016-04-02T11:14:13Z</time>
      </trkpt>
      <trkpt lat="42.93205" lon="0.09525">
        <ele>2095</ele>
        <time>2016-04-02T11:14:31Z</time>
      </trkpt>
      <trkpt lat="42.93205" lon="0.09526">
        <ele>2095</ele>
        <time>2016-04-02T11:14:32Z</time>
      </trkpt>
      <trkpt lat="42.93196" lon="0.09538">
        <ele>2095</ele>
        <time>2016-04-02T11:14:51Z</time>
      </trkpt>
      <trkpt lat="42.93195" lon="0.09539">
        <ele>2095</ele>
        <time>2016-04-02T11:14:52Z</time>
      </trkpt>
      <trkpt lat="42.93185" lon="0.0955">
        <ele>2096</ele>
        <time>2016-04-02T11:15:10Z</time>
      </trkpt>
      <trkpt lat="42.93185" lon="0.09551">
        <ele>2097</ele>
        <time>2016-04-02T11:15:10Z</time>
      </trkpt>
      <trkpt lat="42.9318" lon="0.09561">
        <ele>2098</ele>
        <time>2016-04-02T11:15:29Z</time>
      </trkpt>
      <trkpt lat="42.9318" lon="0.09561">
        <ele>2100</ele>
        <time>2016-04-02T11:15:31Z</time>
      </trkpt>
      <trkpt lat="42.93177" lon="0.09569">
        <ele>2102</ele>
        <time>2016-04-02T11:15:47Z</time>
      </trkpt>
      <trkpt lat="42.93177" lon="0.0957">
        <ele>2102</ele>
        <time>2016-04-02T11:15:48Z</time>
      </trkpt>
      <trkpt lat="42.93174" lon="0.09587">
        <ele>2102</ele>
        <time>2016-04-02T11:16:06Z</time>
      </trkpt>
      <trkpt lat="42.93174" lon="0.09587">
        <ele>2102</ele>
        <time>2016-04-02T11:16:07Z</time>
      </trkpt>
      <trkpt lat="42.93171" lon="0.09604">
        <ele>2101</ele>
        <time>2016-04-02T11:16:25Z</time>
      </trkpt>
      <trkpt lat="42.93171" lon="0.09605">
        <ele>2101</ele>
        <time>2016-04-02T11:16:26Z</time>
      </trkpt>
      <trkpt lat="42.93168" lon="0.09618">
        <ele>2100</ele>
        <time>2016-04-02T11:16:44Z</time>
      </trkpt>
      <trkpt lat="42.93166" lon="0.0962">
        <ele>2100</ele>
        <time>2016-04-02T11:16:46Z</time>
      </trkpt>
      <trkpt lat="42.93169" lon="0.09625">
        <ele>2100</ele>
        <time>2016-04-02T11:17:03Z</time>
      </trkpt>
      <trkpt lat="42.93169" lon="0.09626">
        <ele>2099</ele>
        <time>2016-04-02T11:17:04Z</time>
      </trkpt>
      <trkpt lat="42.93169" lon="0.09643">
        <ele>2098</ele>
        <time>2016-04-02T11:17:22Z</time>
      </trkpt>
      <trkpt lat="42.93168" lon="0.09644">
        <ele>2097</ele>
        <time>2016-04-02T11:17:23Z</time>
      </trkpt>
      <trkpt lat="42.93161" lon="0.09665">
        <ele>2098</ele>
        <time>2016-04-02T11:17:42Z</time>
      </trkpt>
      <trkpt lat="42.9316" lon="0.09666">
        <ele>2099</ele>
        <time>2016-04-02T11:17:43Z</time>
      </trkpt>
      <trkpt lat="42.93153" lon="0.09685">
        <ele>2102</ele>
        <time>2016-04-02T11:18:00Z</time>
      </trkpt>
      <trkpt lat="42.93153" lon="0.09685">
        <ele>2104</ele>
        <time>2016-04-02T11:18:01Z</time>
      </trkpt>
      <trkpt lat="42.93147" lon="0.097">
        <ele>2107</ele>
        <time>2016-04-02T11:18:19Z</time>
      </trkpt>
      <trkpt lat="42.93146" lon="0.09702">
        <ele>2109</ele>
        <time>2016-04-02T11:18:20Z</time>
      </trkpt>
      <trkpt lat="42.93139" lon="0.09722">
        <ele>2109</ele>
        <time>2016-04-02T11:18:38Z</time>
      </trkpt>
      <trkpt lat="42.93138" lon="0.09724">
        <ele>2108</ele>
        <time>2016-04-02T11:18:39Z</time>
      </trkpt>
      <trkpt lat="42.93126" lon="0.09743">
        <ele>2109</ele>
        <time>2016-04-02T11:18:56Z</time>
      </trkpt>
      <trkpt lat="42.93122" lon="0.09764">
        <ele>2110</ele>
        <time>2016-04-02T11:19:16Z</time>
      </trkpt>
      <trkpt lat="42.93121" lon="0.09765">
        <ele>2112</ele>
        <time>2016-04-02T11:19:17Z</time>
      </trkpt>
      <trkpt lat="42.93112" lon="0.09785">
        <ele>2115</ele>
        <time>2016-04-02T11:19:35Z</time>
      </trkpt>
      <trkpt lat="42.93111" lon="0.09786">
        <ele>2119</ele>
        <time>2016-04-02T11:19:36Z</time>
      </trkpt>
      <trkpt lat="42.93105" lon="0.09804">
        <ele>2121</ele>
        <time>2016-04-02T11:19:54Z</time>
      </trkpt>
      <trkpt lat="42.93104" lon="0.09806">
        <ele>2123</ele>
        <time>2016-04-02T11:19:55Z</time>
      </trkpt>
      <trkpt lat="42.93103" lon="0.0982">
        <ele>2124</ele>
        <time>2016-04-02T11:20:13Z</time>
      </trkpt>
      <trkpt lat="42.93103" lon="0.09822">
        <ele>2124</ele>
        <time>2016-04-02T11:20:14Z</time>
      </trkpt>
      <trkpt lat="42.93101" lon="0.09845">
        <ele>2124</ele>
        <time>2016-04-02T11:20:32Z</time>
      </trkpt>
      <trkpt lat="42.93101" lon="0.09847">
        <ele>2124</ele>
        <time>2016-04-02T11:20:33Z</time>
      </trkpt>
      <trkpt lat="42.931" lon="0.09866">
        <ele>2125</ele>
        <time>2016-04-02T11:20:51Z</time>
      </trkpt>
      <trkpt lat="42.93101" lon="0.09867">
        <ele>2126</ele>
        <time>2016-04-02T11:20:52Z</time>
      </trkpt>
      <trkpt lat="42.93102" lon="0.09883">
        <ele>2129</ele>
        <time>2016-04-02T11:21:10Z</time>
      </trkpt>
      <trkpt lat="42.93102" lon="0.09884">
        <ele>2130</ele>
        <time>2016-04-02T11:21:11Z</time>
      </trkpt>
      <trkpt lat="42.931" lon="0.09895">
        <ele>2131</ele>
        <time>2016-04-02T11:21:29Z</time>
      </trkpt>
      <trkpt lat="42.931" lon="0.09895">
        <ele>2132</ele>
        <time>2016-04-02T11:21:30Z</time>
      </trkpt>
      <trkpt lat="42.93101" lon="0.09907">
        <ele>2133</ele>
        <time>2016-04-02T11:21:48Z</time>
      </trkpt>
      <trkpt lat="42.93101" lon="0.09909">
        <ele>2132</ele>
        <time>2016-04-02T11:21:49Z</time>
      </trkpt>
      <trkpt lat="42.931" lon="0.09923">
        <ele>2133</ele>
        <time>2016-04-02T11:22:07Z</time>
      </trkpt>
      <trkpt lat="42.93099" lon="0.09924">
        <ele>2134</ele>
        <time>2016-04-02T11:22:08Z</time>
      </trkpt>
      <trkpt lat="42.931" lon="0.09924">
        <ele>2135</ele>
        <time>2016-04-02T11:22:26Z</time>
      </trkpt>
      <trkpt lat="42.931" lon="0.09924">
        <ele>2137</ele>
        <time>2016-04-02T11:22:28Z</time>
      </trkpt>
      <trkpt lat="42.931" lon="0.09924">
        <ele>2138</ele>
        <time>2016-04-02T11:22:45Z</time>
      </trkpt>
      <trkpt lat="42.931" lon="0.09924">
        <ele>2139</ele>
        <time>2016-04-02T11:22:48Z</time>
      </trkpt>
      <trkpt lat="42.931" lon="0.09924">
        <ele>2140</ele>
        <time>2016-04-02T11:23:04Z</time>
      </trkpt>
      <trkpt lat="42.931" lon="0.09924">
        <ele>2140</ele>
        <time>2016-04-02T11:23:05Z</time>
      </trkpt>
      <trkpt lat="42.931" lon="0.09924">
        <ele>2140</ele>
        <time>2016-04-02T11:23:23Z</time>
      </trkpt>
      <trkpt lat="42.931" lon="0.09924">
        <ele>2140</ele>
        <time>2016-04-02T11:23:24Z</time>
      </trkpt>
      <trkpt lat="42.931" lon="0.09924">
        <ele>2140</ele>
        <time>2016-04-02T11:23:42Z</time>
      </trkpt>
      <trkpt lat="42.931" lon="0.09924">
        <ele>2140</ele>
        <time>2016-04-02T11:23:43Z</time>
      </trkpt>
      <trkpt lat="42.931" lon="0.09924">
        <ele>2140</ele>
        <time>2016-04-02T11:24:01Z</time>
      </trkpt>
      <trkpt lat="42.931" lon="0.09924">
        <ele>2140</ele>
        <time>2016-04-02T11:24:02Z</time>
      </trkpt>
      <trkpt lat="42.931" lon="0.09924">
        <ele>2140</ele>
        <time>2016-04-02T11:24:21Z</time>
      </trkpt>
      <trkpt lat="42.931" lon="0.09924">
        <ele>2140</ele>
        <time>2016-04-02T11:24:22Z</time>
      </trkpt>
      <trkpt lat="42.931" lon="0.09942">
        <ele>2140</ele>
        <time>2016-04-02T11:24:39Z</time>
      </trkpt>
      <trkpt lat="42.931" lon="0.09944">
        <ele>2140</ele>
        <time>2016-04-02T11:24:40Z</time>
      </trkpt>
      <trkpt lat="42.931" lon="0.09962">
        <ele>2140</ele>
        <time>2016-04-02T11:24:59Z</time>
      </trkpt>
      <trkpt lat="42.93098" lon="0.09965">
        <ele>2140</ele>
        <time>2016-04-02T11:25:03Z</time>
      </trkpt>
      <trkpt lat="42.931" lon="0.09982">
        <ele>2141</ele>
        <time>2016-04-02T11:25:18Z</time>
      </trkpt>
      <trkpt lat="42.931" lon="0.09983">
        <ele>2142</ele>
        <time>2016-04-02T11:25:19Z</time>
      </trkpt>
      <trkpt lat="42.931" lon="0.10001">
        <ele>2144</ele>
        <time>2016-04-02T11:25:38Z</time>
      </trkpt>
      <trkpt lat="42.93101" lon="0.10002">
        <ele>2145</ele>
        <time>2016-04-02T11:25:39Z</time>
      </trkpt>
      <trkpt lat="42.93105" lon="0.1002">
        <ele>2146</ele>
        <time>2016-04-02T11:25:59Z</time>
      </trkpt>
      <trkpt lat="42.93106" lon="0.10021">
        <ele>2147</ele>
        <time>2016-04-02T11:26:00Z</time>
      </trkpt>
      <trkpt lat="42.93112" lon="0.10029">
        <ele>2147</ele>
        <time>2016-04-02T11:26:17Z</time>
      </trkpt>
      <trkpt lat="42.93112" lon="0.10028">
        <ele>2147</ele>
        <time>2016-04-02T11:26:18Z</time>
      </trkpt>
      <trkpt lat="42.93107" lon="0.10039">
        <ele>2148</ele>
        <time>2016-04-02T11:26:37Z</time>
      </trkpt>
      <trkpt lat="42.93106" lon="0.1004">
        <ele>2150</ele>
        <time>2016-04-02T11:26:38Z</time>
      </trkpt>
      <trkpt lat="42.93105" lon="0.10049">
        <ele>2153</ele>
        <time>2016-04-02T11:26:57Z</time>
      </trkpt>
      <trkpt lat="42.93105" lon="0.1005">
        <ele>2156</ele>
        <time>2016-04-02T11:26:58Z</time>
      </trkpt>
      <trkpt lat="42.93102" lon="0.10056">
        <ele>2159</ele>
        <time>2016-04-02T11:27:16Z</time>
      </trkpt>
      <trkpt lat="42.93102" lon="0.10058">
        <ele>2161</ele>
        <time>2016-04-02T11:27:17Z</time>
      </trkpt>
      <trkpt lat="42.93098" lon="0.10066">
        <ele>2162</ele>
        <time>2016-04-02T11:27:36Z</time>
      </trkpt>
      <trkpt lat="42.93098" lon="0.10067">
        <ele>2163</ele>
        <time>2016-04-02T11:27:37Z</time>
      </trkpt>
      <trkpt lat="42.93096" lon="0.10076">
        <ele>2163</ele>
        <time>2016-04-02T11:27:56Z</time>
      </trkpt>
      <trkpt lat="42.93096" lon="0.10076">
        <ele>2162</ele>
        <time>2016-04-02T11:27:59Z</time>
      </trkpt>
      <trkpt lat="42.93096" lon="0.10077">
        <ele>2161</ele>
        <time>2016-04-02T11:28:15Z</time>
      </trkpt>
      <trkpt lat="42.93096" lon="0.10078">
        <ele>2159</ele>
        <time>2016-04-02T11:28:16Z</time>
      </trkpt>
      <trkpt lat="42.93089" lon="0.10088">
        <ele>2158</ele>
        <time>2016-04-02T11:28:36Z</time>
      </trkpt>
      <trkpt lat="42.93089" lon="0.10088">
        <ele>2157</ele>
        <time>2016-04-02T11:28:36Z</time>
      </trkpt>
      <trkpt lat="42.93089" lon="0.10088">
        <ele>2157</ele>
        <time>2016-04-02T11:28:38Z</time>
      </trkpt>
      <trkpt lat="42.93082" lon="0.10099">
        <ele>2157</ele>
        <time>2016-04-02T11:28:54Z</time>
      </trkpt>
      <trkpt lat="42.93082" lon="0.101">
        <ele>2157</ele>
        <time>2016-04-02T11:28:55Z</time>
      </trkpt>
      <trkpt lat="42.93078" lon="0.10101">
        <ele>2158</ele>
        <time>2016-04-02T11:29:13Z</time>
      </trkpt>
      <trkpt lat="42.93078" lon="0.10101">
        <ele>2158</ele>
        <time>2016-04-02T11:29:14Z</time>
      </trkpt>
      <trkpt lat="42.93076" lon="0.10105">
        <ele>2159</ele>
        <time>2016-04-02T11:29:33Z</time>
      </trkpt>
      <trkpt lat="42.93074" lon="0.10107">
        <ele>2160</ele>
        <time>2016-04-02T11:29:36Z</time>
      </trkpt>
      <trkpt lat="42.93064" lon="0.10117">
        <ele>2163</ele>
        <time>2016-04-02T11:29:51Z</time>
      </trkpt>
      <trkpt lat="42.93064" lon="0.10117">
        <ele>2166</ele>
        <time>2016-04-02T11:29:52Z</time>
      </trkpt>
      <trkpt lat="42.93054" lon="0.10124">
        <ele>2171</ele>
        <time>2016-04-02T11:30:10Z</time>
      </trkpt>
      <trkpt lat="42.93053" lon="0.10126">
        <ele>2175</ele>
        <time>2016-04-02T11:30:11Z</time>
      </trkpt>
      <trkpt lat="42.93044" lon="0.10138">
        <ele>2179</ele>
        <time>2016-04-02T11:30:30Z</time>
      </trkpt>
      <trkpt lat="42.93043" lon="0.10139">
        <ele>2181</ele>
        <time>2016-04-02T11:30:31Z</time>
      </trkpt>
      <trkpt lat="42.93038" lon="0.10147">
        <ele>2184</ele>
        <time>2016-04-02T11:30:48Z</time>
      </trkpt>
      <trkpt lat="42.93038" lon="0.10147">
        <ele>2185</ele>
        <time>2016-04-02T11:30:49Z</time>
      </trkpt>
      <trkpt lat="42.93038" lon="0.10154">
        <ele>2184</ele>
        <time>2016-04-02T11:31:07Z</time>
      </trkpt>
      <trkpt lat="42.93037" lon="0.10155">
        <ele>2183</ele>
        <time>2016-04-02T11:31:08Z</time>
      </trkpt>
      <trkpt lat="42.93034" lon="0.1016">
        <ele>2182</ele>
        <time>2016-04-02T11:31:27Z</time>
      </trkpt>
      <trkpt lat="42.93034" lon="0.10161">
        <ele>2180</ele>
        <time>2016-04-02T11:31:28Z</time>
      </trkpt>
      <trkpt lat="42.93027" lon="0.1017">
        <ele>2180</ele>
        <time>2016-04-02T11:31:47Z</time>
      </trkpt>
      <trkpt lat="42.93027" lon="0.1017">
        <ele>2181</ele>
        <time>2016-04-02T11:31:47Z</time>
      </trkpt>
      <trkpt lat="42.93025" lon="0.1018">
        <ele>2183</ele>
        <time>2016-04-02T11:32:04Z</time>
      </trkpt>
      <trkpt lat="42.93025" lon="0.10179">
        <ele>2184</ele>
        <time>2016-04-02T11:32:05Z</time>
      </trkpt>
      <trkpt lat="42.93019" lon="0.1019">
        <ele>2187</ele>
        <time>2016-04-02T11:32:23Z</time>
      </trkpt>
      <trkpt lat="42.93019" lon="0.10191">
        <ele>2190</ele>
        <time>2016-04-02T11:32:24Z</time>
      </trkpt>
      <trkpt lat="42.93015" lon="0.10199">
        <ele>2193</ele>
        <time>2016-04-02T11:32:42Z</time>
      </trkpt>
      <trkpt lat="42.93016" lon="0.10199">
        <ele>2196</ele>
        <time>2016-04-02T11:32:43Z</time>
      </trkpt>
      <trkpt lat="42.93016" lon="0.102">
        <ele>2199</ele>
        <time>2016-04-02T11:33:01Z</time>
      </trkpt>
      <trkpt lat="42.93016" lon="0.102">
        <ele>2201</ele>
        <time>2016-04-02T11:33:02Z</time>
      </trkpt>
      <trkpt lat="42.93016" lon="0.10209">
        <ele>2202</ele>
        <time>2016-04-02T11:33:20Z</time>
      </trkpt>
      <trkpt lat="42.93016" lon="0.10211">
        <ele>2203</ele>
        <time>2016-04-02T11:33:21Z</time>
      </trkpt>
      <trkpt lat="42.9302" lon="0.10229">
        <ele>2204</ele>
        <time>2016-04-02T11:33:40Z</time>
      </trkpt>
      <trkpt lat="42.9303" lon="0.10246">
        <ele>2205</ele>
        <time>2016-04-02T11:33:53Z</time>
      </trkpt>
      <trkpt lat="42.93049" lon="0.10308">
        <ele>2213</ele>
        <time>2016-04-02T11:35:25Z</time>
      </trkpt>
      <trkpt lat="42.93049" lon="0.1031">
        <ele>2215</ele>
        <time>2016-04-02T11:35:26Z</time>
      </trkpt>
      <trkpt lat="42.9305" lon="0.10335">
        <ele>2216</ele>
        <time>2016-04-02T11:35:45Z</time>
      </trkpt>
      <trkpt lat="42.9305" lon="0.10335">
        <ele>2215</ele>
        <time>2016-04-02T11:35:45Z</time>
      </trkpt>
      <trkpt lat="42.93051" lon="0.1034">
        <ele>2214</ele>
        <time>2016-04-02T11:35:49Z</time>
      </trkpt>
      <trkpt lat="42.93048" lon="0.10359">
        <ele>2214</ele>
        <time>2016-04-02T11:36:04Z</time>
      </trkpt>
      <trkpt lat="42.93047" lon="0.1036">
        <ele>2213</ele>
        <time>2016-04-02T11:36:05Z</time>
      </trkpt>
      <trkpt lat="42.93047" lon="0.10379">
        <ele>2213</ele>
        <time>2016-04-02T11:36:23Z</time>
      </trkpt>
      <trkpt lat="42.93047" lon="0.1038">
        <ele>2214</ele>
        <time>2016-04-02T11:36:24Z</time>
      </trkpt>
      <trkpt lat="42.93047" lon="0.10397">
        <ele>2215</ele>
        <time>2016-04-02T11:36:42Z</time>
      </trkpt>
      <trkpt lat="42.93047" lon="0.10398">
        <ele>2216</ele>
        <time>2016-04-02T11:36:43Z</time>
      </trkpt>
      <trkpt lat="42.93044" lon="0.10421">
        <ele>2217</ele>
        <time>2016-04-02T11:37:02Z</time>
      </trkpt>
      <trkpt lat="42.93043" lon="0.10423">
        <ele>2219</ele>
        <time>2016-04-02T11:37:03Z</time>
      </trkpt>
      <trkpt lat="42.93042" lon="0.10439">
        <ele>2220</ele>
        <time>2016-04-02T11:37:21Z</time>
      </trkpt>
      <trkpt lat="42.93042" lon="0.10439">
        <ele>2221</ele>
        <time>2016-04-02T11:37:22Z</time>
      </trkpt>
      <trkpt lat="42.9305" lon="0.10443">
        <ele>2222</ele>
        <time>2016-04-02T11:37:41Z</time>
      </trkpt>
      <trkpt lat="42.93049" lon="0.10447">
        <ele>2224</ele>
        <time>2016-04-02T11:37:45Z</time>
      </trkpt>
      <trkpt lat="42.93079" lon="0.10498">
        <ele>2230</ele>
        <time>2016-04-02T11:39:16Z</time>
      </trkpt>
      <trkpt lat="42.93078" lon="0.10499">
        <ele>2231</ele>
        <time>2016-04-02T11:39:17Z</time>
      </trkpt>
      <trkpt lat="42.93077" lon="0.10507">
        <ele>2232</ele>
        <time>2016-04-02T11:39:36Z</time>
      </trkpt>
      <trkpt lat="42.93076" lon="0.10509">
        <ele>2235</ele>
        <time>2016-04-02T11:39:39Z</time>
      </trkpt>
      <trkpt lat="42.93074" lon="0.1051">
        <ele>2238</ele>
        <time>2016-04-02T11:39:55Z</time>
      </trkpt>
      <trkpt lat="42.93074" lon="0.1051">
        <ele>2239</ele>
        <time>2016-04-02T11:39:56Z</time>
      </trkpt>
      <trkpt lat="42.93074" lon="0.1051">
        <ele>2241</ele>
        <time>2016-04-02T11:40:14Z</time>
      </trkpt>
      <trkpt lat="42.93074" lon="0.1051">
        <ele>2241</ele>
        <time>2016-04-02T11:40:15Z</time>
      </trkpt>
      <trkpt lat="42.93073" lon="0.10524">
        <ele>2242</ele>
        <time>2016-04-02T11:40:35Z</time>
      </trkpt>
      <trkpt lat="42.93071" lon="0.10528">
        <ele>2243</ele>
        <time>2016-04-02T11:40:38Z</time>
      </trkpt>
      <trkpt lat="42.93078" lon="0.10546">
        <ele>2243</ele>
        <time>2016-04-02T11:40:54Z</time>
      </trkpt>
      <trkpt lat="42.93077" lon="0.10552">
        <ele>2244</ele>
        <time>2016-04-02T11:40:58Z</time>
      </trkpt>
      <trkpt lat="42.93083" lon="0.10576">
        <ele>2245</ele>
        <time>2016-04-02T11:41:26Z</time>
      </trkpt>
      <trkpt lat="42.93082" lon="0.10596">
        <ele>2245</ele>
        <time>2016-04-02T11:41:51Z</time>
      </trkpt>
      <trkpt lat="42.93082" lon="0.10597">
        <ele>2245</ele>
        <time>2016-04-02T11:41:52Z</time>
      </trkpt>
      <trkpt lat="42.93078" lon="0.10616">
        <ele>2247</ele>
        <time>2016-04-02T11:42:10Z</time>
      </trkpt>
      <trkpt lat="42.93078" lon="0.10617">
        <ele>2248</ele>
        <time>2016-04-02T11:42:11Z</time>
      </trkpt>
      <trkpt lat="42.93073" lon="0.10635">
        <ele>2249</ele>
        <time>2016-04-02T11:42:29Z</time>
      </trkpt>
      <trkpt lat="42.93074" lon="0.10637">
        <ele>2250</ele>
        <time>2016-04-02T11:42:32Z</time>
      </trkpt>
      <trkpt lat="42.93071" lon="0.10647">
        <ele>2252</ele>
        <time>2016-04-02T11:42:48Z</time>
      </trkpt>
      <trkpt lat="42.93071" lon="0.10648">
        <ele>2253</ele>
        <time>2016-04-02T11:42:49Z</time>
      </trkpt>
      <trkpt lat="42.9307" lon="0.10665">
        <ele>2254</ele>
        <time>2016-04-02T11:43:08Z</time>
      </trkpt>
      <trkpt lat="42.93071" lon="0.10665">
        <ele>2256</ele>
        <time>2016-04-02T11:43:09Z</time>
      </trkpt>
      <trkpt lat="42.93073" lon="0.10673">
        <ele>2256</ele>
        <time>2016-04-02T11:43:27Z</time>
      </trkpt>
      <trkpt lat="42.93073" lon="0.10673">
        <ele>2256</ele>
        <time>2016-04-02T11:43:31Z</time>
      </trkpt>
      <trkpt lat="42.93073" lon="0.10674">
        <ele>2256</ele>
        <time>2016-04-02T11:43:46Z</time>
      </trkpt>
      <trkpt lat="42.93073" lon="0.10674">
        <ele>2255</ele>
        <time>2016-04-02T11:43:47Z</time>
      </trkpt>
      <trkpt lat="42.93074" lon="0.10683">
        <ele>2255</ele>
        <time>2016-04-02T11:44:06Z</time>
      </trkpt>
      <trkpt lat="42.93074" lon="0.10687">
        <ele>2256</ele>
        <time>2016-04-02T11:44:09Z</time>
      </trkpt>
      <trkpt lat="42.93077" lon="0.10701">
        <ele>2258</ele>
        <time>2016-04-02T11:44:25Z</time>
      </trkpt>
      <trkpt lat="42.93078" lon="0.10702">
        <ele>2259</ele>
        <time>2016-04-02T11:44:26Z</time>
      </trkpt>
      <trkpt lat="42.93081" lon="0.1072">
        <ele>2260</ele>
        <time>2016-04-02T11:44:44Z</time>
      </trkpt>
      <trkpt lat="42.93083" lon="0.10718">
        <ele>2260</ele>
        <time>2016-04-02T11:44:45Z</time>
      </trkpt>
      <trkpt lat="42.93083" lon="0.10739">
        <ele>2261</ele>
        <time>2016-04-02T11:45:04Z</time>
      </trkpt>
      <trkpt lat="42.93083" lon="0.1074">
        <ele>2262</ele>
        <time>2016-04-02T11:45:06Z</time>
      </trkpt>
      <trkpt lat="42.93086" lon="0.10739">
        <ele>2265</ele>
        <time>2016-04-02T11:45:23Z</time>
      </trkpt>
      <trkpt lat="42.93086" lon="0.10741">
        <ele>2268</ele>
        <time>2016-04-02T11:45:24Z</time>
      </trkpt>
      <trkpt lat="42.93085" lon="0.10754">
        <ele>2270</ele>
        <time>2016-04-02T11:45:43Z</time>
      </trkpt>
      <trkpt lat="42.93086" lon="0.10754">
        <ele>2271</ele>
        <time>2016-04-02T11:45:44Z</time>
      </trkpt>
      <trkpt lat="42.93083" lon="0.10767">
        <ele>2273</ele>
        <time>2016-04-02T11:46:02Z</time>
      </trkpt>
      <trkpt lat="42.93083" lon="0.10767">
        <ele>2272</ele>
        <time>2016-04-02T11:46:03Z</time>
      </trkpt>
      <trkpt lat="42.93082" lon="0.10783">
        <ele>2272</ele>
        <time>2016-04-02T11:46:21Z</time>
      </trkpt>
      <trkpt lat="42.93083" lon="0.10783">
        <ele>2272</ele>
        <time>2016-04-02T11:46:22Z</time>
      </trkpt>
      <trkpt lat="42.93083" lon="0.10794">
        <ele>2273</ele>
        <time>2016-04-02T11:46:41Z</time>
      </trkpt>
      <trkpt lat="42.93084" lon="0.10794">
        <ele>2274</ele>
        <time>2016-04-02T11:46:42Z</time>
      </trkpt>
      <trkpt lat="42.93082" lon="0.10807">
        <ele>2274</ele>
        <time>2016-04-02T11:46:59Z</time>
      </trkpt>
      <trkpt lat="42.93082" lon="0.10808">
        <ele>2275</ele>
        <time>2016-04-02T11:47:00Z</time>
      </trkpt>
      <trkpt lat="42.93084" lon="0.10812">
        <ele>2276</ele>
        <time>2016-04-02T11:47:19Z</time>
      </trkpt>
      <trkpt lat="42.93085" lon="0.10813">
        <ele>2275</ele>
        <time>2016-04-02T11:47:20Z</time>
      </trkpt>
      <trkpt lat="42.93082" lon="0.10835">
        <ele>2276</ele>
        <time>2016-04-02T11:47:38Z</time>
      </trkpt>
      <trkpt lat="42.93082" lon="0.10835">
        <ele>2276</ele>
        <time>2016-04-02T11:47:39Z</time>
      </trkpt>
      <trkpt lat="42.93079" lon="0.10853">
        <ele>2278</ele>
        <time>2016-04-02T11:47:57Z</time>
      </trkpt>
      <trkpt lat="42.93079" lon="0.10854">
        <ele>2280</ele>
        <time>2016-04-02T11:47:58Z</time>
      </trkpt>
      <trkpt lat="42.93079" lon="0.10869">
        <ele>2283</ele>
        <time>2016-04-02T11:48:16Z</time>
      </trkpt>
      <trkpt lat="42.93079" lon="0.10869">
        <ele>2285</ele>
        <time>2016-04-02T11:48:17Z</time>
      </trkpt>
      <trkpt lat="42.93083" lon="0.10881">
        <ele>2286</ele>
        <time>2016-04-02T11:48:36Z</time>
      </trkpt>
      <trkpt lat="42.93084" lon="0.10881">
        <ele>2286</ele>
        <time>2016-04-02T11:48:37Z</time>
      </trkpt>
      <trkpt lat="42.93088" lon="0.1089">
        <ele>2286</ele>
        <time>2016-04-02T11:48:56Z</time>
      </trkpt>
      <trkpt lat="42.93087" lon="0.10893">
        <ele>2285</ele>
        <time>2016-04-02T11:48:57Z</time>
      </trkpt>
      <trkpt lat="42.93091" lon="0.10907">
        <ele>2286</ele>
        <time>2016-04-02T11:49:17Z</time>
      </trkpt>
      <trkpt lat="42.93093" lon="0.10906">
        <ele>2287</ele>
        <time>2016-04-02T11:49:18Z</time>
      </trkpt>
      <trkpt lat="42.93093" lon="0.10924">
        <ele>2289</ele>
        <time>2016-04-02T11:49:37Z</time>
      </trkpt>
      <trkpt lat="42.93094" lon="0.10923">
        <ele>2291</ele>
        <time>2016-04-02T11:49:38Z</time>
      </trkpt>
      <trkpt lat="42.93094" lon="0.10941">
        <ele>2294</ele>
        <time>2016-04-02T11:49:57Z</time>
      </trkpt>
      <trkpt lat="42.93094" lon="0.10942">
        <ele>2295</ele>
        <time>2016-04-02T11:49:58Z</time>
      </trkpt>
      <trkpt lat="42.93096" lon="0.10947">
        <ele>2296</ele>
        <time>2016-04-02T11:50:16Z</time>
      </trkpt>
      <trkpt lat="42.93096" lon="0.10948">
        <ele>2297</ele>
        <time>2016-04-02T11:50:17Z</time>
      </trkpt>
      <trkpt lat="42.93098" lon="0.10958">
        <ele>2298</ele>
        <time>2016-04-02T11:50:35Z</time>
      </trkpt>
      <trkpt lat="42.93099" lon="0.10958">
        <ele>2299</ele>
        <time>2016-04-02T11:50:36Z</time>
      </trkpt>
      <trkpt lat="42.931" lon="0.10971">
        <ele>2300</ele>
        <time>2016-04-02T11:50:55Z</time>
      </trkpt>
      <trkpt lat="42.931" lon="0.10971">
        <ele>2301</ele>
        <time>2016-04-02T11:50:56Z</time>
      </trkpt>
      <trkpt lat="42.93101" lon="0.10975">
        <ele>2302</ele>
        <time>2016-04-02T11:51:16Z</time>
      </trkpt>
      <trkpt lat="42.93102" lon="0.10977">
        <ele>2303</ele>
        <time>2016-04-02T11:51:19Z</time>
      </trkpt>
      <trkpt lat="42.93102" lon="0.10989">
        <ele>2304</ele>
        <time>2016-04-02T11:51:34Z</time>
      </trkpt>
      <trkpt lat="42.93101" lon="0.10991">
        <ele>2305</ele>
        <time>2016-04-02T11:51:35Z</time>
      </trkpt>
      <trkpt lat="42.93099" lon="0.11002">
        <ele>2307</ele>
        <time>2016-04-02T11:51:53Z</time>
      </trkpt>
      <trkpt lat="42.93098" lon="0.11003">
        <ele>2309</ele>
        <time>2016-04-02T11:51:54Z</time>
      </trkpt>
      <trkpt lat="42.93097" lon="0.1101">
        <ele>2312</ele>
        <time>2016-04-02T11:52:13Z</time>
      </trkpt>
      <trkpt lat="42.93097" lon="0.1101">
        <ele>2314</ele>
        <time>2016-04-02T11:52:14Z</time>
      </trkpt>
      <trkpt lat="42.931" lon="0.11013">
        <ele>2316</ele>
        <time>2016-04-02T11:52:32Z</time>
      </trkpt>
      <trkpt lat="42.93101" lon="0.11012">
        <ele>2316</ele>
        <time>2016-04-02T11:52:33Z</time>
      </trkpt>
      <trkpt lat="42.93095" lon="0.11031">
        <ele>2317</ele>
        <time>2016-04-02T11:52:51Z</time>
      </trkpt>
      <trkpt lat="42.93095" lon="0.11031">
        <ele>2318</ele>
        <time>2016-04-02T11:52:52Z</time>
      </trkpt>
      <trkpt lat="42.93095" lon="0.11046">
        <ele>2318</ele>
        <time>2016-04-02T11:53:11Z</time>
      </trkpt>
      <trkpt lat="42.93096" lon="0.11046">
        <ele>2319</ele>
        <time>2016-04-02T11:53:14Z</time>
      </trkpt>
      <trkpt lat="42.931" lon="0.11043">
        <ele>2319</ele>
        <time>2016-04-02T11:53:30Z</time>
      </trkpt>
      <trkpt lat="42.931" lon="0.11044">
        <ele>2319</ele>
        <time>2016-04-02T11:53:34Z</time>
      </trkpt>
      <trkpt lat="42.931" lon="0.11044">
        <ele>2318</ele>
        <time>2016-04-02T11:53:49Z</time>
      </trkpt>
      <trkpt lat="42.931" lon="0.11044">
        <ele>2319</ele>
        <time>2016-04-02T11:53:50Z</time>
      </trkpt>
      <trkpt lat="42.93099" lon="0.11047">
        <ele>2318</ele>
        <time>2016-04-02T11:54:08Z</time>
      </trkpt>
      <trkpt lat="42.93099" lon="0.11048">
        <ele>2319</ele>
        <time>2016-04-02T11:54:09Z</time>
      </trkpt>
      <trkpt lat="42.93095" lon="0.11071">
        <ele>2320</ele>
        <time>2016-04-02T11:54:28Z</time>
      </trkpt>
      <trkpt lat="42.93095" lon="0.11072">
        <ele>2321</ele>
        <time>2016-04-02T11:54:31Z</time>
      </trkpt>
      <trkpt lat="42.93091" lon="0.11086">
        <ele>2322</ele>
        <time>2016-04-02T11:54:46Z</time>
      </trkpt>
      <trkpt lat="42.93091" lon="0.11087">
        <ele>2324</ele>
        <time>2016-04-02T11:54:47Z</time>
      </trkpt>
      <trkpt lat="42.93091" lon="0.11088">
        <ele>2326</ele>
        <time>2016-04-02T11:55:05Z</time>
      </trkpt>
      <trkpt lat="42.93091" lon="0.11088">
        <ele>2327</ele>
        <time>2016-04-02T11:55:06Z</time>
      </trkpt>
      <trkpt lat="42.93083" lon="0.11106">
        <ele>2329</ele>
        <time>2016-04-02T11:55:25Z</time>
      </trkpt>
      <trkpt lat="42.93083" lon="0.11107">
        <ele>2330</ele>
        <time>2016-04-02T11:55:26Z</time>
      </trkpt>
      <trkpt lat="42.93081" lon="0.11116">
        <ele>2332</ele>
        <time>2016-04-02T11:55:44Z</time>
      </trkpt>
      <trkpt lat="42.93082" lon="0.11116">
        <ele>2333</ele>
        <time>2016-04-02T11:55:45Z</time>
      </trkpt>
      <trkpt lat="42.93079" lon="0.11124">
        <ele>2334</ele>
        <time>2016-04-02T11:56:05Z</time>
      </trkpt>
      <trkpt lat="42.93079" lon="0.11124">
        <ele>2336</ele>
        <time>2016-04-02T11:56:08Z</time>
      </trkpt>
      <trkpt lat="42.93079" lon="0.11124">
        <ele>2337</ele>
        <time>2016-04-02T11:56:24Z</time>
      </trkpt>
      <trkpt lat="42.93079" lon="0.11124">
        <ele>2338</ele>
        <time>2016-04-02T11:56:25Z</time>
      </trkpt>
      <trkpt lat="42.93079" lon="0.1113">
        <ele>2338</ele>
        <time>2016-04-02T11:56:43Z</time>
      </trkpt>
      <trkpt lat="42.93078" lon="0.11131">
        <ele>2338</ele>
        <time>2016-04-02T11:56:44Z</time>
      </trkpt>
      <trkpt lat="42.93072" lon="0.11145">
        <ele>2339</ele>
        <time>2016-04-02T11:57:03Z</time>
      </trkpt>
      <trkpt lat="42.93072" lon="0.11146">
        <ele>2340</ele>
        <time>2016-04-02T11:57:04Z</time>
      </trkpt>
      <trkpt lat="42.93068" lon="0.11155">
        <ele>2342</ele>
        <time>2016-04-02T11:57:21Z</time>
      </trkpt>
      <trkpt lat="42.93067" lon="0.11156">
        <ele>2345</ele>
        <time>2016-04-02T11:57:22Z</time>
      </trkpt>
      <trkpt lat="42.93067" lon="0.11166">
        <ele>2348</ele>
        <time>2016-04-02T11:57:41Z</time>
      </trkpt>
      <trkpt lat="42.93066" lon="0.11166">
        <ele>2349</ele>
        <time>2016-04-02T11:57:42Z</time>
      </trkpt>
      <trkpt lat="42.93068" lon="0.11167">
        <ele>2349</ele>
        <time>2016-04-02T11:58:00Z</time>
      </trkpt>
      <trkpt lat="42.93068" lon="0.11167">
        <ele>2347</ele>
        <time>2016-04-02T11:58:01Z</time>
      </trkpt>
      <trkpt lat="42.93066" lon="0.11172">
        <ele>2346</ele>
        <time>2016-04-02T11:58:20Z</time>
      </trkpt>
      <trkpt lat="42.93065" lon="0.11174">
        <ele>2345</ele>
        <time>2016-04-02T11:58:21Z</time>
      </trkpt>
      <trkpt lat="42.93063" lon="0.11186">
        <ele>2345</ele>
        <time>2016-04-02T11:58:38Z</time>
      </trkpt>
      <trkpt lat="42.93063" lon="0.11187">
        <ele>2347</ele>
        <time>2016-04-02T11:58:39Z</time>
      </trkpt>
      <trkpt lat="42.93063" lon="0.11199">
        <ele>2349</ele>
        <time>2016-04-02T11:58:57Z</time>
      </trkpt>
      <trkpt lat="42.93062" lon="0.112">
        <ele>2351</ele>
        <time>2016-04-02T11:58:58Z</time>
      </trkpt>
      <trkpt lat="42.9306" lon="0.11202">
        <ele>2354</ele>
        <time>2016-04-02T11:59:17Z</time>
      </trkpt>
      <trkpt lat="42.93059" lon="0.11202">
        <ele>2356</ele>
        <time>2016-04-02T11:59:18Z</time>
      </trkpt>
      <trkpt lat="42.93056" lon="0.11211">
        <ele>2359</ele>
        <time>2016-04-02T11:59:36Z</time>
      </trkpt>
      <trkpt lat="42.93055" lon="0.11212">
        <ele>2361</ele>
        <time>2016-04-02T11:59:37Z</time>
      </trkpt>
      <trkpt lat="42.93058" lon="0.11222">
        <ele>2362</ele>
        <time>2016-04-02T11:59:56Z</time>
      </trkpt>
      <trkpt lat="42.93058" lon="0.11222">
        <ele>2363</ele>
        <time>2016-04-02T11:59:56Z</time>
      </trkpt>
      <trkpt lat="42.9306" lon="0.11223">
        <ele>2363</ele>
        <time>2016-04-02T12:00:01Z</time>
      </trkpt>
      <trkpt lat="42.93078" lon="0.11198">
        <ele>2362</ele>
        <time>2016-04-02T12:00:12Z</time>
      </trkpt>
      <trkpt lat="42.93074" lon="0.1126">
        <ele>2373</ele>
        <time>2016-04-02T12:01:54Z</time>
      </trkpt>
      <trkpt lat="42.93081" lon="0.11259">
        <ele>2374</ele>
        <time>2016-04-02T12:02:09Z</time>
      </trkpt>
      <trkpt lat="42.93083" lon="0.11259">
        <ele>2375</ele>
        <time>2016-04-02T12:02:10Z</time>
      </trkpt>
      <trkpt lat="42.93086" lon="0.11258">
        <ele>2376</ele>
        <time>2016-04-02T12:02:27Z</time>
      </trkpt>
      <trkpt lat="42.93086" lon="0.11258">
        <ele>2378</ele>
        <time>2016-04-02T12:02:28Z</time>
      </trkpt>
      <trkpt lat="42.93089" lon="0.1126">
        <ele>2379</ele>
        <time>2016-04-02T12:02:46Z</time>
      </trkpt>
      <trkpt lat="42.93089" lon="0.11261">
        <ele>2378</ele>
        <time>2016-04-02T12:02:47Z</time>
      </trkpt>
      <trkpt lat="42.93098" lon="0.11264">
        <ele>2379</ele>
        <time>2016-04-02T12:03:05Z</time>
      </trkpt>
      <trkpt lat="42.93098" lon="0.11264">
        <ele>2379</ele>
        <time>2016-04-02T12:03:07Z</time>
      </trkpt>
      <trkpt lat="42.93103" lon="0.11269">
        <ele>2380</ele>
        <time>2016-04-02T12:03:22Z</time>
      </trkpt>
      <trkpt lat="42.93103" lon="0.11269">
        <ele>2381</ele>
        <time>2016-04-02T12:03:23Z</time>
      </trkpt>
      <trkpt lat="42.93104" lon="0.11269">
        <ele>2382</ele>
        <time>2016-04-02T12:03:41Z</time>
      </trkpt>
      <trkpt lat="42.93104" lon="0.11269">
        <ele>2383</ele>
        <time>2016-04-02T12:03:42Z</time>
      </trkpt>
      <trkpt lat="42.93105" lon="0.11271">
        <ele>2383</ele>
        <time>2016-04-02T12:04:00Z</time>
      </trkpt>
      <trkpt lat="42.93107" lon="0.1127">
        <ele>2383</ele>
        <time>2016-04-02T12:04:01Z</time>
      </trkpt>
      <trkpt lat="42.93113" lon="0.11272">
        <ele>2383</ele>
        <time>2016-04-02T12:04:18Z</time>
      </trkpt>
      <trkpt lat="42.93114" lon="0.11271">
        <ele>2383</ele>
        <time>2016-04-02T12:04:19Z</time>
      </trkpt>
      <trkpt lat="42.9312" lon="0.11265">
        <ele>2384</ele>
        <time>2016-04-02T12:04:38Z</time>
      </trkpt>
      <trkpt lat="42.93121" lon="0.11265">
        <ele>2385</ele>
        <time>2016-04-02T12:04:39Z</time>
      </trkpt>
      <trkpt lat="42.93124" lon="0.11269">
        <ele>2386</ele>
        <time>2016-04-02T12:04:58Z</time>
      </trkpt>
      <trkpt lat="42.93124" lon="0.11269">
        <ele>2387</ele>
        <time>2016-04-02T12:04:59Z</time>
      </trkpt>
      <trkpt lat="42.9313" lon="0.11276">
        <ele>2388</ele>
        <time>2016-04-02T12:05:16Z</time>
      </trkpt>
      <trkpt lat="42.9313" lon="0.11277">
        <ele>2389</ele>
        <time>2016-04-02T12:05:17Z</time>
      </trkpt>
      <trkpt lat="42.93131" lon="0.11276">
        <ele>2390</ele>
        <time>2016-04-02T12:05:35Z</time>
      </trkpt>
      <trkpt lat="42.93131" lon="0.11276">
        <ele>2390</ele>
        <time>2016-04-02T12:05:36Z</time>
      </trkpt>
      <trkpt lat="42.93131" lon="0.11276">
        <ele>2391</ele>
        <time>2016-04-02T12:05:55Z</time>
      </trkpt>
      <trkpt lat="42.93131" lon="0.11276">
        <ele>2391</ele>
        <time>2016-04-02T12:05:56Z</time>
      </trkpt>
      <trkpt lat="42.93131" lon="0.11276">
        <ele>2392</ele>
        <time>2016-04-02T12:06:13Z</time>
      </trkpt>
      <trkpt lat="42.93131" lon="0.11276">
        <ele>2392</ele>
        <time>2016-04-02T12:06:14Z</time>
      </trkpt>
      <trkpt lat="42.93131" lon="0.11276">
        <ele>2392</ele>
        <time>2016-04-02T12:06:33Z</time>
      </trkpt>
      <trkpt lat="42.93131" lon="0.11276">
        <ele>2392</ele>
        <time>2016-04-02T12:06:34Z</time>
      </trkpt>
      <trkpt lat="42.93131" lon="0.11276">
        <ele>2392</ele>
        <time>2016-04-02T12:06:53Z</time>
      </trkpt>
      <trkpt lat="42.93131" lon="0.11276">
        <ele>2392</ele>
        <time>2016-04-02T12:06:54Z</time>
      </trkpt>
      <trkpt lat="42.9313" lon="0.11277">
        <ele>2392</ele>
        <time>2016-04-02T12:07:11Z</time>
      </trkpt>
      <trkpt lat="42.9313" lon="0.11277">
        <ele>2392</ele>
        <time>2016-04-02T12:07:12Z</time>
      </trkpt>
      <trkpt lat="42.93132" lon="0.11277">
        <ele>2392</ele>
        <time>2016-04-02T12:07:31Z</time>
      </trkpt>
      <trkpt lat="42.93132" lon="0.11277">
        <ele>2393</ele>
        <time>2016-04-02T12:07:32Z</time>
      </trkpt>
      <trkpt lat="42.93132" lon="0.11277">
        <ele>2393</ele>
        <time>2016-04-02T12:07:51Z</time>
      </trkpt>
      <trkpt lat="42.93132" lon="0.11277">
        <ele>2393</ele>
        <time>2016-04-02T12:07:52Z</time>
      </trkpt>
      <trkpt lat="42.93132" lon="0.11277">
        <ele>2394</ele>
        <time>2016-04-02T12:08:10Z</time>
      </trkpt>
      <trkpt lat="42.93132" lon="0.11277">
        <ele>2394</ele>
        <time>2016-04-02T12:08:11Z</time>
      </trkpt>
      <trkpt lat="42.93132" lon="0.11277">
        <ele>2394</ele>
        <time>2016-04-02T12:08:30Z</time>
      </trkpt>
      <trkpt lat="42.93132" lon="0.11277">
        <ele>2394</ele>
        <time>2016-04-02T12:08:31Z</time>
      </trkpt>
      <trkpt lat="42.93132" lon="0.11277">
        <ele>2394</ele>
        <time>2016-04-02T12:08:48Z</time>
      </trkpt>
      <trkpt lat="42.93132" lon="0.11277">
        <ele>2394</ele>
        <time>2016-04-02T12:08:49Z</time>
      </trkpt>
      <trkpt lat="42.93132" lon="0.11277">
        <ele>2394</ele>
        <time>2016-04-02T12:09:07Z</time>
      </trkpt>
      <trkpt lat="42.93132" lon="0.11277">
        <ele>2394</ele>
        <time>2016-04-02T12:09:08Z</time>
      </trkpt>
      <trkpt lat="42.93132" lon="0.11277">
        <ele>2394</ele>
        <time>2016-04-02T12:09:27Z</time>
      </trkpt>
      <trkpt lat="42.93132" lon="0.11277">
        <ele>2394</ele>
        <time>2016-04-02T12:09:28Z</time>
      </trkpt>
      <trkpt lat="42.93132" lon="0.11277">
        <ele>2394</ele>
        <time>2016-04-02T12:09:47Z</time>
      </trkpt>
      <trkpt lat="42.93132" lon="0.11277">
        <ele>2394</ele>
        <time>2016-04-02T12:09:48Z</time>
      </trkpt>
      <trkpt lat="42.93132" lon="0.11277">
        <ele>2394</ele>
        <time>2016-04-02T12:10:06Z</time>
      </trkpt>
      <trkpt lat="42.93132" lon="0.11277">
        <ele>2394</ele>
        <time>2016-04-02T12:10:07Z</time>
      </trkpt>
      <trkpt lat="42.93132" lon="0.11277">
        <ele>2394</ele>
        <time>2016-04-02T12:10:25Z</time>
      </trkpt>
      <trkpt lat="42.93132" lon="0.11277">
        <ele>2394</ele>
        <time>2016-04-02T12:10:26Z</time>
      </trkpt>
      <trkpt lat="42.93132" lon="0.11277">
        <ele>2394</ele>
        <time>2016-04-02T12:10:45Z</time>
      </trkpt>
      <trkpt lat="42.93132" lon="0.11277">
        <ele>2394</ele>
        <time>2016-04-02T12:10:46Z</time>
      </trkpt>
      <trkpt lat="42.93132" lon="0.11277">
        <ele>2394</ele>
        <time>2016-04-02T12:11:04Z</time>
      </trkpt>
      <trkpt lat="42.93132" lon="0.11277">
        <ele>2394</ele>
        <time>2016-04-02T12:11:05Z</time>
      </trkpt>
      <trkpt lat="42.93132" lon="0.11277">
        <ele>2394</ele>
        <time>2016-04-02T12:11:23Z</time>
      </trkpt>
      <trkpt lat="42.93132" lon="0.11277">
        <ele>2394</ele>
        <time>2016-04-02T12:11:24Z</time>
      </trkpt>
      <trkpt lat="42.93132" lon="0.11277">
        <ele>2394</ele>
        <time>2016-04-02T12:11:44Z</time>
      </trkpt>
      <trkpt lat="42.93132" lon="0.11277">
        <ele>2394</ele>
        <time>2016-04-02T12:11:45Z</time>
      </trkpt>
      <trkpt lat="42.93132" lon="0.11277">
        <ele>2394</ele>
        <time>2016-04-02T12:12:02Z</time>
      </trkpt>
      <trkpt lat="42.93132" lon="0.11277">
        <ele>2394</ele>
        <time>2016-04-02T12:12:03Z</time>
      </trkpt>
      <trkpt lat="42.93132" lon="0.11277">
        <ele>2394</ele>
        <time>2016-04-02T12:12:20Z</time>
      </trkpt>
      <trkpt lat="42.93132" lon="0.11277">
        <ele>2394</ele>
        <time>2016-04-02T12:12:21Z</time>
      </trkpt>
      <trkpt lat="42.9313" lon="0.11279">
        <ele>2394</ele>
        <time>2016-04-02T12:12:40Z</time>
      </trkpt>
      <trkpt lat="42.9313" lon="0.11279">
        <ele>2394</ele>
        <time>2016-04-02T12:12:42Z</time>
      </trkpt>
      <trkpt lat="42.9313" lon="0.11279">
        <ele>2394</ele>
        <time>2016-04-02T12:12:58Z</time>
      </trkpt>
      <trkpt lat="42.9313" lon="0.11279">
        <ele>2394</ele>
        <time>2016-04-02T12:12:59Z</time>
      </trkpt>
      <trkpt lat="42.93131" lon="0.11281">
        <ele>2395</ele>
        <time>2016-04-02T12:13:18Z</time>
      </trkpt>
      <trkpt lat="42.93131" lon="0.11281">
        <ele>2395</ele>
        <time>2016-04-02T12:13:19Z</time>
      </trkpt>
      <trkpt lat="42.93132" lon="0.11281">
        <ele>2395</ele>
        <time>2016-04-02T12:13:38Z</time>
      </trkpt>
      <trkpt lat="42.93132" lon="0.11281">
        <ele>2395</ele>
        <time>2016-04-02T12:13:39Z</time>
      </trkpt>
      <trkpt lat="42.93132" lon="0.11281">
        <ele>2395</ele>
        <time>2016-04-02T12:13:56Z</time>
      </trkpt>
      <trkpt lat="42.93132" lon="0.11281">
        <ele>2396</ele>
        <time>2016-04-02T12:13:57Z</time>
      </trkpt>
      <trkpt lat="42.93132" lon="0.11281">
        <ele>2396</ele>
        <time>2016-04-02T12:14:15Z</time>
      </trkpt>
      <trkpt lat="42.93132" lon="0.11281">
        <ele>2396</ele>
        <time>2016-04-02T12:14:16Z</time>
      </trkpt>
      <trkpt lat="42.93132" lon="0.11281">
        <ele>2396</ele>
        <time>2016-04-02T12:14:33Z</time>
      </trkpt>
      <trkpt lat="42.93132" lon="0.11281">
        <ele>2396</ele>
        <time>2016-04-02T12:14:34Z</time>
      </trkpt>
      <trkpt lat="42.93131" lon="0.11282">
        <ele>2395</ele>
        <time>2016-04-02T12:14:52Z</time>
      </trkpt>
      <trkpt lat="42.93131" lon="0.11282">
        <ele>2394</ele>
        <time>2016-04-02T12:14:53Z</time>
      </trkpt>
      <trkpt lat="42.93132" lon="0.11287">
        <ele>2393</ele>
        <time>2016-04-02T12:15:11Z</time>
      </trkpt>
      <trkpt lat="42.93133" lon="0.11287">
        <ele>2392</ele>
        <time>2016-04-02T12:15:12Z</time>
      </trkpt>
      <trkpt lat="42.93135" lon="0.11286">
        <ele>2391</ele>
        <time>2016-04-02T12:15:31Z</time>
      </trkpt>
      <trkpt lat="42.93135" lon="0.11285">
        <ele>2391</ele>
        <time>2016-04-02T12:15:32Z</time>
      </trkpt>
      <trkpt lat="42.93135" lon="0.11285">
        <ele>2391</ele>
        <time>2016-04-02T12:15:50Z</time>
      </trkpt>
      <trkpt lat="42.93135" lon="0.11285">
        <ele>2391</ele>
        <time>2016-04-02T12:15:51Z</time>
      </trkpt>
      <trkpt lat="42.93125" lon="0.11283">
        <ele>2390</ele>
        <time>2016-04-02T12:16:09Z</time>
      </trkpt>
      <trkpt lat="42.93125" lon="0.11283">
        <ele>2389</ele>
        <time>2016-04-02T12:16:10Z</time>
      </trkpt>
      <trkpt lat="42.93124" lon="0.11281">
        <ele>2389</ele>
        <time>2016-04-02T12:16:28Z</time>
      </trkpt>
      <trkpt lat="42.93124" lon="0.11281">
        <ele>2388</ele>
        <time>2016-04-02T12:16:28Z</time>
      </trkpt>
      <trkpt lat="42.93118" lon="0.11275">
        <ele>2386</ele>
        <time>2016-04-02T12:16:46Z</time>
      </trkpt>
      <trkpt lat="42.93118" lon="0.11275">
        <ele>2384</ele>
        <time>2016-04-02T12:16:47Z</time>
      </trkpt>
      <trkpt lat="42.93116" lon="0.11296">
        <ele>2381</ele>
        <time>2016-04-02T12:17:04Z</time>
      </trkpt>
      <trkpt lat="42.93116" lon="0.11296">
        <ele>2378</ele>
        <time>2016-04-02T12:17:05Z</time>
      </trkpt>
      <trkpt lat="42.93115" lon="0.11297">
        <ele>2376</ele>
        <time>2016-04-02T12:17:23Z</time>
      </trkpt>
      <trkpt lat="42.93115" lon="0.11297">
        <ele>2376</ele>
        <time>2016-04-02T12:17:24Z</time>
      </trkpt>
      <trkpt lat="42.93102" lon="0.1132">
        <ele>2376</ele>
        <time>2016-04-02T12:17:40Z</time>
      </trkpt>
      <trkpt lat="42.93084" lon="0.11328">
        <ele>2376</ele>
        <time>2016-04-02T12:17:45Z</time>
      </trkpt>
      <trkpt lat="42.9306" lon="0.11328">
        <ele>2371</ele>
        <time>2016-04-02T12:17:52Z</time>
      </trkpt>
      <trkpt lat="42.93045" lon="0.11343">
        <ele>2363</ele>
        <time>2016-04-02T12:17:57Z</time>
      </trkpt>
      <trkpt lat="42.93039" lon="0.11359">
        <ele>2353</ele>
        <time>2016-04-02T12:18:22Z</time>
      </trkpt>
      <trkpt lat="42.93039" lon="0.11359">
        <ele>2343</ele>
        <time>2016-04-02T12:18:23Z</time>
      </trkpt>
      <trkpt lat="42.93041" lon="0.11362">
        <ele>2333</ele>
        <time>2016-04-02T12:18:41Z</time>
      </trkpt>
      <trkpt lat="42.93041" lon="0.11362">
        <ele>2328</ele>
        <time>2016-04-02T12:18:42Z</time>
      </trkpt>
      <trkpt lat="42.93038" lon="0.11361">
        <ele>2326</ele>
        <time>2016-04-02T12:19:00Z</time>
      </trkpt>
      <trkpt lat="42.93035" lon="0.11361">
        <ele>2326</ele>
        <time>2016-04-02T12:19:01Z</time>
      </trkpt>
      <trkpt lat="42.93033" lon="0.11362">
        <ele>2326</ele>
        <time>2016-04-02T12:19:02Z</time>
      </trkpt>
      <trkpt lat="42.93018" lon="0.11379">
        <ele>2324</ele>
        <time>2016-04-02T12:19:07Z</time>
      </trkpt>
      <trkpt lat="42.93003" lon="0.11396">
        <ele>2321</ele>
        <time>2016-04-02T12:19:11Z</time>
      </trkpt>
      <trkpt lat="42.92986" lon="0.11417">
        <ele>2317</ele>
        <time>2016-04-02T12:19:15Z</time>
      </trkpt>
      <trkpt lat="42.9297" lon="0.11436">
        <ele>2310</ele>
        <time>2016-04-02T12:19:20Z</time>
      </trkpt>
      <trkpt lat="42.92951" lon="0.11454">
        <ele>2301</ele>
        <time>2016-04-02T12:19:25Z</time>
      </trkpt>
      <trkpt lat="42.92943" lon="0.11478">
        <ele>2292</ele>
        <time>2016-04-02T12:19:30Z</time>
      </trkpt>
      <trkpt lat="42.92923" lon="0.11486">
        <ele>2280</ele>
        <time>2016-04-02T12:19:40Z</time>
      </trkpt>
      <trkpt lat="42.92902" lon="0.11492">
        <ele>2270</ele>
        <time>2016-04-02T12:19:44Z</time>
      </trkpt>
      <trkpt lat="42.92883" lon="0.11495">
        <ele>2263</ele>
        <time>2016-04-02T12:19:51Z</time>
      </trkpt>
      <trkpt lat="42.92865" lon="0.11499">
        <ele>2256</ele>
        <time>2016-04-02T12:20:13Z</time>
      </trkpt>
      <trkpt lat="42.92847" lon="0.11503">
        <ele>2252</ele>
        <time>2016-04-02T12:20:23Z</time>
      </trkpt>
      <trkpt lat="42.92827" lon="0.11507">
        <ele>2250</ele>
        <time>2016-04-02T12:20:31Z</time>
      </trkpt>
      <trkpt lat="42.92807" lon="0.11509">
        <ele>2247</ele>
        <time>2016-04-02T12:20:40Z</time>
      </trkpt>
      <trkpt lat="42.9279" lon="0.11515">
        <ele>2245</ele>
        <time>2016-04-02T12:20:55Z</time>
      </trkpt>
      <trkpt lat="42.9279" lon="0.11515">
        <ele>2243</ele>
        <time>2016-04-02T12:20:56Z</time>
      </trkpt>
      <trkpt lat="42.92784" lon="0.11513">
        <ele>2241</ele>
        <time>2016-04-02T12:21:14Z</time>
      </trkpt>
      <trkpt lat="42.92783" lon="0.11512">
        <ele>2240</ele>
        <time>2016-04-02T12:21:15Z</time>
      </trkpt>
      <trkpt lat="42.92764" lon="0.11507">
        <ele>2240</ele>
        <time>2016-04-02T12:21:25Z</time>
      </trkpt>
      <trkpt lat="42.92746" lon="0.11513">
        <ele>2239</ele>
        <time>2016-04-02T12:21:36Z</time>
      </trkpt>
      <trkpt lat="42.92738" lon="0.11517">
        <ele>2239</ele>
        <time>2016-04-02T12:21:52Z</time>
      </trkpt>
      <trkpt lat="42.92738" lon="0.11518">
        <ele>2239</ele>
        <time>2016-04-02T12:21:53Z</time>
      </trkpt>
      <trkpt lat="42.92729" lon="0.11523">
        <ele>2238</ele>
        <time>2016-04-02T12:22:12Z</time>
      </trkpt>
      <trkpt lat="42.92729" lon="0.11523">
        <ele>2238</ele>
        <time>2016-04-02T12:22:13Z</time>
      </trkpt>
      <trkpt lat="42.9273" lon="0.11523">
        <ele>2239</ele>
        <time>2016-04-02T12:22:31Z</time>
      </trkpt>
      <trkpt lat="42.9273" lon="0.11523">
        <ele>2239</ele>
        <time>2016-04-02T12:22:32Z</time>
      </trkpt>
      <trkpt lat="42.92725" lon="0.11525">
        <ele>2239</ele>
        <time>2016-04-02T12:22:50Z</time>
      </trkpt>
      <trkpt lat="42.92723" lon="0.11525">
        <ele>2238</ele>
        <time>2016-04-02T12:22:51Z</time>
      </trkpt>
      <trkpt lat="42.92717" lon="0.11525">
        <ele>2238</ele>
        <time>2016-04-02T12:23:09Z</time>
      </trkpt>
      <trkpt lat="42.92717" lon="0.11525">
        <ele>2238</ele>
        <time>2016-04-02T12:23:10Z</time>
      </trkpt>
      <trkpt lat="42.92717" lon="0.11525">
        <ele>2238</ele>
        <time>2016-04-02T12:23:29Z</time>
      </trkpt>
      <trkpt lat="42.92717" lon="0.11525">
        <ele>2238</ele>
        <time>2016-04-02T12:23:30Z</time>
      </trkpt>
      <trkpt lat="42.92717" lon="0.11525">
        <ele>2239</ele>
        <time>2016-04-02T12:23:47Z</time>
      </trkpt>
      <trkpt lat="42.92717" lon="0.11525">
        <ele>2239</ele>
        <time>2016-04-02T12:23:48Z</time>
      </trkpt>
      <trkpt lat="42.92717" lon="0.11525">
        <ele>2239</ele>
        <time>2016-04-02T12:24:07Z</time>
      </trkpt>
      <trkpt lat="42.92716" lon="0.11525">
        <ele>2239</ele>
        <time>2016-04-02T12:24:08Z</time>
      </trkpt>
      <trkpt lat="42.92697" lon="0.1152">
        <ele>2238</ele>
        <time>2016-04-02T12:24:16Z</time>
      </trkpt>
      <trkpt lat="42.92679" lon="0.11514">
        <ele>2236</ele>
        <time>2016-04-02T12:24:19Z</time>
      </trkpt>
      <trkpt lat="42.92657" lon="0.11508">
        <ele>2234</ele>
        <time>2016-04-02T12:24:22Z</time>
      </trkpt>
      <trkpt lat="42.92637" lon="0.11512">
        <ele>2232</ele>
        <time>2016-04-02T12:24:27Z</time>
      </trkpt>
      <trkpt lat="42.92623" lon="0.11518">
        <ele>2230</ele>
        <time>2016-04-02T12:24:45Z</time>
      </trkpt>
      <trkpt lat="42.92622" lon="0.11519">
        <ele>2228</ele>
        <time>2016-04-02T12:24:46Z</time>
      </trkpt>
      <trkpt lat="42.92603" lon="0.11525">
        <ele>2227</ele>
        <time>2016-04-02T12:24:55Z</time>
      </trkpt>
      <trkpt lat="42.92585" lon="0.11529">
        <ele>2226</ele>
        <time>2016-04-02T12:24:59Z</time>
      </trkpt>
      <trkpt lat="42.92577" lon="0.11522">
        <ele>2225</ele>
        <time>2016-04-02T12:25:24Z</time>
      </trkpt>
      <trkpt lat="42.92577" lon="0.11522">
        <ele>2224</ele>
        <time>2016-04-02T12:25:25Z</time>
      </trkpt>
      <trkpt lat="42.92577" lon="0.11522">
        <ele>2224</ele>
        <time>2016-04-02T12:25:44Z</time>
      </trkpt>
      <trkpt lat="42.92577" lon="0.11522">
        <ele>2224</ele>
        <time>2016-04-02T12:25:45Z</time>
      </trkpt>
      <trkpt lat="42.92559" lon="0.11521">
        <ele>2223</ele>
        <time>2016-04-02T12:25:57Z</time>
      </trkpt>
      <trkpt lat="42.9254" lon="0.11518">
        <ele>2221</ele>
        <time>2016-04-02T12:26:01Z</time>
      </trkpt>
      <trkpt lat="42.9252" lon="0.11531">
        <ele>2217</ele>
        <time>2016-04-02T12:26:05Z</time>
      </trkpt>
      <trkpt lat="42.92503" lon="0.11547">
        <ele>2211</ele>
        <time>2016-04-02T12:26:08Z</time>
      </trkpt>
      <trkpt lat="42.92486" lon="0.11557">
        <ele>2205</ele>
        <time>2016-04-02T12:26:10Z</time>
      </trkpt>
      <trkpt lat="42.92467" lon="0.11558">
        <ele>2199</ele>
        <time>2016-04-02T12:26:12Z</time>
      </trkpt>
      <trkpt lat="42.92444" lon="0.11555">
        <ele>2194</ele>
        <time>2016-04-02T12:26:15Z</time>
      </trkpt>
      <trkpt lat="42.92421" lon="0.11554">
        <ele>2190</ele>
        <time>2016-04-02T12:26:19Z</time>
      </trkpt>
      <trkpt lat="42.92402" lon="0.1155">
        <ele>2188</ele>
        <time>2016-04-02T12:26:23Z</time>
      </trkpt>
      <trkpt lat="42.9238" lon="0.11546">
        <ele>2186</ele>
        <time>2016-04-02T12:26:27Z</time>
      </trkpt>
      <trkpt lat="42.9236" lon="0.11544">
        <ele>2184</ele>
        <time>2016-04-02T12:26:30Z</time>
      </trkpt>
      <trkpt lat="42.92338" lon="0.11544">
        <ele>2182</ele>
        <time>2016-04-02T12:26:34Z</time>
      </trkpt>
      <trkpt lat="42.92319" lon="0.11543">
        <ele>2179</ele>
        <time>2016-04-02T12:26:38Z</time>
      </trkpt>
      <trkpt lat="42.92303" lon="0.11538">
        <ele>2176</ele>
        <time>2016-04-02T12:26:59Z</time>
      </trkpt>
      <trkpt lat="42.92302" lon="0.11537">
        <ele>2174</ele>
        <time>2016-04-02T12:27:00Z</time>
      </trkpt>
      <trkpt lat="42.92299" lon="0.11535">
        <ele>2172</ele>
        <time>2016-04-02T12:27:17Z</time>
      </trkpt>
      <trkpt lat="42.92299" lon="0.11535">
        <ele>2171</ele>
        <time>2016-04-02T12:27:18Z</time>
      </trkpt>
      <trkpt lat="42.92278" lon="0.11531">
        <ele>2168</ele>
        <time>2016-04-02T12:27:31Z</time>
      </trkpt>
      <trkpt lat="42.92257" lon="0.11543">
        <ele>2162</ele>
        <time>2016-04-02T12:27:36Z</time>
      </trkpt>
      <trkpt lat="42.92244" lon="0.11563">
        <ele>2153</ele>
        <time>2016-04-02T12:27:40Z</time>
      </trkpt>
      <trkpt lat="42.9224" lon="0.11591">
        <ele>2141</ele>
        <time>2016-04-02T12:27:54Z</time>
      </trkpt>
      <trkpt lat="42.92236" lon="0.11592">
        <ele>2128</ele>
        <time>2016-04-02T12:28:15Z</time>
      </trkpt>
      <trkpt lat="42.92236" lon="0.11592">
        <ele>2118</ele>
        <time>2016-04-02T12:28:15Z</time>
      </trkpt>
      <trkpt lat="42.92235" lon="0.11594">
        <ele>2111</ele>
        <time>2016-04-02T12:28:16Z</time>
      </trkpt>
      <trkpt lat="42.92238" lon="0.11622">
        <ele>2106</ele>
        <time>2016-04-02T12:28:21Z</time>
      </trkpt>
      <trkpt lat="42.92236" lon="0.11649">
        <ele>2103</ele>
        <time>2016-04-02T12:28:25Z</time>
      </trkpt>
      <trkpt lat="42.92217" lon="0.11633">
        <ele>2099</ele>
        <time>2016-04-02T12:28:29Z</time>
      </trkpt>
      <trkpt lat="42.92199" lon="0.11643">
        <ele>2094</ele>
        <time>2016-04-02T12:28:33Z</time>
      </trkpt>
      <trkpt lat="42.92178" lon="0.11656">
        <ele>2087</ele>
        <time>2016-04-02T12:28:37Z</time>
      </trkpt>
      <trkpt lat="42.92152" lon="0.11655">
        <ele>2080</ele>
        <time>2016-04-02T12:28:41Z</time>
      </trkpt>
      <trkpt lat="42.92132" lon="0.11652">
        <ele>2074</ele>
        <time>2016-04-02T12:28:44Z</time>
      </trkpt>
      <trkpt lat="42.92119" lon="0.11658">
        <ele>2069</ele>
        <time>2016-04-02T12:29:11Z</time>
      </trkpt>
      <trkpt lat="42.9212" lon="0.11658">
        <ele>2067</ele>
        <time>2016-04-02T12:29:12Z</time>
      </trkpt>
      <trkpt lat="42.92117" lon="0.1166">
        <ele>2067</ele>
        <time>2016-04-02T12:29:30Z</time>
      </trkpt>
      <trkpt lat="42.92117" lon="0.1166">
        <ele>2069</ele>
        <time>2016-04-02T12:29:31Z</time>
      </trkpt>
      <trkpt lat="42.92118" lon="0.11661">
        <ele>2071</ele>
        <time>2016-04-02T12:29:49Z</time>
      </trkpt>
      <trkpt lat="42.92118" lon="0.11661">
        <ele>2072</ele>
        <time>2016-04-02T12:29:50Z</time>
      </trkpt>
      <trkpt lat="42.92118" lon="0.11661">
        <ele>2073</ele>
        <time>2016-04-02T12:30:08Z</time>
      </trkpt>
      <trkpt lat="42.92118" lon="0.11661">
        <ele>2072</ele>
        <time>2016-04-02T12:30:09Z</time>
      </trkpt>
      <trkpt lat="42.92112" lon="0.11667">
        <ele>2071</ele>
        <time>2016-04-02T12:30:26Z</time>
      </trkpt>
      <trkpt lat="42.92112" lon="0.11668">
        <ele>2070</ele>
        <time>2016-04-02T12:30:27Z</time>
      </trkpt>
      <trkpt lat="42.92105" lon="0.11685">
        <ele>2069</ele>
        <time>2016-04-02T12:30:45Z</time>
      </trkpt>
      <trkpt lat="42.92104" lon="0.11686">
        <ele>2068</ele>
        <time>2016-04-02T12:30:47Z</time>
      </trkpt>
      <trkpt lat="42.92097" lon="0.11694">
        <ele>2066</ele>
        <time>2016-04-02T12:31:03Z</time>
      </trkpt>
      <trkpt lat="42.92096" lon="0.11695">
        <ele>2065</ele>
        <time>2016-04-02T12:31:04Z</time>
      </trkpt>
      <trkpt lat="42.92086" lon="0.11699">
        <ele>2065</ele>
        <time>2016-04-02T12:31:22Z</time>
      </trkpt>
      <trkpt lat="42.92086" lon="0.117">
        <ele>2065</ele>
        <time>2016-04-02T12:31:23Z</time>
      </trkpt>
      <trkpt lat="42.92085" lon="0.11701">
        <ele>2065</ele>
        <time>2016-04-02T12:31:41Z</time>
      </trkpt>
      <trkpt lat="42.92085" lon="0.11701">
        <ele>2066</ele>
        <time>2016-04-02T12:31:42Z</time>
      </trkpt>
      <trkpt lat="42.92067" lon="0.11708">
        <ele>2067</ele>
        <time>2016-04-02T12:31:56Z</time>
      </trkpt>
      <trkpt lat="42.92052" lon="0.11715">
        <ele>2067</ele>
        <time>2016-04-02T12:32:18Z</time>
      </trkpt>
      <trkpt lat="42.92051" lon="0.11715">
        <ele>2067</ele>
        <time>2016-04-02T12:32:19Z</time>
      </trkpt>
      <trkpt lat="42.92033" lon="0.11716">
        <ele>2067</ele>
        <time>2016-04-02T12:32:29Z</time>
      </trkpt>
      <trkpt lat="42.92014" lon="0.11715">
        <ele>2066</ele>
        <time>2016-04-02T12:32:34Z</time>
      </trkpt>
      <trkpt lat="42.91993" lon="0.11717">
        <ele>2064</ele>
        <time>2016-04-02T12:32:38Z</time>
      </trkpt>
      <trkpt lat="42.91975" lon="0.11719">
        <ele>2063</ele>
        <time>2016-04-02T12:32:42Z</time>
      </trkpt>
      <trkpt lat="42.91954" lon="0.11719">
        <ele>2060</ele>
        <time>2016-04-02T12:32:49Z</time>
      </trkpt>
      <trkpt lat="42.91935" lon="0.11724">
        <ele>2058</ele>
        <time>2016-04-02T12:32:54Z</time>
      </trkpt>
      <trkpt lat="42.91916" lon="0.11728">
        <ele>2055</ele>
        <time>2016-04-02T12:32:58Z</time>
      </trkpt>
      <trkpt lat="42.91897" lon="0.11734">
        <ele>2052</ele>
        <time>2016-04-02T12:33:02Z</time>
      </trkpt>
      <trkpt lat="42.9184" lon="0.11772">
        <ele>2035</ele>
        <time>2016-04-02T12:34:15Z</time>
      </trkpt>
      <trkpt lat="42.91818" lon="0.11768">
        <ele>2030</ele>
        <time>2016-04-02T12:34:19Z</time>
      </trkpt>
      <trkpt lat="42.91797" lon="0.11761">
        <ele>2025</ele>
        <time>2016-04-02T12:34:22Z</time>
      </trkpt>
      <trkpt lat="42.91781" lon="0.11748">
        <ele>2020</ele>
        <time>2016-04-02T12:34:28Z</time>
      </trkpt>
      <trkpt lat="42.91772" lon="0.11727">
        <ele>2015</ele>
        <time>2016-04-02T12:34:34Z</time>
      </trkpt>
      <trkpt lat="42.91753" lon="0.11715">
        <ele>2009</ele>
        <time>2016-04-02T12:34:39Z</time>
      </trkpt>
      <trkpt lat="42.91735" lon="0.11728">
        <ele>2003</ele>
        <time>2016-04-02T12:34:44Z</time>
      </trkpt>
      <trkpt lat="42.91715" lon="0.11738">
        <ele>1995</ele>
        <time>2016-04-02T12:34:49Z</time>
      </trkpt>
      <trkpt lat="42.917" lon="0.11764">
        <ele>1985</ele>
        <time>2016-04-02T12:34:53Z</time>
      </trkpt>
      <trkpt lat="42.91684" lon="0.11786">
        <ele>1976</ele>
        <time>2016-04-02T12:34:56Z</time>
      </trkpt>
      <trkpt lat="42.91666" lon="0.11779">
        <ele>1968</ele>
        <time>2016-04-02T12:35:06Z</time>
      </trkpt>
      <trkpt lat="42.91646" lon="0.11775">
        <ele>1962</ele>
        <time>2016-04-02T12:35:11Z</time>
      </trkpt>
      <trkpt lat="42.91645" lon="0.11773">
        <ele>1958</ele>
        <time>2016-04-02T12:35:31Z</time>
      </trkpt>
      <trkpt lat="42.91645" lon="0.11773">
        <ele>1956</ele>
        <time>2016-04-02T12:35:32Z</time>
      </trkpt>
      <trkpt lat="42.91645" lon="0.11773">
        <ele>1955</ele>
        <time>2016-04-02T12:35:50Z</time>
      </trkpt>
      <trkpt lat="42.91645" lon="0.11773">
        <ele>1955</ele>
        <time>2016-04-02T12:35:51Z</time>
      </trkpt>
      <trkpt lat="42.91645" lon="0.11773">
        <ele>1956</ele>
        <time>2016-04-02T12:36:10Z</time>
      </trkpt>
      <trkpt lat="42.91645" lon="0.11773">
        <ele>1956</ele>
        <time>2016-04-02T12:36:11Z</time>
      </trkpt>
      <trkpt lat="42.91644" lon="0.11775">
        <ele>1955</ele>
        <time>2016-04-02T12:36:30Z</time>
      </trkpt>
      <trkpt lat="42.91642" lon="0.11775">
        <ele>1954</ele>
        <time>2016-04-02T12:36:31Z</time>
      </trkpt>
      <trkpt lat="42.9162" lon="0.11782">
        <ele>1951</ele>
        <time>2016-04-02T12:36:36Z</time>
      </trkpt>
      <trkpt lat="42.9161" lon="0.11811">
        <ele>1948</ele>
        <time>2016-04-02T12:36:40Z</time>
      </trkpt>
      <trkpt lat="42.91594" lon="0.1182">
        <ele>1943</ele>
        <time>2016-04-02T12:36:45Z</time>
      </trkpt>
      <trkpt lat="42.91575" lon="0.11818">
        <ele>1936</ele>
        <time>2016-04-02T12:36:49Z</time>
      </trkpt>
      <trkpt lat="42.91555" lon="0.11821">
        <ele>1928</ele>
        <time>2016-04-02T12:36:53Z</time>
      </trkpt>
      <trkpt lat="42.91533" lon="0.11822">
        <ele>1919</ele>
        <time>2016-04-02T12:36:56Z</time>
      </trkpt>
      <trkpt lat="42.91513" lon="0.11832">
        <ele>1911</ele>
        <time>2016-04-02T12:37:00Z</time>
      </trkpt>
      <trkpt lat="42.91503" lon="0.11849">
        <ele>1905</ele>
        <time>2016-04-02T12:37:28Z</time>
      </trkpt>
      <trkpt lat="42.91503" lon="0.11849">
        <ele>1901</ele>
        <time>2016-04-02T12:37:29Z</time>
      </trkpt>
      <trkpt lat="42.91503" lon="0.11849">
        <ele>1899</ele>
        <time>2016-04-02T12:37:47Z</time>
      </trkpt>
      <trkpt lat="42.91503" lon="0.11849">
        <ele>1898</ele>
        <time>2016-04-02T12:37:48Z</time>
      </trkpt>
      <trkpt lat="42.91503" lon="0.11849">
        <ele>1898</ele>
        <time>2016-04-02T12:38:07Z</time>
      </trkpt>
      <trkpt lat="42.91503" lon="0.11849">
        <ele>1898</ele>
        <time>2016-04-02T12:38:08Z</time>
      </trkpt>
      <trkpt lat="42.91491" lon="0.1185">
        <ele>1897</ele>
        <time>2016-04-02T12:38:25Z</time>
      </trkpt>
      <trkpt lat="42.91488" lon="0.11848">
        <ele>1895</ele>
        <time>2016-04-02T12:38:26Z</time>
      </trkpt>
      <trkpt lat="42.91465" lon="0.11849">
        <ele>1892</ele>
        <time>2016-04-02T12:38:31Z</time>
      </trkpt>
      <trkpt lat="42.91445" lon="0.11858">
        <ele>1888</ele>
        <time>2016-04-02T12:38:35Z</time>
      </trkpt>
      <trkpt lat="42.9143" lon="0.11876">
        <ele>1883</ele>
        <time>2016-04-02T12:38:40Z</time>
      </trkpt>
      <trkpt lat="42.91409" lon="0.11883">
        <ele>1876</ele>
        <time>2016-04-02T12:38:45Z</time>
      </trkpt>
      <trkpt lat="42.91394" lon="0.11892">
        <ele>1870</ele>
        <time>2016-04-02T12:39:03Z</time>
      </trkpt>
      <trkpt lat="42.91394" lon="0.11892">
        <ele>1864</ele>
        <time>2016-04-02T12:39:04Z</time>
      </trkpt>
      <trkpt lat="42.91393" lon="0.11893">
        <ele>1860</ele>
        <time>2016-04-02T12:39:23Z</time>
      </trkpt>
      <trkpt lat="42.91393" lon="0.11893">
        <ele>1858</ele>
        <time>2016-04-02T12:39:23Z</time>
      </trkpt>
      <trkpt lat="42.91374" lon="0.11887">
        <ele>1855</ele>
        <time>2016-04-02T12:39:34Z</time>
      </trkpt>
      <trkpt lat="42.91355" lon="0.1187">
        <ele>1852</ele>
        <time>2016-04-02T12:39:39Z</time>
      </trkpt>
      <trkpt lat="42.91332" lon="0.11856">
        <ele>1847</ele>
        <time>2016-04-02T12:39:42Z</time>
      </trkpt>
      <trkpt lat="42.9131" lon="0.11846">
        <ele>1842</ele>
        <time>2016-04-02T12:39:45Z</time>
      </trkpt>
      <trkpt lat="42.91291" lon="0.11837">
        <ele>1836</ele>
        <time>2016-04-02T12:39:49Z</time>
      </trkpt>
      <trkpt lat="42.91272" lon="0.11835">
        <ele>1830</ele>
        <time>2016-04-02T12:39:52Z</time>
      </trkpt>
      <trkpt lat="42.91254" lon="0.11845">
        <ele>1825</ele>
        <time>2016-04-02T12:39:57Z</time>
      </trkpt>
      <trkpt lat="42.91238" lon="0.11859">
        <ele>1819</ele>
        <time>2016-04-02T12:40:02Z</time>
      </trkpt>
      <trkpt lat="42.91229" lon="0.11863">
        <ele>1812</ele>
        <time>2016-04-02T12:40:19Z</time>
      </trkpt>
      <trkpt lat="42.91229" lon="0.11863">
        <ele>1806</ele>
        <time>2016-04-02T12:40:20Z</time>
      </trkpt>
      <trkpt lat="42.91229" lon="0.11863">
        <ele>1801</ele>
        <time>2016-04-02T12:40:39Z</time>
      </trkpt>
      <trkpt lat="42.91229" lon="0.11863">
        <ele>1797</ele>
        <time>2016-04-02T12:40:40Z</time>
      </trkpt>
      <trkpt lat="42.91213" lon="0.11876">
        <ele>1793</ele>
        <time>2016-04-02T12:40:52Z</time>
      </trkpt>
      <trkpt lat="42.91194" lon="0.1187">
        <ele>1790</ele>
        <time>2016-04-02T12:40:59Z</time>
      </trkpt>
      <trkpt lat="42.91179" lon="0.1185">
        <ele>1785</ele>
        <time>2016-04-02T12:41:03Z</time>
      </trkpt>
      <trkpt lat="42.91165" lon="0.11835">
        <ele>1780</ele>
        <time>2016-04-02T12:41:07Z</time>
      </trkpt>
      <trkpt lat="42.91147" lon="0.11838">
        <ele>1774</ele>
        <time>2016-04-02T12:41:19Z</time>
      </trkpt>
      <trkpt lat="42.91126" lon="0.1183">
        <ele>1768</ele>
        <time>2016-04-02T12:41:24Z</time>
      </trkpt>
      <trkpt lat="42.91128" lon="0.11855">
        <ele>1762</ele>
        <time>2016-04-02T12:41:28Z</time>
      </trkpt>
      <trkpt lat="42.91112" lon="0.11845">
        <ele>1756</ele>
        <time>2016-04-02T12:41:33Z</time>
      </trkpt>
      <trkpt lat="42.91109" lon="0.11859">
        <ele>1749</ele>
        <time>2016-04-02T12:41:54Z</time>
      </trkpt>
      <trkpt lat="42.91108" lon="0.11865">
        <ele>1744</ele>
        <time>2016-04-02T12:41:55Z</time>
      </trkpt>
      <trkpt lat="42.91106" lon="0.11874">
        <ele>1740</ele>
        <time>2016-04-02T12:42:12Z</time>
      </trkpt>
      <trkpt lat="42.91105" lon="0.11874">
        <ele>1737</ele>
        <time>2016-04-02T12:42:13Z</time>
      </trkpt>
      <trkpt lat="42.9109" lon="0.11858">
        <ele>1735</ele>
        <time>2016-04-02T12:42:21Z</time>
      </trkpt>
      <trkpt lat="42.91084" lon="0.11833">
        <ele>1733</ele>
        <time>2016-04-02T12:42:42Z</time>
      </trkpt>
      <trkpt lat="42.9107" lon="0.11814">
        <ele>1730</ele>
        <time>2016-04-02T12:43:04Z</time>
      </trkpt>
      <trkpt lat="42.91056" lon="0.11805">
        <ele>1726</ele>
        <time>2016-04-02T12:43:27Z</time>
      </trkpt>
      <trkpt lat="42.91056" lon="0.11807">
        <ele>1722</ele>
        <time>2016-04-02T12:43:28Z</time>
      </trkpt>
      <trkpt lat="42.91057" lon="0.11805">
        <ele>1718</ele>
        <time>2016-04-02T12:43:46Z</time>
      </trkpt>
      <trkpt lat="42.91057" lon="0.11805">
        <ele>1715</ele>
        <time>2016-04-02T12:43:47Z</time>
      </trkpt>
      <trkpt lat="42.91056" lon="0.11805">
        <ele>1714</ele>
        <time>2016-04-02T12:44:05Z</time>
      </trkpt>
      <trkpt lat="42.91056" lon="0.11805">
        <ele>1714</ele>
        <time>2016-04-02T12:44:06Z</time>
      </trkpt>
      <trkpt lat="42.91052" lon="0.11813">
        <ele>1713</ele>
        <time>2016-04-02T12:44:24Z</time>
      </trkpt>
      <trkpt lat="42.91052" lon="0.11812">
        <ele>1712</ele>
        <time>2016-04-02T12:44:25Z</time>
      </trkpt>
      <trkpt lat="42.91045" lon="0.11805">
        <ele>1711</ele>
        <time>2016-04-02T12:44:44Z</time>
      </trkpt>
      <trkpt lat="42.91044" lon="0.11807">
        <ele>1710</ele>
        <time>2016-04-02T12:44:45Z</time>
      </trkpt>
      <trkpt lat="42.9104" lon="0.11817">
        <ele>1709</ele>
        <time>2016-04-02T12:45:01Z</time>
      </trkpt>
      <trkpt lat="42.9104" lon="0.11818">
        <ele>1708</ele>
        <time>2016-04-02T12:45:02Z</time>
      </trkpt>
      <trkpt lat="42.91035" lon="0.11824">
        <ele>1707</ele>
        <time>2016-04-02T12:45:21Z</time>
      </trkpt>
      <trkpt lat="42.91035" lon="0.11824">
        <ele>1707</ele>
        <time>2016-04-02T12:45:22Z</time>
      </trkpt>
      <trkpt lat="42.91029" lon="0.11821">
        <ele>1707</ele>
        <time>2016-04-02T12:45:40Z</time>
      </trkpt>
      <trkpt lat="42.91029" lon="0.11821">
        <ele>1707</ele>
        <time>2016-04-02T12:45:41Z</time>
      </trkpt>
      <trkpt lat="42.91028" lon="0.11821">
        <ele>1708</ele>
        <time>2016-04-02T12:45:58Z</time>
      </trkpt>
      <trkpt lat="42.91029" lon="0.11821">
        <ele>1708</ele>
        <time>2016-04-02T12:45:58Z</time>
      </trkpt>
      <trkpt lat="42.91028" lon="0.11821">
        <ele>1709</ele>
        <time>2016-04-02T12:46:16Z</time>
      </trkpt>
      <trkpt lat="42.91029" lon="0.11821">
        <ele>1709</ele>
        <time>2016-04-02T12:46:17Z</time>
      </trkpt>
      <trkpt lat="42.91028" lon="0.11821">
        <ele>1710</ele>
        <time>2016-04-02T12:46:35Z</time>
      </trkpt>
      <trkpt lat="42.91028" lon="0.11821">
        <ele>1710</ele>
        <time>2016-04-02T12:46:36Z</time>
      </trkpt>
      <trkpt lat="42.91028" lon="0.11821">
        <ele>1711</ele>
        <time>2016-04-02T12:46:54Z</time>
      </trkpt>
      <trkpt lat="42.91028" lon="0.11821">
        <ele>1711</ele>
        <time>2016-04-02T12:46:55Z</time>
      </trkpt>
      <trkpt lat="42.91024" lon="0.11822">
        <ele>1711</ele>
        <time>2016-04-02T12:47:15Z</time>
      </trkpt>
      <trkpt lat="42.91024" lon="0.11822">
        <ele>1710</ele>
        <time>2016-04-02T12:47:16Z</time>
      </trkpt>
      <trkpt lat="42.91012" lon="0.1181">
        <ele>1709</ele>
        <time>2016-04-02T12:47:34Z</time>
      </trkpt>
      <trkpt lat="42.91011" lon="0.1181">
        <ele>1708</ele>
        <time>2016-04-02T12:47:34Z</time>
      </trkpt>
      <trkpt lat="42.91" lon="0.11788">
        <ele>1706</ele>
        <time>2016-04-02T12:47:45Z</time>
      </trkpt>
      <trkpt lat="42.90988" lon="0.11768">
        <ele>1704</ele>
        <time>2016-04-02T12:47:54Z</time>
      </trkpt>
      <trkpt lat="42.90974" lon="0.1175">
        <ele>1701</ele>
        <time>2016-04-02T12:48:01Z</time>
      </trkpt>
      <trkpt lat="42.9096" lon="0.11732">
        <ele>1698</ele>
        <time>2016-04-02T12:48:09Z</time>
      </trkpt>
      <trkpt lat="42.90942" lon="0.11721">
        <ele>1695</ele>
        <time>2016-04-02T12:48:16Z</time>
      </trkpt>
      <trkpt lat="42.90925" lon="0.11711">
        <ele>1691</ele>
        <time>2016-04-02T12:48:21Z</time>
      </trkpt>
      <trkpt lat="42.90908" lon="0.11701">
        <ele>1690</ele>
        <time>2016-04-02T12:48:25Z</time>
      </trkpt>
      <trkpt lat="42.90892" lon="0.11687">
        <ele>1687</ele>
        <time>2016-04-02T12:48:39Z</time>
      </trkpt>
      <trkpt lat="42.90874" lon="0.11689">
        <ele>1685</ele>
        <time>2016-04-02T12:49:01Z</time>
      </trkpt>
      <trkpt lat="42.90862" lon="0.11692">
        <ele>1683</ele>
        <time>2016-04-02T12:49:26Z</time>
      </trkpt>
      <trkpt lat="42.90862" lon="0.11692">
        <ele>1680</ele>
        <time>2016-04-02T12:49:27Z</time>
      </trkpt>
      <trkpt lat="42.90859" lon="0.11692">
        <ele>1676</ele>
        <time>2016-04-02T12:49:45Z</time>
      </trkpt>
      <trkpt lat="42.90859" lon="0.11692">
        <ele>1674</ele>
        <time>2016-04-02T12:49:46Z</time>
      </trkpt>
      <trkpt lat="42.90849" lon="0.11697">
        <ele>1671</ele>
        <time>2016-04-02T12:50:04Z</time>
      </trkpt>
      <trkpt lat="42.90848" lon="0.11698">
        <ele>1670</ele>
        <time>2016-04-02T12:50:05Z</time>
      </trkpt>
      <trkpt lat="42.9083" lon="0.11707">
        <ele>1667</ele>
        <time>2016-04-02T12:50:20Z</time>
      </trkpt>
      <trkpt lat="42.90817" lon="0.11716">
        <ele>1666</ele>
        <time>2016-04-02T12:50:41Z</time>
      </trkpt>
      <trkpt lat="42.90817" lon="0.11716">
        <ele>1664</ele>
        <time>2016-04-02T12:50:42Z</time>
      </trkpt>
      <trkpt lat="42.90817" lon="0.11716">
        <ele>1662</ele>
        <time>2016-04-02T12:51:00Z</time>
      </trkpt>
      <trkpt lat="42.90817" lon="0.11716">
        <ele>1661</ele>
        <time>2016-04-02T12:51:01Z</time>
      </trkpt>
      <trkpt lat="42.90817" lon="0.11715">
        <ele>1660</ele>
        <time>2016-04-02T12:51:19Z</time>
      </trkpt>
      <trkpt lat="42.90817" lon="0.11715">
        <ele>1660</ele>
        <time>2016-04-02T12:51:20Z</time>
      </trkpt>
      <trkpt lat="42.9081" lon="0.11716">
        <ele>1660</ele>
        <time>2016-04-02T12:51:38Z</time>
      </trkpt>
      <trkpt lat="42.9081" lon="0.11716">
        <ele>1659</ele>
        <time>2016-04-02T12:51:39Z</time>
      </trkpt>
      <trkpt lat="42.90796" lon="0.11713">
        <ele>1656</ele>
        <time>2016-04-02T12:51:59Z</time>
      </trkpt>
      <trkpt lat="42.90794" lon="0.11713">
        <ele>1654</ele>
        <time>2016-04-02T12:52:01Z</time>
      </trkpt>
      <trkpt lat="42.90784" lon="0.11714">
        <ele>1651</ele>
        <time>2016-04-02T12:52:18Z</time>
      </trkpt>
      <trkpt lat="42.90784" lon="0.11714">
        <ele>1649</ele>
        <time>2016-04-02T12:52:19Z</time>
      </trkpt>
      <trkpt lat="42.9077" lon="0.1172">
        <ele>1646</ele>
        <time>2016-04-02T12:52:38Z</time>
      </trkpt>
      <trkpt lat="42.90769" lon="0.1172">
        <ele>1644</ele>
        <time>2016-04-02T12:52:39Z</time>
      </trkpt>
      <trkpt lat="42.90762" lon="0.11726">
        <ele>1642</ele>
        <time>2016-04-02T12:52:58Z</time>
      </trkpt>
      <trkpt lat="42.90762" lon="0.11728">
        <ele>1640</ele>
        <time>2016-04-02T12:52:59Z</time>
      </trkpt>
      <trkpt lat="42.90752" lon="0.11729">
        <ele>1638</ele>
        <time>2016-04-02T12:53:17Z</time>
      </trkpt>
      <trkpt lat="42.90751" lon="0.11729">
        <ele>1637</ele>
        <time>2016-04-02T12:53:18Z</time>
      </trkpt>
      <trkpt lat="42.90743" lon="0.11724">
        <ele>1635</ele>
        <time>2016-04-02T12:53:35Z</time>
      </trkpt>
      <trkpt lat="42.90742" lon="0.11723">
        <ele>1635</ele>
        <time>2016-04-02T12:53:36Z</time>
      </trkpt>
      <trkpt lat="42.90736" lon="0.11721">
        <ele>1634</ele>
        <time>2016-04-02T12:53:54Z</time>
      </trkpt>
      <trkpt lat="42.90736" lon="0.11721">
        <ele>1635</ele>
        <time>2016-04-02T12:53:55Z</time>
      </trkpt>
      <trkpt lat="42.90736" lon="0.11721">
        <ele>1635</ele>
        <time>2016-04-02T12:54:13Z</time>
      </trkpt>
      <trkpt lat="42.90736" lon="0.11721">
        <ele>1635</ele>
        <time>2016-04-02T12:54:14Z</time>
      </trkpt>
      <trkpt lat="42.90738" lon="0.11719">
        <ele>1635</ele>
        <time>2016-04-02T12:54:31Z</time>
      </trkpt>
      <trkpt lat="42.90738" lon="0.11719">
        <ele>1634</ele>
        <time>2016-04-02T12:54:32Z</time>
      </trkpt>
      <trkpt lat="42.90719" lon="0.11712">
        <ele>1633</ele>
        <time>2016-04-02T12:54:44Z</time>
      </trkpt>
      <trkpt lat="42.90717" lon="0.11683">
        <ele>1630</ele>
        <time>2016-04-02T12:54:49Z</time>
      </trkpt>
      <trkpt lat="42.9071" lon="0.11659">
        <ele>1628</ele>
        <time>2016-04-02T12:54:52Z</time>
      </trkpt>
      <trkpt lat="42.90711" lon="0.1163">
        <ele>1625</ele>
        <time>2016-04-02T12:54:55Z</time>
      </trkpt>
      <trkpt lat="42.90709" lon="0.11601">
        <ele>1621</ele>
        <time>2016-04-02T12:54:58Z</time>
      </trkpt>
      <trkpt lat="42.90717" lon="0.11575">
        <ele>1618</ele>
        <time>2016-04-02T12:55:01Z</time>
      </trkpt>
      <trkpt lat="42.90721" lon="0.11546">
        <ele>1615</ele>
        <time>2016-04-02T12:55:04Z</time>
      </trkpt>
      <trkpt lat="42.90723" lon="0.11516">
        <ele>1611</ele>
        <time>2016-04-02T12:55:07Z</time>
      </trkpt>
      <trkpt lat="42.90724" lon="0.11487">
        <ele>1609</ele>
        <time>2016-04-02T12:55:10Z</time>
      </trkpt>
      <trkpt lat="42.90721" lon="0.11458">
        <ele>1606</ele>
        <time>2016-04-02T12:55:13Z</time>
      </trkpt>
      <trkpt lat="42.90717" lon="0.11431">
        <ele>1603</ele>
        <time>2016-04-02T12:55:16Z</time>
      </trkpt>
      <trkpt lat="42.90712" lon="0.11404">
        <ele>1601</ele>
        <time>2016-04-02T12:55:19Z</time>
      </trkpt>
      <trkpt lat="42.90704" lon="0.11376">
        <ele>1599</ele>
        <time>2016-04-02T12:55:22Z</time>
      </trkpt>
      <trkpt lat="42.90694" lon="0.11348">
        <ele>1596</ele>
        <time>2016-04-02T12:55:25Z</time>
      </trkpt>
      <trkpt lat="42.90684" lon="0.11317">
        <ele>1593</ele>
        <time>2016-04-02T12:55:28Z</time>
      </trkpt>
      <trkpt lat="42.90676" lon="0.11289">
        <ele>1591</ele>
        <time>2016-04-02T12:55:31Z</time>
      </trkpt>
      <trkpt lat="42.90674" lon="0.11257">
        <ele>1588</ele>
        <time>2016-04-02T12:55:35Z</time>
      </trkpt>
      <trkpt lat="42.90674" lon="0.11227">
        <ele>1584</ele>
        <time>2016-04-02T12:55:39Z</time>
      </trkpt>
      <trkpt lat="42.90672" lon="0.11199">
        <ele>1581</ele>
        <time>2016-04-02T12:55:43Z</time>
      </trkpt>
      <trkpt lat="42.90665" lon="0.11171">
        <ele>1578</ele>
        <time>2016-04-02T12:55:48Z</time>
      </trkpt>
      <trkpt lat="42.90667" lon="0.1114">
        <ele>1575</ele>
        <time>2016-04-02T12:55:52Z</time>
      </trkpt>
      <trkpt lat="42.90667" lon="0.11108">
        <ele>1572</ele>
        <time>2016-04-02T12:55:56Z</time>
      </trkpt>
      <trkpt lat="42.90665" lon="0.11083">
        <ele>1570</ele>
        <time>2016-04-02T12:56:01Z</time>
      </trkpt>
      <trkpt lat="42.90657" lon="0.11057">
        <ele>1568</ele>
        <time>2016-04-02T12:56:08Z</time>
      </trkpt>
      <trkpt lat="42.90645" lon="0.11034">
        <ele>1566</ele>
        <time>2016-04-02T12:56:13Z</time>
      </trkpt>
      <trkpt lat="42.90635" lon="0.11014">
        <ele>1565</ele>
        <time>2016-04-02T12:56:16Z</time>
      </trkpt>
      <trkpt lat="42.90625" lon="0.10993">
        <ele>1564</ele>
        <time>2016-04-02T12:56:19Z</time>
      </trkpt>
      <trkpt lat="42.90617" lon="0.1097">
        <ele>1562</ele>
        <time>2016-04-02T12:56:22Z</time>
      </trkpt>
      <trkpt lat="42.90609" lon="0.10947">
        <ele>1560</ele>
        <time>2016-04-02T12:56:24Z</time>
      </trkpt>
      <trkpt lat="42.90601" lon="0.10924">
        <ele>1559</ele>
        <time>2016-04-02T12:56:26Z</time>
      </trkpt>
      <trkpt lat="42.90588" lon="0.10895">
        <ele>1558</ele>
        <time>2016-04-02T12:56:29Z</time>
      </trkpt>
      <trkpt lat="42.90583" lon="0.10866">
        <ele>1557</ele>
        <time>2016-04-02T12:56:33Z</time>
      </trkpt>
      <trkpt lat="42.90582" lon="0.10841">
        <ele>1555</ele>
        <time>2016-04-02T12:56:38Z</time>
      </trkpt>
      <trkpt lat="42.90572" lon="0.10814">
        <ele>1553</ele>
        <time>2016-04-02T12:56:43Z</time>
      </trkpt>
      <trkpt lat="42.90566" lon="0.1079">
        <ele>1552</ele>
        <time>2016-04-02T12:56:48Z</time>
      </trkpt>
      <trkpt lat="42.90559" lon="0.10763">
        <ele>1550</ele>
        <time>2016-04-02T12:56:54Z</time>
      </trkpt>
      <trkpt lat="42.9055" lon="0.10735">
        <ele>1549</ele>
        <time>2016-04-02T12:56:59Z</time>
      </trkpt>
      <trkpt lat="42.9054" lon="0.10706">
        <ele>1547</ele>
        <time>2016-04-02T12:57:03Z</time>
      </trkpt>
      <trkpt lat="42.90533" lon="0.10681">
        <ele>1545</ele>
        <time>2016-04-02T12:57:06Z</time>
      </trkpt>
      <trkpt lat="42.9052" lon="0.1066">
        <ele>1541</ele>
        <time>2016-04-02T12:57:09Z</time>
      </trkpt>
      <trkpt lat="42.905" lon="0.10644">
        <ele>1537</ele>
        <time>2016-04-02T12:57:12Z</time>
      </trkpt>
      <trkpt lat="42.9048" lon="0.10621">
        <ele>1531</ele>
        <time>2016-04-02T12:57:15Z</time>
      </trkpt>
      <trkpt lat="42.90463" lon="0.10606">
        <ele>1526</ele>
        <time>2016-04-02T12:57:17Z</time>
      </trkpt>
      <trkpt lat="42.90446" lon="0.10591">
        <ele>1522</ele>
        <time>2016-04-02T12:57:19Z</time>
      </trkpt>
      <trkpt lat="42.90424" lon="0.1057">
        <ele>1518</ele>
        <time>2016-04-02T12:57:22Z</time>
      </trkpt>
      <trkpt lat="42.90405" lon="0.1056">
        <ele>1515</ele>
        <time>2016-04-02T12:57:25Z</time>
      </trkpt>
      <trkpt lat="42.90381" lon="0.10559">
        <ele>1514</ele>
        <time>2016-04-02T12:57:29Z</time>
      </trkpt>
      <trkpt lat="42.90357" lon="0.10556">
        <ele>1513</ele>
        <time>2016-04-02T12:57:32Z</time>
      </trkpt>
      <trkpt lat="42.90334" lon="0.10546">
        <ele>1512</ele>
        <time>2016-04-02T12:57:35Z</time>
      </trkpt>
      <trkpt lat="42.90309" lon="0.10538">
        <ele>1511</ele>
        <time>2016-04-02T12:57:38Z</time>
      </trkpt>
      <trkpt lat="42.90289" lon="0.10531">
        <ele>1509</ele>
        <time>2016-04-02T12:57:41Z</time>
      </trkpt>
      <trkpt lat="42.90272" lon="0.10515">
        <ele>1507</ele>
        <time>2016-04-02T12:57:45Z</time>
      </trkpt>
      <trkpt lat="42.90256" lon="0.10498">
        <ele>1504</ele>
        <time>2016-04-02T12:57:48Z</time>
      </trkpt>
      <trkpt lat="42.90236" lon="0.10473">
        <ele>1502</ele>
        <time>2016-04-02T12:57:51Z</time>
      </trkpt>
      <trkpt lat="42.9022" lon="0.10458">
        <ele>1499</ele>
        <time>2016-04-02T12:57:53Z</time>
      </trkpt>
      <trkpt lat="42.90199" lon="0.10441">
        <ele>1496</ele>
        <time>2016-04-02T12:57:56Z</time>
      </trkpt>
      <trkpt lat="42.90178" lon="0.10426">
        <ele>1493</ele>
        <time>2016-04-02T12:57:59Z</time>
      </trkpt>
      <trkpt lat="42.90168" lon="0.10397">
        <ele>1488</ele>
        <time>2016-04-02T12:58:02Z</time>
      </trkpt>
      <trkpt lat="42.90187" lon="0.10371">
        <ele>1485</ele>
        <time>2016-04-02T12:58:05Z</time>
      </trkpt>
      <trkpt lat="42.9021" lon="0.1036">
        <ele>1480</ele>
        <time>2016-04-02T12:58:08Z</time>
      </trkpt>
      <trkpt lat="42.9023" lon="0.10361">
        <ele>1476</ele>
        <time>2016-04-02T12:58:11Z</time>
      </trkpt>
      <trkpt lat="42.90252" lon="0.10358">
        <ele>1473</ele>
        <time>2016-04-02T12:58:15Z</time>
      </trkpt>
      <trkpt lat="42.90271" lon="0.10351">
        <ele>1471</ele>
        <time>2016-04-02T12:58:20Z</time>
      </trkpt>
      <trkpt lat="42.90291" lon="0.1034">
        <ele>1510</ele>
        <time>2016-04-02T12:58:25Z</time>
      </trkpt>
      <trkpt lat="42.90299" lon="0.10317">
        <ele>1533</ele>
        <time>2016-04-02T12:58:30Z</time>
      </trkpt>
      <trkpt lat="42.90299" lon="0.10291">
        <ele>1532</ele>
        <time>2016-04-02T12:58:37Z</time>
      </trkpt>
      <trkpt lat="42.90311" lon="0.10267">
        <ele>1533</ele>
        <time>2016-04-02T12:58:45Z</time>
      </trkpt>
      <trkpt lat="42.90326" lon="0.1028">
        <ele>1531</ele>
        <time>2016-04-02T12:58:56Z</time>
      </trkpt>
      <trkpt lat="42.90336" lon="0.10285">
        <ele>1488</ele>
        <time>2016-04-02T12:59:11Z</time>
      </trkpt>
      <trkpt lat="42.90336" lon="0.10285">
        <ele>1462</ele>
        <time>2016-04-02T12:59:12Z</time>
      </trkpt>
      <trkpt lat="42.90336" lon="0.10286">
        <ele>1460</ele>
        <time>2016-04-02T12:59:30Z</time>
      </trkpt>
      <trkpt lat="42.90336" lon="0.10286">
        <ele>1456</ele>
        <time>2016-04-02T12:59:31Z</time>
      </trkpt>
      <trkpt lat="42.90336" lon="0.10286">
        <ele>1456</ele>
        <time>2016-04-02T12:59:51Z</time>
      </trkpt>
      <trkpt lat="42.90336" lon="0.10286">
        <ele>1456</ele>
        <time>2016-04-02T12:59:52Z</time>
      </trkpt>
      <trkpt lat="42.90336" lon="0.10286">
        <ele>1456</ele>
        <time>2016-04-02T13:00:10Z</time>
      </trkpt>
      <trkpt lat="42.90336" lon="0.10286">
        <ele>1456</ele>
        <time>2016-04-02T13:00:11Z</time>
      </trkpt>
      <trkpt lat="42.90334" lon="0.10286">
        <ele>1455</ele>
        <time>2016-04-02T13:00:27Z</time>
      </trkpt>
      <trkpt lat="42.90334" lon="0.10286">
        <ele>1455</ele>
        <time>2016-04-02T13:00:28Z</time>
      </trkpt>
      <trkpt lat="42.90328" lon="0.10269">
        <ele>1453</ele>
        <time>2016-04-02T13:00:46Z</time>
      </trkpt>
      <trkpt lat="42.90327" lon="0.10268">
        <ele>1451</ele>
        <time>2016-04-02T13:00:47Z</time>
      </trkpt>
      <trkpt lat="42.90323" lon="0.10264">
        <ele>1451</ele>
        <time>2016-04-02T13:01:07Z</time>
      </trkpt>
      <trkpt lat="42.90324" lon="0.10263">
        <ele>1451</ele>
        <time>2016-04-02T13:01:08Z</time>
      </trkpt>
      <trkpt lat="42.90329" lon="0.10263">
        <ele>1450</ele>
        <time>2016-04-02T13:01:26Z</time>
      </trkpt>
      <trkpt lat="42.90329" lon="0.10263">
        <ele>1451</ele>
        <time>2016-04-02T13:01:27Z</time>
      </trkpt>
      <trkpt lat="42.9033" lon="0.10258">
        <ele>1451</ele>
        <time>2016-04-02T13:01:46Z</time>
      </trkpt>
      <trkpt lat="42.9033" lon="0.10258">
        <ele>1449</ele>
        <time>2016-04-02T13:01:47Z</time>
      </trkpt>
      <trkpt lat="42.90328" lon="0.10258">
        <ele>1448</ele>
        <time>2016-04-02T13:02:04Z</time>
      </trkpt>
      <trkpt lat="42.90328" lon="0.10258">
        <ele>1448</ele>
        <time>2016-04-02T13:02:05Z</time>
      </trkpt>
    </trkseg>
  </trk>
</gpx>